Date StartTime U_cm/s V_cm/s W_cm/s Ustd_cm/s Vstd_cm/s Wstd_cm/s Uvar_(cm/s)^2 Vvar_(cm/s)^2 Wvar_(cm/s)^2 KE_(m/s)^2 TurbulentKE_(m/s)^2 HorizWindSpeed_cm/s FrictionSpeec_cm/s DragCoef SpeedOfSound_m/s SonicTemperature_C Pressure_mb 
01/25/2014  00:00:00      -75.169      -13.597      -13.047       15.437       16.331       13.484      238.297      266.693      181.829        0.335        0.034       76.388        8.976        0.014      332.331        0.924      871.913
01/25/2014  00:01:00      -65.257       -7.486       -8.935       18.216       14.651       11.491      331.809      214.652      132.042        0.254        0.034       65.685        9.892        0.023      332.329        0.920      871.905
01/25/2014  00:02:00      -72.869       -5.436      -14.763       12.736       13.445       11.047      162.202      180.776      122.025        0.301        0.023       73.071        8.081        0.012      332.368        0.985      871.908
01/25/2014  00:03:00      -72.234       -0.819      -11.758       14.557        9.280       13.241      211.911       86.125      175.328        0.291        0.024       72.238        9.037        0.016      332.359        0.970      871.907
01/25/2014  00:04:00      -64.346      -13.178      -16.716       11.885       14.355       11.329      141.255      206.061      128.335        0.253        0.024       65.682        9.296        0.020      332.343        0.943      871.911
01/25/2014  00:05:00      -33.829      -20.673       -4.982       12.867        8.342        7.088      165.566       69.594       50.239        0.094        0.014       39.646        1.985        0.003      332.393        1.027      871.919
01/25/2014  00:06:00      -52.069      -31.519       -7.831       13.831       13.509       11.223      191.305      182.485      125.951        0.213        0.025       60.866        4.742        0.006      332.345        0.947      871.920
01/25/2014  00:07:00      -61.055      -33.510      -10.796       16.840       14.201       10.607      283.570      201.680      112.506        0.278        0.030       69.646        4.678        0.005      332.306        0.882      871.919
01/25/2014  00:08:00      -82.727      -33.638      -17.787       13.600       11.413        9.819      184.949      130.267       96.412        0.435        0.021       89.305        4.215        0.002      332.199        0.708      871.921
01/25/2014  00:09:00      -54.228      -44.381       -3.307       20.751       21.996       16.165      430.611      483.817      261.295        0.305        0.059       70.074       13.092        0.035      332.255        0.799      871.924
01/25/2014  00:10:00      -50.127      -28.568       -5.903       23.949       17.585       15.317      573.546      309.239      234.599        0.224        0.056       57.696        6.245        0.012      332.278        0.837      871.931
01/25/2014  00:11:00      -80.957      -33.086      -10.229       28.008       20.985       19.388      784.434      440.382      375.905        0.468        0.080       87.456       13.174        0.023      332.192        0.696      871.932
01/25/2014  00:12:00      -33.822      -38.687       -6.161       24.836       28.994       20.712      616.852      840.635      429.004        0.228        0.094       51.387       19.080        0.138      332.173        0.664      871.924
01/25/2014  00:13:00      -92.336      -12.046       -7.072       17.312       14.950       19.316      299.716      223.504      373.114        0.481        0.045       93.119       14.470        0.024      332.127        0.589      871.910
01/25/2014  00:14:00      -91.356      -21.657      -18.420       20.067       16.652       11.217      402.677      277.277      125.823        0.498        0.040       93.888        9.390        0.010      332.151        0.628      871.910
01/25/2014  00:15:00      -74.407      -30.817       -7.562       30.550       19.516       12.950      933.300      380.893      167.706        0.401        0.074       80.536       16.757        0.043      332.242        0.777      871.920
01/25/2014  00:16:00      -84.265      -25.185      -11.907       25.068       25.967       12.760      628.429      674.286      162.811        0.467        0.073       87.948       10.376        0.014      332.252        0.795      871.932
01/25/2014  00:17:00      -88.882      -16.892      -14.692       27.719       22.393       16.394      768.346      501.429      268.775        0.497        0.077       90.473        9.282        0.011      332.306        0.884      871.938
01/25/2014  00:18:00      -52.523      -16.555       -1.994       27.668       16.349       13.868      765.510      267.276      192.321        0.213        0.061       55.070       14.608        0.070      332.204        0.717      871.940
01/25/2014  00:19:00      -95.083       -1.337      -14.490       16.804       17.205       11.163      282.370      296.025      124.616        0.498        0.035       95.092        8.619        0.008      332.327        0.917      871.944
01/25/2014  00:20:00      -86.661       -4.314      -18.007       16.443       10.750       10.155      270.364      115.565      103.119        0.417        0.024       86.768        4.077        0.002      332.405        1.046      871.951
01/25/2014  00:21:00      -83.814       -9.375      -11.483       15.246       15.422       10.784      232.438      237.850      116.284        0.392        0.029       84.337        3.070        0.001      332.366        0.982      871.961
01/25/2014  00:22:00      -95.116      -21.839       -9.794       21.697       20.130       17.672      470.756      405.213      312.282        0.540        0.059       97.591        9.684        0.010      332.306        0.882      871.963
01/25/2014  00:23:00      -99.953      -19.836      -16.422       21.737       16.622       13.930      472.500      276.306      194.053        0.580        0.047      101.902       10.053        0.010      332.232        0.762      871.957
01/25/2014  00:24:00      -85.787      -38.583      -12.386       23.200       21.750       13.650      538.223      473.075      186.322        0.510        0.060       94.064       13.216        0.020      332.227        0.753      871.951
01/25/2014  00:25:00      -77.886      -44.928      -15.504       25.103       20.207       12.876      630.172      408.314      165.786        0.476        0.060       89.915        8.366        0.009      332.164        0.649      871.954
01/25/2014  00:26:00      -78.503      -35.426      -15.319       18.720       20.248       14.026      350.455      409.996      196.715        0.430        0.048       86.126       14.445        0.028      332.141        0.611      871.961
01/25/2014  00:27:00     -106.980      -18.761      -20.377       18.035       14.840       11.517      325.254      220.227      132.647        0.644        0.034      108.612       10.313        0.009      332.104        0.550      871.956
01/25/2014  00:28:00     -109.773      -36.955      -12.630       26.355       23.821       12.803      694.606      567.420      163.908        0.750        0.071      115.826       13.072        0.013      332.093        0.533      871.942
01/25/2014  00:29:00      -65.149      -46.828      -10.735       31.275       18.407       15.258      978.149      338.807      232.806        0.405        0.077       80.232        8.096        0.010      332.220        0.742      871.923
01/25/2014  00:30:00     -111.133      -49.656       -9.135       20.345       18.698       12.340      413.921      349.619      152.271        0.791        0.046      121.722       10.639        0.008      332.191        0.695      871.919
01/25/2014  00:31:00      -89.991      -26.347       -1.219       30.453       15.430       11.705      927.373      238.077      137.003        0.505        0.065       93.769        7.662        0.007      332.173        0.665      871.921
01/25/2014  00:32:00      -90.169      -38.664        0.131       17.773       16.586        8.168      315.884      275.098       66.717        0.514        0.033       98.109        5.864        0.004      332.200        0.710      871.936
01/25/2014  00:33:00      -91.907      -48.608       -4.788       20.155       16.647       12.347      406.218      277.136      152.450        0.583        0.042      103.969       10.453        0.010      332.076        0.503      871.946
01/25/2014  00:34:00      -53.593      -48.870       -3.508       35.104       21.132       16.813     1232.276      446.553      282.679        0.362        0.098       72.529       11.624        0.026      332.109        0.558      871.947
01/25/2014  00:35:00      -76.072      -43.070        1.807       42.685       20.696       16.615     1822.031      428.342      276.063        0.509        0.126       87.418       17.932        0.042      332.036        0.439      871.947
01/25/2014  00:36:00      -78.544      -49.053        6.163       44.270       25.105       24.557     1959.819      630.264      603.069        0.590        0.160       92.603       25.301        0.075      332.075        0.502      871.952
01/25/2014  00:37:00     -119.476      -76.650       -3.906       34.732       23.581       21.504     1206.288      556.064      462.440        1.119        0.111      141.950       17.684        0.016      332.074        0.500      871.952
01/25/2014  00:38:00     -111.347      -48.222       -1.370       40.461       23.901       18.306     1637.094      571.255      335.104        0.863        0.127      121.341       18.014        0.022      332.062        0.480      871.945
01/25/2014  00:39:00     -124.123      -47.944       -1.874       32.475       21.756       17.130     1054.604      473.326      293.424        0.976        0.091      133.060       17.000        0.016      332.014        0.401      871.933
01/25/2014  00:40:00     -110.683      -43.724        7.980       48.658       38.432       24.014     2367.567     1477.010      576.655        0.932        0.221      119.006       23.486        0.039      332.174        0.665      871.918
01/25/2014  00:41:00     -140.169      -47.080        4.289       43.341       32.506       20.235     1878.438     1056.655      409.450        1.261        0.167      147.864       23.402        0.025      332.182        0.679      871.904
01/25/2014  00:42:00     -137.869      -59.564        2.954       40.063       34.084       22.977     1605.082     1161.732      527.955        1.293        0.165      150.185       24.453        0.027      332.199        0.707      871.904
01/25/2014  00:43:00     -121.335      -51.575        5.855       40.155       36.285       21.001     1612.453     1316.586      441.026        1.039        0.169      131.842       18.547        0.020      332.242        0.777      871.896
01/25/2014  00:44:00     -139.560      -71.133       -2.792       42.037       36.169       23.524     1767.129     1308.221      553.363        1.409        0.181      156.643       23.344        0.022      332.297        0.868      871.886
01/25/2014  00:45:00     -147.150      -65.094        1.604       45.300       35.856       20.910     2052.076     1285.641      437.216        1.483        0.189      160.905       22.584        0.020      332.271        0.824      871.874
01/25/2014  00:46:00     -123.121      -64.977        0.553       37.816       29.977       22.039     1430.073      898.614      485.733        1.110        0.141      139.214       21.708        0.024      332.251        0.792      871.878
01/25/2014  00:47:00     -133.664      -71.564       -2.670       43.720       30.220       22.857     1911.432      913.247      522.465        1.317        0.167      151.616       22.526        0.022      332.257        0.801      871.870
01/25/2014  00:48:00     -146.208      -40.108       -2.068       32.113       29.790       21.131     1031.216      887.431      446.523        1.268        0.118      151.609       17.679        0.014      332.236        0.767      871.863
01/25/2014  00:49:00     -121.696      -63.372       -0.088       49.442       35.370       21.558     2444.514     1251.010      464.767        1.149        0.208      137.207       25.017        0.033      332.332        0.925      871.846
01/25/2014  00:50:00     -164.082      -60.803       -2.048       36.013       27.858       18.582     1296.972      776.082      345.297        1.652        0.121      174.986       15.447        0.008      332.254        0.799      871.831
01/25/2014  00:51:00     -150.613      -62.492       -5.380       32.979       28.324       19.460     1087.627      802.228      378.692        1.444        0.113      163.063       11.524        0.005      332.239        0.772      871.831
01/25/2014  00:52:00     -156.116      -75.220       -0.865       41.950       30.309       22.755     1759.796      918.656      517.796        1.661        0.160      173.293       19.812        0.013      332.149        0.623      871.835
01/25/2014  00:53:00     -137.173      -61.402      -10.304       45.987       33.667       24.231     2114.771     1133.490      587.125        1.326        0.192      150.288       22.781        0.023      332.080        0.510      871.843
01/25/2014  00:54:00     -123.266      -56.492        1.664       39.167       31.487       21.320     1534.031      991.415      454.546        1.068        0.149      135.595       17.302        0.016      332.102        0.547      871.845
01/25/2014  00:55:00      -99.866      -51.066       -1.668       43.668       33.680       19.148     1906.882     1134.336      366.638        0.800        0.170      112.165        5.364        0.002      332.122        0.579      871.847
01/25/2014  00:56:00     -148.599      -43.536       -5.839       15.688       20.879       15.291      246.120      435.951      233.812        1.246        0.046      154.845        6.669        0.002      332.077        0.505      871.842
01/25/2014  00:57:00     -155.883      -45.113      -14.539       17.401       19.254       15.207      302.804      370.700      231.241        1.373        0.045      162.280        7.941        0.002      331.997        0.373      871.839
01/25/2014  00:58:00     -156.620      -52.345       -9.158       28.039       23.387       17.114      786.173      546.963      292.896        1.449        0.081      165.136       14.146        0.007      331.925        0.255      871.828
01/25/2014  00:59:00     -164.243      -22.990       -0.306       49.068       31.452       27.181     2407.676      989.217      738.795        1.582        0.207      165.844       29.726        0.032      331.906        0.224      871.829
01/25/2014  01:00:00     -121.138      -26.359       -2.886       37.428       26.046       19.847     1400.839      678.390      393.890        0.892        0.124      123.972       16.910        0.019      331.871        0.166      871.831
01/25/2014  01:01:00     -111.246      -33.943       -1.407       34.890       19.577       18.534     1217.323      383.258      343.493        0.774        0.097      116.309       14.324        0.015      331.890        0.196      871.831
01/25/2014  01:02:00      -84.985      -31.621       -1.711       36.811       24.070       17.174     1355.040      579.364      294.963        0.523        0.111       90.677       18.582        0.042      332.034        0.433      871.834
01/25/2014  01:03:00     -112.250       -9.585       -0.195       43.370       22.770       21.013     1880.976      518.486      441.562        0.777        0.142      112.659       23.825        0.045      332.003        0.382      871.828
01/25/2014  01:04:00      -92.326      -22.689        0.641       30.629       25.820       19.649      938.154      666.654      386.090        0.551        0.100       95.073       13.983        0.022      332.121        0.577      871.818
01/25/2014  01:05:00     -119.894      -38.757       -5.440       37.672       21.728       17.234     1419.175      472.085      297.008        0.905        0.109      126.002       17.213        0.019      332.085        0.519      871.819
01/25/2014  01:06:00     -119.538      -15.577      -11.137       27.460       16.579       12.362      754.067      274.863      152.816        0.792        0.059      120.549        9.879        0.007      332.179        0.674      871.836
01/25/2014  01:07:00      -78.207      -14.716       -0.183       25.070       24.354       17.837      628.485      593.131      318.152        0.394        0.077       79.579       12.949        0.026      332.204        0.714      871.855
01/25/2014  01:08:00      -92.879      -24.128       -4.056       28.402       15.227       11.972      806.702      231.876      143.318        0.520        0.059       95.962        9.683        0.010      332.230        0.759      871.857
01/25/2014  01:09:00     -101.263      -31.010        0.574       27.537       15.007       16.763      758.310      225.216      280.998        0.624        0.063      105.904       15.947        0.023      332.205        0.716      871.857
01/25/2014  01:10:00      -67.331      -31.074        4.334       41.212       24.474       17.237     1698.389      598.975      297.099        0.406        0.130       74.156       17.270        0.054      332.094        0.533      871.855
01/25/2014  01:11:00      -90.150      -53.884       -0.882       37.261       27.220       23.233     1388.370      740.932      539.767        0.685        0.133      105.026       17.329        0.027      331.987        0.355      871.843
01/25/2014  01:12:00      -80.066      -57.538        8.314       33.983       32.977       20.022     1154.843     1087.455      400.890        0.622        0.132       98.596       17.994        0.033      331.999        0.377      871.840
01/25/2014  01:13:00      -69.437      -54.336       -0.443       34.863       25.701       19.982     1215.406      660.562      399.289        0.502        0.114       88.170       19.079        0.047      332.005        0.386      871.843
01/25/2014  01:14:00      -81.452      -51.816        1.639       25.449       24.528       17.361      647.672      601.609      301.405        0.544        0.078       96.537       14.709        0.023      332.029        0.425      871.850
01/25/2014  01:15:00      -54.024      -38.719        1.186       32.041       18.028       16.772     1026.629      324.993      281.316        0.303        0.082       66.466       17.461        0.069      332.047        0.456      871.854
01/25/2014  01:16:00      -83.236      -41.632       -1.943       25.354       14.565       10.054      642.818      212.140      101.088        0.481        0.048       93.067        9.858        0.011      331.928        0.261      871.851
01/25/2014  01:17:00      -93.596      -23.331      -10.107       10.091       13.062        7.759      101.828      170.609       60.209        0.487        0.017       96.460        3.441        0.001      331.940        0.279      871.840
01/25/2014  01:18:00      -80.439      -27.995       -5.571       17.768       15.545       11.166      315.695      241.638      124.689        0.398        0.034       85.171        8.674        0.010      331.975        0.336      871.829
01/25/2014  01:19:00      -78.786      -35.758      -12.143       13.316       13.943       10.262      177.321      194.408      105.316        0.406        0.024       86.521        5.651        0.004      331.920        0.247      871.829
01/25/2014  01:20:00      -94.555      -26.179       -5.806       14.130        9.948        8.761      199.664       98.962       76.758        0.502        0.019       98.113        7.399        0.006      331.896        0.205      871.837
01/25/2014  01:21:00      -96.933      -36.083       -7.537       10.373       13.798       10.122      107.604      190.374      102.458        0.558        0.020      103.431        3.066        0.001      331.965        0.320      871.841
01/25/2014  01:22:00      -97.905      -28.298      -10.033       15.411       13.256       10.429      237.495      175.728      108.758        0.550        0.026      101.913        5.646        0.003      332.028        0.423      871.840
01/25/2014  01:23:00      -69.896      -22.310       -2.656       16.954       16.932       10.414      287.455      286.681      108.457        0.304        0.034       73.370       10.240        0.019      331.966        0.320      871.838
01/25/2014  01:24:00      -33.122      -35.572       -4.310       22.828       20.570       13.226      521.115      423.131      174.928        0.175        0.056       48.605        5.304        0.012      332.020        0.412      871.828
01/25/2014  01:25:00      -45.024      -31.463        3.509       28.997       15.329       15.906      840.818      234.993      253.002        0.218        0.066       54.928       17.048        0.096      332.042        0.450      871.825
01/25/2014  01:26:00      -56.785      -26.481       -4.901       26.859       16.344       14.933      721.382      267.137      222.997        0.258        0.061       62.656       16.390        0.068      331.992        0.365      871.826
01/25/2014  01:27:00      -82.029      -28.743       -1.811       17.282       13.966        8.319      298.663      195.058       69.210        0.406        0.028       86.919        6.337        0.005      331.971        0.330      871.826
01/25/2014  01:28:00      -64.543      -15.525       -4.178       13.889       14.848        8.872      192.895      220.452       78.719        0.246        0.025       66.384        6.248        0.009      331.973        0.334      871.827
01/25/2014  01:29:00      -63.538      -20.069       -3.932       12.589       13.449        9.469      158.489      180.863       89.671        0.244        0.021       66.632        6.975        0.011      331.973        0.335      871.835
01/25/2014  01:30:00      -75.600      -29.223      -10.784       11.084       10.792        8.124      122.849      116.462       66.001        0.350        0.015       81.051        3.393        0.002      331.971        0.329      871.836
01/25/2014  01:31:00      -81.092      -41.981       -0.637       18.941       13.870        9.666      358.755      192.390       93.435        0.449        0.032       91.314        9.311        0.010      331.910        0.230      871.828
01/25/2014  01:32:00      -66.962      -44.306       -2.509       39.302       18.965       18.100     1544.686      359.664      327.623        0.434        0.112       80.293       18.429        0.053      331.854        0.137      871.824
01/25/2014  01:33:00      -73.227      -42.933        3.209       36.450       15.941       14.066     1328.580      254.116      197.865        0.450        0.089       84.885       12.830        0.023      331.912        0.233      871.827
01/25/2014  01:34:00      -68.021      -37.462       -5.953       24.220       14.450       14.528      586.585      208.798      211.077        0.354        0.050       77.655       13.618        0.031      331.903        0.218      871.831
01/25/2014  01:35:00      -66.957      -40.786       -1.392       27.336       17.271       13.532      747.233      298.270      183.126        0.369        0.061       78.401       13.050        0.028      331.856        0.140      871.834
01/25/2014  01:36:00      -80.181      -46.717       -3.088       30.280       18.132       15.237      916.855      328.784      232.152        0.505        0.074       92.798       13.842        0.022      331.880        0.179      871.840
01/25/2014  01:37:00      -98.165      -36.341       -7.087       14.290       12.528        9.906      204.216      156.955       98.123        0.573        0.023      104.676        6.499        0.004      331.909        0.227      871.841
01/25/2014  01:38:00      -70.462      -39.383       -7.711       19.795       13.821       10.685      391.835      191.030      114.175        0.364        0.035       80.721        7.373        0.008      331.805        0.057      871.848
01/25/2014  01:39:00      -74.899      -24.515       -7.588       10.922       10.945        7.077      119.292      119.796       50.090        0.328        0.014       78.809        4.010        0.003      331.776        0.010      871.855
01/25/2014  01:40:00      -64.532      -35.348       -4.846       12.104       12.866       10.198      146.514      165.532      103.992        0.293        0.021       73.579        6.063        0.007      331.784        0.022      871.855
01/25/2014  01:41:00      -33.187      -35.456        5.552       25.991       18.613       13.121      675.516      346.452      172.163        0.179        0.060       48.565       12.031        0.061      331.820        0.081      871.859
01/25/2014  01:42:00      -59.263      -64.108       -5.713       28.818       19.103       17.267      830.491      364.931      298.160        0.457        0.075       87.304       18.981        0.047      331.818        0.078      871.868
01/25/2014  01:43:00      -57.737      -64.349        2.252       40.804       36.378       20.396     1664.948     1323.351      416.017        0.544        0.170       86.454       26.297        0.093      331.926        0.256      871.878
01/25/2014  01:44:00      -71.598      -57.201       -7.527       45.581       39.249       21.069     2077.670     1540.488      443.911        0.626        0.203       91.642       15.058        0.027      331.898        0.210      871.883
01/25/2014  01:45:00      -96.703      -85.590       -8.814       31.950       32.130       15.848     1020.784     1032.306      251.172        0.953        0.115      129.140       14.666        0.013      331.913        0.234      871.884
01/25/2014  01:46:00      -44.478      -33.042        5.464       38.234       20.671       17.192     1461.842      427.291      295.577        0.264        0.109       55.408       23.136        0.174      331.830        0.099      871.886
01/25/2014  01:47:00      -79.259      -50.449       -4.457       26.615       15.955       10.777      708.350      254.561      116.147        0.496        0.054       93.952       11.812        0.016      331.880        0.179      871.888
01/25/2014  01:48:00      -76.409      -32.137       -3.069       19.792       15.141       12.021      391.706      229.249      144.510        0.382        0.038       82.893       10.312        0.015      331.903        0.219      871.895
01/25/2014  01:49:00      -64.615      -18.469       -2.783       19.945       21.980       13.134      397.811      483.104      172.497        0.279        0.053       67.203       12.475        0.034      331.859        0.144      871.900
01/25/2014  01:50:00      -77.094      -11.177       -4.315       21.898       14.513       12.686      479.502      210.629      160.938        0.347        0.043       77.900       11.860        0.023      331.818        0.079      871.907
01/25/2014  01:51:00      -54.134      -25.889        4.825       21.687       15.867       15.155      470.322      251.765      229.675        0.229        0.048       60.006       14.325        0.057      331.856        0.141      871.905
01/25/2014  01:52:00      -59.589      -12.797        5.061       29.535       16.230       14.960      872.313      263.415      223.812        0.255        0.068       60.948       14.858        0.059      331.817        0.077      871.910
01/25/2014  01:53:00     -116.677        1.546      -11.821        8.998        9.236        9.536       80.972       85.300       90.937        0.701        0.013      116.687        5.837        0.003      331.753       -0.028      871.905
01/25/2014  01:54:00     -106.114       -7.363       -8.322       20.220       16.386       13.672      408.840      268.493      186.914        0.612        0.043      106.370       11.696        0.012      331.736       -0.056      871.916
01/25/2014  01:55:00      -86.047       -6.131       -5.618       26.824       17.236       17.246      719.548      297.074      297.414        0.439        0.066       86.266       17.662        0.042      331.684       -0.142      871.928
01/25/2014  01:56:00     -101.902       -9.036       -7.527       25.924       19.548       18.727      672.056      382.118      350.718        0.596        0.070      102.302       15.959        0.024      331.627       -0.235      871.930
01/25/2014  01:57:00     -116.594       -6.394       -3.226       24.440       16.845       16.158      597.309      283.760      261.082        0.739        0.057      116.769       15.076        0.017      331.634       -0.223      871.932
01/25/2014  01:58:00     -111.676      -12.675       -7.975       25.087       13.826       12.729      629.380      191.154      162.034        0.684        0.049      112.393        9.980        0.008      331.660       -0.181      871.919
01/25/2014  01:59:00     -120.904      -11.124      -10.716       21.403       13.160       12.120      458.096      173.173      146.906        0.782        0.039      121.415        7.624        0.004      331.569       -0.331      871.907
01/25/2014  02:00:00     -110.268       -8.511       -6.936       23.619       19.461       14.164      557.869      378.731      200.623        0.671        0.057      110.596       11.659        0.011      331.521       -0.411      871.893
01/25/2014  02:01:00     -116.275      -13.328       -9.153       16.184       14.891       14.294      261.924      221.731      204.324        0.723        0.034      117.036       10.629        0.008      331.502       -0.443      871.879
01/25/2014  02:02:00     -119.853      -16.131      -11.649       21.987       12.650       13.284      483.411      160.032      176.452        0.779        0.041      120.934       13.071        0.012      331.553       -0.357      871.864
01/25/2014  02:03:00     -133.089      -20.682       -8.905       29.848       14.816       13.697      890.926      219.521      187.612        0.976        0.065      134.687       13.937        0.011      331.614       -0.257      871.859
01/25/2014  02:04:00     -121.839      -18.372       -7.826       24.534       18.544       14.804      601.908      343.867      219.150        0.820        0.058      123.217        9.772        0.006      331.573       -0.325      871.851
01/25/2014  02:05:00     -109.860      -20.888       -5.342       20.519       12.969       14.445      421.021      168.206      208.661        0.667        0.040      111.828       12.589        0.013      331.601       -0.279      871.844
01/25/2014  02:06:00      -99.755      -18.339       -4.241       20.868       16.674       11.837      435.462      278.006      140.111        0.558        0.043      101.427       11.083        0.012      331.557       -0.351      871.836
01/25/2014  02:07:00     -104.609       -8.576       -5.245       23.866       13.732       13.869      569.572      188.574      192.361        0.600        0.048      104.960       13.704        0.017      331.545       -0.372      871.829
01/25/2014  02:08:00     -107.090       -2.658       -8.774       27.877       15.156       14.450      777.138      229.713      208.799        0.638        0.061      107.123       15.599        0.021      331.591       -0.295      871.819
01/25/2014  02:09:00      -96.852       -5.493       -7.940       27.731       17.504       16.244      769.032      306.388      263.875        0.541        0.067       97.007       15.616        0.026      331.576       -0.321      871.814
01/25/2014  02:10:00      -99.861      -14.159      -12.879       14.493       13.963       11.683      210.044      194.968      136.481        0.544        0.027      100.860        6.780        0.005      331.565       -0.337      871.812
01/25/2014  02:11:00     -103.299      -24.128      -11.445       20.171       22.314       14.644      406.885      497.922      214.454        0.625        0.056      106.080       14.207        0.018      331.552       -0.360      871.813
01/25/2014  02:12:00      -71.746      -31.789       -6.515       13.862       14.646        8.018      192.155      214.519       64.287        0.334        0.024       78.473        6.520        0.007      331.560       -0.346      871.811
01/25/2014  02:13:00      -89.978      -20.532      -12.983       10.673       11.622        8.939      113.914      135.082       79.905        0.451        0.016       92.290        4.297        0.002      331.615       -0.256      871.807
01/25/2014  02:14:00      -65.875      -12.797       -7.626       10.633       10.633        6.695      113.053      113.052       44.820        0.242        0.014       67.106        3.398        0.003      331.614       -0.258      871.786
01/25/2014  02:15:00      -79.126       -7.306      -13.968       15.048        8.377        8.049      226.447       70.176       64.780        0.344        0.018       79.462        4.291        0.003      331.573       -0.324      871.771
01/25/2014  02:16:00      -93.998      -10.859      -13.559       15.082       10.164        8.453      227.462      103.300       71.446        0.477        0.020       94.623        7.133        0.006      331.502       -0.443      871.748
01/25/2014  02:17:00      -80.225      -18.593      -16.287       10.787       11.820       10.599      116.363      139.712      112.332        0.371        0.018       82.351        5.844        0.005      331.493       -0.458      871.740
01/25/2014  02:18:00      -88.718      -15.489      -13.498       10.083       10.682        8.120      101.666      114.115       65.932        0.429        0.014       90.060        3.942        0.002      331.422       -0.574      871.744
01/25/2014  02:19:00      -85.304      -15.473       -8.766       13.192       11.007        8.998      174.031      121.146       80.968        0.398        0.019       86.696        4.857        0.003      331.405       -0.600      871.738
01/25/2014  02:20:00      -72.855      -13.540       -3.369       12.799       10.342       10.064      163.804      106.949      101.288        0.294        0.019       74.103        7.667        0.011      331.458       -0.515      871.737
01/25/2014  02:21:00      -73.785      -21.735       -7.171       15.903       14.578       11.411      252.921      212.518      130.203        0.328        0.030       76.919        8.779        0.013      331.490       -0.461      871.741
01/25/2014  02:22:00      -99.762      -27.688       -9.585       12.294       11.678        9.912      151.150      136.370       98.256        0.560        0.019      103.533        7.836        0.006      331.544       -0.374      871.739
01/25/2014  02:23:00     -105.972      -26.693      -11.256       19.787       11.300       11.212      391.527      127.681      125.710        0.636        0.032      109.282       10.647        0.009      331.556       -0.352      871.735
01/25/2014  02:24:00     -111.149      -30.212       -9.196       13.990       11.248        8.652      195.712      126.528       74.855        0.687        0.020      115.182        7.001        0.004      331.511       -0.428      871.725
01/25/2014  02:25:00     -109.047      -20.838       -6.518       14.587       13.972       10.625      212.777      195.215      112.892        0.644        0.026      111.020        6.112        0.003      331.539       -0.381      871.737
01/25/2014  02:26:00      -89.263      -14.327       -8.511       18.847       16.857       12.462      355.224      284.169      155.307        0.452        0.040       90.405        9.589        0.011      331.514       -0.422      871.737
01/25/2014  02:27:00      -69.723      -16.378       -2.289       19.659       17.859       10.891      386.482      318.958      118.610        0.298        0.041       71.620       10.614        0.022      331.515       -0.421      871.736
01/25/2014  02:28:00      -61.337      -15.405       -8.663       11.148       11.536        9.553      124.284      133.077       91.262        0.221        0.017       63.241        5.184        0.007      331.573       -0.325      871.725
01/25/2014  02:29:00      -66.365      -14.370       -5.485       18.039       15.647       11.834      325.409      244.832      140.051        0.268        0.036       67.903        9.614        0.020      331.538       -0.383      871.718
01/25/2014  02:30:00      -83.816      -29.136       -9.792       11.655       13.060        7.309      135.839      170.575       53.418        0.416        0.018       88.736        4.037        0.002      331.538       -0.382      871.711
01/25/2014  02:31:00      -66.393      -27.342       -8.813       10.751        9.765        7.947      115.589       95.364       63.155        0.275        0.014       71.802        4.035        0.003      331.579       -0.316      871.708
01/25/2014  02:32:00      -85.340      -19.135      -10.181       11.519       11.117       10.272      132.691      123.581      105.523        0.406        0.018       87.459        4.393        0.003      331.536       -0.386      871.705
01/25/2014  02:33:00      -93.631      -31.342       -8.519       15.954       19.980       12.342      254.531      399.210      152.329        0.531        0.040       98.737        7.269        0.005      331.519       -0.415      871.713
01/25/2014  02:34:00      -79.654      -33.721       -5.177       30.011       19.829       14.271      900.679      393.184      203.656        0.450        0.075       86.498       14.479        0.028      331.531       -0.394      871.714
01/25/2014  02:35:00      -87.973      -26.666       -3.679       20.251       14.248       10.949      410.090      202.997      119.872        0.460        0.037       91.925       10.779        0.014      331.514       -0.424      871.712
01/25/2014  02:36:00      -84.053      -31.708       -0.520       18.486       16.287       11.928      341.747      265.279      142.288        0.441        0.037       89.835       10.997        0.015      331.526       -0.404      871.709
01/25/2014  02:37:00      -95.639      -33.657       -3.591       19.649       19.624        9.077      386.093      385.101       82.384        0.557        0.043      101.388        7.426        0.005      331.507       -0.434      871.705
01/25/2014  02:38:00      -73.587      -27.450        1.525       28.101       15.946       13.705      789.657      254.268      187.825        0.370        0.062       78.540       14.650        0.035      331.495       -0.453      871.698
01/25/2014  02:39:00      -68.012      -18.965       -3.193       23.676       20.996       12.510      560.572      440.847      156.512        0.308        0.058       70.607       11.076        0.025      331.458       -0.515      871.698
01/25/2014  02:40:00      -58.034      -15.870        3.619       23.562       19.266       14.819      555.166      371.181      219.591        0.239        0.057       60.165       13.317        0.049      331.425       -0.569      871.698
01/25/2014  02:41:00      -63.437      -26.565        2.692       26.920       16.026       12.407      724.674      256.838      153.939        0.294        0.057       68.774       13.036        0.036      331.428       -0.565      871.703
01/25/2014  02:42:00      -55.413      -16.269       -5.390       33.746       18.698       14.880     1138.776      349.619      221.421        0.254        0.085       57.752       14.566        0.064      331.437       -0.550      871.712
01/25/2014  02:43:00      -57.434      -25.211       -0.217       20.218       20.888       11.885      408.762      436.311      141.242        0.246        0.049       62.723        9.751        0.024      331.397       -0.614      871.721
01/25/2014  02:44:00      -73.786      -26.245       -0.439       19.839       14.471       12.704      393.605      209.407      161.384        0.345        0.038       78.314       11.607        0.022      331.397       -0.616      871.730
01/25/2014  02:45:00      -73.708      -31.823       -1.366       29.259       17.568       11.110      856.071      308.634      123.425        0.387        0.064       80.285       14.745        0.034      331.424       -0.569      871.729
01/25/2014  02:46:00      -68.754      -36.354        0.881       26.624       15.924       13.370      708.837      253.558      178.761        0.360        0.057       77.774       15.887        0.042      331.436       -0.552      871.735
01/25/2014  02:47:00      -57.164      -26.596       -0.012       25.506       18.704       16.753      650.534      349.839      280.658        0.263        0.064       63.048       16.629        0.070      331.423       -0.572      871.734
01/25/2014  02:48:00      -50.537      -28.191        1.680       26.043       21.954       15.275      678.253      481.973      233.330        0.237        0.070       57.868        5.234        0.008      331.448       -0.532      871.733
01/25/2014  02:49:00      -70.539      -22.193       -0.917       21.052       16.971       13.351      443.176      288.025      178.239        0.319        0.045       73.947       10.599        0.021      331.441       -0.542      871.725
01/25/2014  02:50:00      -62.183      -23.313       -1.179       17.221       20.138       11.728      296.554      405.529      137.547        0.263        0.042       66.410        9.822        0.022      331.395       -0.618      871.729
01/25/2014  02:51:00      -51.370      -16.872        0.011       18.044       15.591       11.585      325.575      243.090      134.219        0.181        0.035       54.070        9.807        0.033      331.394       -0.620      871.729
01/25/2014  02:52:00      -50.055      -17.164        5.004       26.093       20.321       13.261      680.870      412.954      175.856        0.205        0.063       52.916       13.139        0.062      331.356       -0.681      871.721
01/25/2014  02:53:00      -87.995      -10.145       -5.239       19.728       16.340       13.442      389.210      266.994      180.694        0.436        0.042       88.578       12.507        0.020      331.313       -0.751      871.720
01/25/2014  02:54:00      -87.823      -15.251       -5.523       19.512       18.657       14.563      380.708      348.087      212.091        0.446        0.047       89.138       12.446        0.019      331.301       -0.773      871.725
01/25/2014  02:55:00      -80.196      -22.297        2.473       33.093       20.766       16.633     1095.166      431.238      276.651        0.437        0.090       83.238       18.403        0.049      331.285       -0.797      871.729
01/25/2014  02:56:00      -83.759      -19.327        4.176       30.460       24.349       16.403      927.794      592.876      269.073        0.460        0.089       85.960       16.628        0.037      331.297       -0.778      871.732
01/25/2014  02:57:00      -63.825      -19.357        4.519       27.068       16.650       15.272      732.697      277.236      233.249        0.286        0.062       66.696       12.935        0.038      331.291       -0.787      871.737
01/25/2014  02:58:00      -40.340      -24.783        8.281       29.766       26.838       14.702      885.991      720.294      216.152        0.207        0.091       47.345       15.277        0.104      331.267       -0.828      871.739
01/25/2014  02:59:00      -60.450       -9.418        2.087       31.127       17.914       14.861      968.886      320.924      220.837        0.263        0.076       61.179       10.310        0.028      331.190       -0.955      871.739
01/25/2014  03:00:00      -81.048       -4.990        1.872       33.829       20.524       16.525     1144.404      421.246      273.063        0.422        0.092       81.201       16.306        0.040      331.219       -0.907      871.741
01/25/2014  03:01:00      -94.935      -25.011       -0.175       34.024       18.220       15.726     1157.614      331.982      247.315        0.569        0.087       98.174       17.698        0.032      331.252       -0.852      871.738
01/25/2014  03:02:00     -111.923      -21.970       -1.767       33.118       22.324       17.326     1096.824      498.358      300.207        0.745        0.095      114.059       18.301        0.026      331.254       -0.849      871.733
01/25/2014  03:03:00     -106.642      -35.732      -12.671       23.862       19.099       14.389      569.381      364.763      207.054        0.698        0.057      112.469       12.089        0.012      331.245       -0.862      871.731
01/25/2014  03:04:00      -88.943      -21.454       -6.875       33.664       20.798       14.589     1133.255      432.539      212.829        0.510        0.089       91.494       15.316        0.028      331.193       -0.949      871.732
01/25/2014  03:05:00      -81.478      -36.031       -5.092       25.549       17.508       13.594      652.754      306.541      184.787        0.455        0.057       89.090       11.523        0.017      331.228       -0.892      871.730
01/25/2014  03:06:00      -72.003      -28.184       -4.891       14.695       16.212        9.365      215.930      262.821       87.703        0.328        0.028       77.323        3.983        0.003      331.239       -0.874      871.718
01/25/2014  03:07:00      -74.165      -37.892       -2.358       15.918       13.701        9.199      253.380      187.709       84.629        0.373        0.026       83.284        5.880        0.005      331.338       -0.710      871.712
01/25/2014  03:08:00      -61.542      -23.001       -7.077       17.731       14.283       11.179      314.401      204.003      124.966        0.250        0.032       65.700        7.639        0.014      331.346       -0.698      871.704
01/25/2014  03:09:00      -76.999      -21.216       -7.893       12.305       10.557        9.395      151.407      111.446       88.272        0.340        0.018       79.868        5.720        0.005      331.396       -0.616      871.708
01/25/2014  03:10:00      -71.259      -19.835       -8.720        9.786       11.983        9.041       95.770      143.595       81.746        0.293        0.016       73.968        4.431        0.004      331.420       -0.577      871.705
01/25/2014  03:11:00      -73.882       -5.888       -8.920        7.546        8.374        7.334       56.945       70.131       53.791        0.288        0.009       74.116        4.046        0.003      331.418       -0.578      871.695
01/25/2014  03:12:00      -78.886      -11.744      -10.554        9.681        8.683        8.387       93.714       75.394       70.347        0.336        0.012       79.756        3.724        0.002      331.428       -0.564      871.679
01/25/2014  03:13:00      -75.479      -20.938       -9.133       14.957        9.354        8.776      223.706       87.505       77.011        0.330        0.019       78.329        5.262        0.005      331.455       -0.520      871.653
01/25/2014  03:14:00      -62.958      -16.809        5.515       28.346       16.466       11.326      803.499      271.124      128.287        0.274        0.060       65.164        9.628        0.022      331.297       -0.779      871.639
01/25/2014  03:15:00      -75.588      -29.452       -3.002       27.384       17.109       11.052      749.874      292.716      122.143        0.388        0.058       81.123       11.581        0.020      331.308       -0.760      871.633
01/25/2014  03:16:00      -66.892      -44.252       -0.434       32.282       21.107       18.006     1042.157      445.485      324.202        0.412        0.091       80.205       15.651        0.038      331.370       -0.658      871.632
01/25/2014  03:17:00      -74.602      -37.179       -4.257       15.253       13.540        8.550      232.652      183.324       73.108        0.373        0.024       83.353        5.889        0.005      331.236       -0.878      871.621
01/25/2014  03:18:00      -78.579      -14.336       -8.046       19.061       15.832        8.847      363.340      250.663       78.276        0.357        0.035       79.876        9.573        0.014      331.238       -0.875      871.625
01/25/2014  03:19:00      -61.582      -15.846        2.707       30.661       16.891       14.152      940.090      285.304      200.266        0.274        0.071       63.588       16.400        0.067      331.228       -0.891      871.628
01/25/2014  03:20:00      -80.967      -21.813        1.955       23.576       20.949       13.236      555.842      438.862      175.195        0.410        0.058       83.854        9.869        0.014      331.285       -0.798      871.624
01/25/2014  03:21:00      -74.512      -23.332       -4.061       23.456       22.159       15.777      550.172      491.043      248.919        0.370        0.065       78.079        8.133        0.011      331.330       -0.724      871.617
01/25/2014  03:22:00      -83.649      -21.971       -3.801       17.332       15.608       10.191      300.388      243.604      103.860        0.407        0.032       86.486        9.411        0.012      331.158       -1.008      871.616
01/25/2014  03:23:00      -64.992       -2.889       -2.688       29.001       23.303       17.090      841.077      543.029      292.065        0.296        0.084       65.056       19.099        0.086      331.113       -1.083      871.621
01/25/2014  03:24:00      -80.142       -5.810       -2.138       36.656       17.602       20.085     1343.633      309.846      403.408        0.426        0.103       80.352       22.985        0.082      331.195       -0.946      871.629
01/25/2014  03:25:00      -86.570      -24.202       -4.578       21.081       17.723       15.388      444.417      314.093      236.790        0.455        0.050       89.890       13.200        0.022      331.218       -0.908      871.636
01/25/2014  03:26:00     -103.316      -27.597       -5.827       11.613       11.523        9.746      134.855      132.780       94.991        0.592        0.018      106.939        6.342        0.004      331.175       -0.979      871.637
01/25/2014  03:27:00     -104.441      -22.830       -6.940       15.203       11.631        9.793      231.133      135.281       95.902        0.597        0.023      106.907        8.850        0.007      331.189       -0.956      871.636
01/25/2014  03:28:00     -107.875      -13.646       -8.659       13.095       11.399        8.963      171.488      129.935       80.336        0.614        0.019      108.735        4.143        0.001      331.161       -1.002      871.632
01/25/2014  03:29:00     -102.947      -19.360      -17.910       10.437       14.360       11.934      108.922      206.216      142.429        0.588        0.023      104.751        5.186        0.002      331.118       -1.073      871.629
01/25/2014  03:30:00     -105.637       -9.629       -9.212       15.938       14.058       13.679      254.017      197.638      187.108        0.599        0.032      106.075       10.487        0.010      331.078       -1.140      871.625
01/25/2014  03:31:00     -103.633      -22.592      -11.613       21.242       17.032       12.142      451.234      290.085      147.424        0.614        0.044      106.067        8.163        0.006      331.141       -1.036      871.620
01/25/2014  03:32:00      -93.261      -19.053       -2.264       30.483       15.197       15.407      929.243      230.941      237.380        0.523        0.070       95.187       17.070        0.032      331.027       -1.222      871.630
01/25/2014  03:33:00     -112.164      -19.530       -8.099       22.860       17.030       11.984      522.592      290.018      143.624        0.699        0.048      113.852        9.794        0.007      331.054       -1.177      871.626
01/25/2014  03:34:00     -105.334       -6.923       -9.091       18.876       15.033       12.890      356.289      225.995      166.157        0.599        0.037      105.562        9.536        0.008      331.049       -1.187      871.626
01/25/2014  03:35:00      -89.516       -9.541       -6.779       34.252       21.633       15.857     1173.209      467.979      251.453        0.502        0.095       90.023       16.896        0.035      331.108       -1.091      871.624
01/25/2014  03:36:00     -104.134      -12.584       -4.576       31.154       20.458       14.734      970.547      418.520      217.079        0.631        0.080      104.891       16.221        0.024      331.088       -1.123      871.621
01/25/2014  03:37:00      -62.418      -41.941      -11.202       27.985       21.401       12.428      783.168      457.987      154.460        0.359        0.070       75.200       10.116        0.018      331.108       -1.089      871.615
01/25/2014  03:38:00      -45.602      -26.217       -7.022       21.560       18.511       13.744      464.820      342.664      188.902        0.191        0.050       52.601       11.180        0.045      331.017       -1.239      871.617
01/25/2014  03:39:00      -74.516      -18.768      -14.459       13.244       11.635        8.452      175.400      135.374       71.440        0.325        0.019       76.843        6.703        0.008      330.948       -1.353      871.621
01/25/2014  03:40:00      -74.297      -17.172      -13.243       19.322       15.526       11.974      373.332      241.065      143.388        0.337        0.038       76.256        8.872        0.014      331.022       -1.231      871.623
01/25/2014  03:41:00      -47.412      -28.135       -4.224       33.389       19.623       14.549     1114.819      385.073      211.661        0.238        0.086       55.131       15.745        0.082      331.020       -1.234      871.622
01/25/2014  03:42:00      -89.453      -21.809      -14.264       16.268       17.076       12.623      264.650      291.599      159.341        0.470        0.036       92.074        5.500        0.004      330.910       -1.415      871.613
01/25/2014  03:43:00      -86.340      -21.820      -12.389       23.191       16.611       11.471      537.839      275.910      131.584        0.451        0.047       89.055       11.161        0.016      330.885       -1.454      871.604
01/25/2014  03:44:00      -81.421      -21.919      -10.911       15.476       14.840       11.196      239.516      220.218      125.356        0.391        0.029       84.319        2.712        0.001      330.960       -1.331      871.592
01/25/2014  03:45:00      -73.425      -40.276      -21.298       13.066       14.791        8.330      170.715      218.768       69.384        0.396        0.023       83.746        6.254        0.006      330.944       -1.357      871.592
01/25/2014  03:46:00      -63.815      -37.186      -12.660       18.632       13.506        9.741      347.139      182.415       94.882        0.312        0.031       73.859        8.588        0.014      330.943       -1.360      871.575
01/25/2014  03:47:00      -71.945       -6.524       -9.313       17.308       13.728       13.024      299.580      188.448      169.632        0.298        0.033       72.241       10.202        0.020      330.968       -1.319      871.557
01/25/2014  03:48:00      -90.855        1.520      -14.894       15.814       11.709       10.160      250.086      137.106      103.230        0.448        0.025       90.868        5.867        0.004      330.925       -1.390      871.547
01/25/2014  03:49:00      -79.326      -12.759      -16.912       15.203       11.872        7.149      231.142      140.939       51.110        0.358        0.021       80.345        4.084        0.003      331.035       -1.210      871.529
01/25/2014  03:50:00      -72.842      -26.469      -10.854       12.155       11.193       10.024      147.734      125.289      100.482        0.325        0.019       77.502        2.890        0.001      330.902       -1.427      871.525
01/25/2014  03:51:00      -77.812       -4.389      -13.584        9.954       10.504        9.011       99.090      110.329       81.196        0.327        0.015       77.936        7.488        0.009      330.912       -1.411      871.513
01/25/2014  03:52:00      -74.632       -4.151      -11.666        9.848       11.417       10.886       96.980      130.346      118.506        0.303        0.017       74.747        5.954        0.006      330.908       -1.416      871.505
01/25/2014  03:53:00      -62.854       -8.725       -7.559       12.748       10.101        8.206      162.518      102.023       67.336        0.221        0.017       63.456        4.864        0.006      330.908       -1.416      871.505
01/25/2014  03:54:00      -37.190      -16.019       -7.321       10.337       10.037        7.141      106.858      100.746       50.993        0.098        0.013       40.493        7.005        0.030      330.956       -1.338      871.514
01/25/2014  03:55:00      -46.448      -11.442      -11.604       14.767        8.778        5.986      218.075       77.053       35.833        0.138        0.017       47.836        3.017        0.004      330.949       -1.351      871.528
01/25/2014  03:56:00      -45.037       -7.168       -6.291       12.832        9.567        5.827      164.670       91.536       33.959        0.120        0.015       45.604        5.798        0.016      330.975       -1.309      871.539
01/25/2014  03:57:00      -42.010      -19.783       -6.288       19.782       12.351        9.516      391.322      152.556       90.552        0.141        0.032       46.435        6.283        0.018      331.021       -1.233      871.537
01/25/2014  03:58:00      -68.133      -16.156      -11.644       14.849        8.086        7.890      220.482       65.389       62.251        0.269        0.017       70.022        4.575        0.004      330.958       -1.337      871.533
01/25/2014  03:59:00      -87.207      -17.958      -14.776       13.803       11.786       11.455      190.509      138.913      131.217        0.430        0.023       89.037        9.334        0.011      330.827       -1.550      871.536
01/25/2014  04:00:00      -99.197      -17.003      -14.939       11.825        9.720        9.731      139.822       94.488       94.700        0.534        0.016      100.644        6.540        0.004      330.876       -1.469      871.533
01/25/2014  04:01:00      -82.549      -15.116      -12.508       10.635       14.925       10.785      113.113      222.750      116.312        0.383        0.023       83.922        4.385        0.003      330.856       -1.502      871.533
01/25/2014  04:02:00      -89.601      -27.139      -15.865       14.255       13.783       10.918      203.201      189.962      119.196        0.476        0.026       93.621        2.334        0.001      330.865       -1.489      871.531
01/25/2014  04:03:00      -75.794      -18.173      -10.305       21.923       20.928       16.728      480.616      438.000      279.835        0.369        0.060       77.942       15.490        0.039      330.780       -1.628      871.529
01/25/2014  04:04:00      -80.951       -6.514       -8.764       16.974       13.197       12.092      288.100      174.167      146.218        0.364        0.030       81.213        9.999        0.015      330.833       -1.540      871.514
01/25/2014  04:05:00     -123.233      -37.516      -15.167       22.573       17.025        9.228      509.544      289.846       85.158        0.885        0.044      128.817        7.588        0.003      330.870       -1.479      871.512
01/25/2014  04:06:00     -102.803      -21.979      -10.140       26.964       16.683       13.830      727.039      278.326      191.267        0.618        0.060      105.127       12.747        0.015      330.815       -1.570      871.514
01/25/2014  04:07:00      -97.866      -16.460       -7.823       29.614       24.229       14.659      876.962      587.048      214.879        0.579        0.084       99.241       14.475        0.021      330.809       -1.579      871.522
01/25/2014  04:08:00     -124.916      -27.573       -9.167       27.809       19.149       14.042      773.362      366.678      197.175        0.889        0.067      127.923       12.979        0.010      330.831       -1.544      871.524
01/25/2014  04:09:00     -116.518      -21.785       -8.419       25.890       16.597       16.074      670.268      275.465      258.387        0.766        0.060      118.537       15.391        0.017      330.792       -1.609      871.526
01/25/2014  04:10:00     -107.392      -22.796        0.624       26.131       17.355       16.606      682.830      301.183      275.751        0.666        0.063      109.785       15.393        0.020      330.787       -1.617      871.525
01/25/2014  04:11:00      -86.742      -31.966        2.150       27.716       25.062       20.756      768.201      628.118      430.817        0.519        0.091       92.445       18.391        0.040      330.770       -1.644      871.527
01/25/2014  04:12:00     -115.396      -37.550       -1.767       26.524       20.653       14.919      703.520      426.555      222.576        0.804        0.068      121.352       15.002        0.015      330.747       -1.682      871.519
01/25/2014  04:13:00     -120.251      -30.967      -10.418       20.207       15.654       15.163      408.315      245.054      229.925        0.821        0.044      124.175       12.552        0.010      330.765       -1.652      871.523
01/25/2014  04:14:00     -120.449      -31.355      -12.935       17.814       19.545       13.840      317.321      382.016      191.558        0.827        0.045      124.464        9.433        0.006      330.695       -1.768      871.525
01/25/2014  04:15:00     -130.147      -27.805       -8.833       19.974       17.384       14.301      398.969      302.202      204.508        0.935        0.045      133.084       10.787        0.007      330.663       -1.820      871.519
01/25/2014  04:16:00     -135.252      -21.141       -8.123       26.225       20.057       18.972      687.764      402.289      359.955        1.013        0.073      136.894       17.469        0.016      330.682       -1.788      871.509
01/25/2014  04:17:00     -133.103      -24.422      -14.765       20.853       14.825       13.082      434.834      219.786      171.126        0.968        0.041      135.325        7.610        0.003      330.683       -1.786      871.495
01/25/2014  04:18:00     -119.777      -21.722      -16.612       19.383       16.914       14.028      375.682      286.081      196.782        0.798        0.043      121.731        5.775        0.002      330.682       -1.788      871.492
01/25/2014  04:19:00     -115.703      -21.104      -13.772       24.716       26.888       16.982      610.870      722.991      288.379        0.782        0.081      117.612       13.182        0.013      330.626       -1.880      871.484
01/25/2014  04:20:00     -102.996      -31.623      -14.243       26.792       26.658       14.317      717.835      710.659      204.971        0.672        0.082      107.741       12.772        0.014      330.664       -1.818      871.479
01/25/2014  04:21:00      -68.894      -29.660        5.824       37.778       33.542       19.183     1427.149     1125.069      367.993        0.429        0.146       75.007       20.498        0.075      330.658       -1.828      871.473
01/25/2014  04:22:00      -85.469      -19.499       -1.667       34.142       27.636       16.074     1165.680      763.770      258.380        0.494        0.109       87.665       13.355        0.023      330.624       -1.884      871.461
01/25/2014  04:23:00      -85.592      -27.995      -16.179       19.022       24.256       19.363      361.850      588.355      374.932        0.485        0.066       90.053       14.292        0.025      330.603       -1.919      871.457
01/25/2014  04:24:00      -86.379      -23.345      -13.295       26.218       18.597       15.071      687.395      345.852      227.129        0.472        0.063       89.478       12.589        0.020      330.603       -1.919      871.450
01/25/2014  04:25:00      -81.241      -19.048       -7.210       33.067       20.201       15.250     1093.444      408.090      232.547        0.437        0.087       83.445       16.207        0.038      330.634       -1.867      871.443
01/25/2014  04:26:00     -110.761      -11.980      -14.878       15.709       15.616       14.078      246.771      243.857      198.191        0.666        0.034      111.407        6.824        0.004      330.651       -1.840      871.432
01/25/2014  04:27:00      -65.413      -39.991      -10.892       28.466       19.687       15.361      810.310      387.588      235.954        0.372        0.072       76.669       14.217        0.034      330.684       -1.785      871.436
01/25/2014  04:28:00      -91.207      -25.355       -8.263       31.451       21.735       14.204      989.148      472.394      201.760        0.535        0.083       94.666       13.156        0.019      330.696       -1.766      871.438
01/25/2014  04:29:00     -108.490      -30.962      -15.972       20.514       21.082       13.447      420.822      444.466      180.824        0.701        0.052      112.822        8.405        0.006      330.621       -1.887      871.444
01/25/2014  04:30:00     -104.486      -23.342      -13.925       15.811       12.930       10.667      249.977      167.196      113.789        0.609        0.027      107.062        7.419        0.005      330.704       -1.752      871.444
01/25/2014  04:31:00      -89.957      -35.130      -11.058       22.755       20.845       12.077      517.798      434.513      145.854        0.527        0.055       96.573        9.595        0.010      330.798       -1.598      871.428
01/25/2014  04:32:00      -86.789      -34.495      -10.134       10.592       14.552        7.307      112.181      211.756       53.392        0.460        0.019       93.393        3.017        0.001      330.883       -1.457      871.409
01/25/2014  04:33:00      -92.554      -16.142      -12.107       10.094        9.407       10.914      101.896       88.490      119.117        0.464        0.015       93.951        7.482        0.006      330.864       -1.491      871.393
01/25/2014  04:34:00     -101.715      -12.427      -12.783        9.682        9.276        8.314       93.734       86.051       69.117        0.546        0.012      102.471        4.068        0.002      330.993       -1.277      871.386
01/25/2014  04:35:00      -84.637       -1.785       -7.508       18.204       12.976        9.122      331.395      168.379       83.219        0.390        0.029       84.655        4.732        0.003      330.959       -1.333      871.371
01/25/2014  04:36:00      -72.949      -20.550       -5.805       20.634       12.178        9.546      425.749      148.303       91.128        0.322        0.033       75.788        7.615        0.010      330.949       -1.351      871.357
01/25/2014  04:37:00      -86.311      -14.808      -11.788       12.124       13.024        8.509      146.984      169.634       72.403        0.410        0.019       87.572        6.309        0.005      330.927       -1.385      871.346
01/25/2014  04:38:00      -86.505       -3.037       -6.356       11.191        8.032        8.408      125.232       64.505       70.697        0.390        0.013       86.558        5.571        0.004      330.871       -1.477      871.342
01/25/2014  04:39:00      -87.499      -14.008      -11.258        9.899        8.571        7.178       98.000       73.458       51.517        0.410        0.011       88.613        5.212        0.003      330.901       -1.429      871.342
01/25/2014  04:40:00      -65.186      -14.455       -7.938       20.403       12.451       10.724      416.291      155.017      115.007        0.260        0.034       66.770        8.344        0.016      330.865       -1.489      871.350
01/25/2014  04:41:00      -48.911       -0.993       -6.781       15.028       12.552       10.323      225.831      157.545      106.563        0.146        0.024       48.921        4.961        0.010      330.925       -1.390      871.346
01/25/2014  04:42:00      -47.856        3.265       -5.197        6.991        8.928        7.557       48.872       79.709       57.108        0.126        0.009       47.968        3.033        0.004      330.982       -1.296      871.336
01/25/2014  04:43:00      -41.366      -15.389      -12.118        9.975        9.072        8.472       99.498       82.296       71.776        0.117        0.013       44.136        3.319        0.006      330.939       -1.364      871.335
01/25/2014  04:44:00      -48.649      -16.960      -12.824       10.713        7.983        7.579      114.769       63.725       57.442        0.153        0.012       51.520        3.710        0.005      330.881       -1.463      871.334
01/25/2014  04:45:00      -62.822      -12.408       -8.693       12.005       13.754        8.124      144.123      189.170       66.007        0.229        0.020       64.036        6.700        0.011      330.760       -1.660      871.337
01/25/2014  04:46:00      -42.772       -0.812        0.587       15.956       12.026       10.431      254.600      144.630      108.810        0.117        0.025       42.780        4.821        0.013      330.801       -1.594      871.345
01/25/2014  04:47:00      -48.162        0.496      -10.301        8.656       12.465        6.715       74.931      155.383       45.094        0.135        0.014       48.164        6.156        0.016      330.898       -1.435      871.354
01/25/2014  04:48:00      -46.229        0.031       -4.282       12.948       11.412       10.820      167.652      130.238      117.063        0.129        0.021       46.229        8.869        0.037      330.946       -1.356      871.356
01/25/2014  04:49:00      -50.291       -2.989       -2.389       11.171        6.883        8.471      124.782       47.373       71.752        0.139        0.012       50.380        4.893        0.009      330.887       -1.453      871.358
01/25/2014  04:50:00      -50.867       -8.104       -8.117       10.382        8.327        6.845      107.794       69.335       46.854        0.147        0.011       51.508        2.505        0.002      330.807       -1.585      871.352
01/25/2014  04:51:00      -57.465      -15.840      -11.380       10.408        9.806        8.075      108.332       96.148       65.199        0.198        0.013       59.608        5.265        0.008      330.738       -1.697      871.345
01/25/2014  04:52:00      -57.161      -11.389       -8.960        9.829       13.454        9.523       96.606      181.023       90.689        0.192        0.018       58.284        5.855        0.010      330.697       -1.763      871.342
01/25/2014  04:53:00      -58.072       -8.357      -12.048        7.746        7.676        8.485       59.994       58.925       71.994        0.189        0.010       58.670        3.470        0.003      330.709       -1.745      871.338
01/25/2014  04:54:00      -47.988      -11.878       -4.923       12.028       10.448        7.963      144.664      109.151       63.415        0.139        0.016       49.437        6.499        0.017      330.711       -1.740      871.336
01/25/2014  04:55:00      -44.164       -7.858       -7.911       10.992       11.809       10.157      120.814      139.451      103.156        0.122        0.018       44.858        5.484        0.015      330.776       -1.636      871.338
01/25/2014  04:56:00      -39.243       -4.943       -5.348        7.727        9.073        8.459       59.706       82.322       71.553        0.090        0.011       39.553        5.256        0.018      330.768       -1.649      871.332
01/25/2014  04:57:00      -54.075       -7.796       -4.950        8.082        9.519        7.535       65.312       90.616       56.783        0.161        0.011       54.634        4.153        0.006      330.736       -1.700      871.327
01/25/2014  04:58:00      -52.236       -4.923       -5.066        8.577       10.750        8.456       73.560      115.565       71.506        0.152        0.013       52.467        5.947        0.013      330.752       -1.675      871.319
01/25/2014  04:59:00      -48.475       -5.851       -8.117        6.602        9.719        7.217       43.591       94.461       52.087        0.132        0.010       48.827        6.309        0.017      330.802       -1.591      871.313
01/25/2014  05:00:00      -44.854      -13.492      -10.894       10.794        9.707        8.162      116.510       94.233       66.621        0.129        0.014       46.839        4.010        0.007      330.722       -1.724      871.305
01/25/2014  05:01:00      -36.633      -16.846      -11.034       13.202        9.223        9.199      174.293       85.067       84.631        0.105        0.017       40.321        4.527        0.013      330.699       -1.762      871.301
01/25/2014  05:02:00      -54.796      -14.398       -7.725       10.258        7.010        9.501      105.222       49.142       90.272        0.176        0.012       56.656        6.675        0.014      330.663       -1.819      871.303
01/25/2014  05:03:00      -52.474      -10.264      -10.380        8.949        7.216        6.258       80.085       52.069       39.162        0.157        0.009       53.469        4.389        0.007      330.583       -1.951      871.297
01/25/2014  05:04:00      -48.809      -14.862       -7.955       11.011       15.480        7.082      121.234      239.621       50.160        0.154        0.021       51.021        3.183        0.004      330.574       -1.965      871.297
01/25/2014  05:05:00      -61.508       -8.393      -11.540       12.175        9.672        7.204      148.221       93.556       51.895        0.214        0.015       62.078        2.059        0.001      330.532       -2.035      871.298
01/25/2014  05:06:00      -31.589      -11.508       -1.475       12.032       10.959        9.672      144.765      120.090       93.556        0.075        0.018       33.620        4.611        0.019      330.588       -1.942      871.291
01/25/2014  05:07:00      -39.366      -21.175       -9.218        9.500       10.482        7.116       90.244      109.879       50.642        0.117        0.013       44.700        4.723        0.011      330.568       -1.975      871.291
01/25/2014  05:08:00       -0.391       -9.407        7.553        9.418       10.122        8.232       88.693      102.445       67.764        0.020        0.013        9.415        7.226        0.589      330.676       -1.798      871.283
01/25/2014  05:09:00       -2.385      -13.716        8.846       13.109       12.090       10.743      171.851      146.165      115.415        0.035        0.022       13.922       10.838        0.606      330.772       -1.642      871.281
01/25/2014  05:10:00       -4.454        1.902      -11.941       10.827        8.108        5.792      117.229       65.745       33.549        0.019        0.011        4.843        5.397        1.242      330.796       -1.602      871.273
01/25/2014  05:11:00       -6.663        1.313       -7.619        9.156       10.286        8.176       83.833      105.792       66.845        0.018        0.013        6.791        5.619        0.685      330.877       -1.468      871.275
01/25/2014  05:12:00       -4.923       -1.429       -6.589        6.801        8.687        3.737       46.250       75.472       13.969        0.010        0.007        5.126        2.300        0.201      330.848       -1.517      871.281
01/25/2014  05:13:00      -12.462       -2.878        5.273       10.997        6.877        6.356      120.930       47.295       40.397        0.020        0.010       12.790        5.693        0.198      330.950       -1.347      871.294
01/25/2014  05:14:00       -0.092        5.581        4.546        9.716        7.433        7.096       94.394       55.244       50.357        0.013        0.010        5.582        3.620        0.421      331.023       -1.229      871.293
01/25/2014  05:15:00       17.361       31.644        1.096       18.433       21.074       14.252      339.776      444.106      203.111        0.115        0.049       36.094       10.805        0.090      331.194       -0.948      871.293
01/25/2014  05:16:00       10.130       29.734        0.281       25.111       22.255       15.667      630.561      495.290      245.448        0.118        0.069       31.412       12.277        0.153      331.258       -0.842      871.297
01/25/2014  05:17:00      -17.579        2.129        3.437       11.980       11.249        6.605      143.517      126.531       43.621        0.032        0.016       17.708        5.802        0.107      331.045       -1.194      871.297
01/25/2014  05:18:00      -11.531       -4.387        0.544       12.688        8.306        8.983      160.979       68.987       80.699        0.023        0.016       12.337        7.427        0.362      331.052       -1.180      871.301
01/25/2014  05:19:00      -27.304      -13.632       -4.622       10.820        8.574        4.648      117.066       73.512       21.601        0.058        0.011       30.518        2.683        0.008      330.987       -1.289      871.304
01/25/2014  05:20:00      -50.293      -23.435       -9.892        8.094       10.137        5.718       65.521      102.750       32.700        0.169        0.010       55.485        4.938        0.008      330.767       -1.651      871.300
01/25/2014  05:21:00      -54.771      -23.156      -15.071        8.084        9.325        7.064       65.347       86.951       49.905        0.198        0.010       59.465        4.218        0.005      330.934       -1.374      871.290
01/25/2014  05:22:00      -36.833      -25.343       -8.613       20.571       13.874       12.424      423.161      192.486      154.346        0.142        0.038       44.710       12.095        0.073      330.911       -1.413      871.274
01/25/2014  05:23:00      -15.977      -15.230        7.460       13.095       13.771       12.287      171.491      189.650      150.981        0.053        0.026       22.073        5.301        0.058      330.815       -1.571      871.264
01/25/2014  05:24:00      -19.975      -16.754        2.398       26.573       14.705       15.427      706.098      216.248      237.985        0.092        0.058       26.071       12.541        0.231      330.664       -1.820      871.250
01/25/2014  05:25:00      -59.639      -21.169       -9.905       13.326       15.686       14.049      177.584      246.042      197.367        0.236        0.031       63.284        7.182        0.013      330.608       -1.910      871.253
01/25/2014  05:26:00      -66.675      -24.087       -9.645       11.571       12.904        7.970      133.883      166.501       63.527        0.274        0.018       70.892        5.082        0.005      330.609       -1.907      871.246
01/25/2014  05:27:00      -60.754      -25.724      -13.965       13.905       11.976       12.091      193.339      143.419      146.184        0.252        0.024       65.975        7.112        0.012      330.691       -1.773      871.247
01/25/2014  05:28:00      -67.135       -5.080      -16.075       12.257        8.710        8.651      150.228       75.870       74.831        0.255        0.015       67.326        3.306        0.002      330.705       -1.752      871.254
01/25/2014  05:29:00      -67.233       -9.641      -10.687       13.405       10.119        8.882      179.700      102.393       78.888        0.254        0.018       67.920        6.723        0.010      330.673       -1.804      871.257
01/25/2014  05:30:00      -60.334      -19.575      -12.134       11.295        9.029        9.491      127.571       81.529       90.073        0.223        0.015       63.430        6.795        0.011      330.717       -1.731      871.263
01/25/2014  05:31:00      -69.988      -29.375      -14.432       13.689       13.012        9.894      187.389      169.324       97.885        0.321        0.023       75.903        6.730        0.008      330.737       -1.698      871.268
01/25/2014  05:32:00      -69.619      -10.858      -14.235        7.475       11.010        7.586       55.881      121.220       57.546        0.270        0.012       70.461        4.161        0.003      330.748       -1.681      871.273
01/25/2014  05:33:00      -65.021      -19.232      -11.284       12.502       13.979        9.019      156.311      195.423       81.344        0.258        0.022       67.805        5.154        0.006      330.679       -1.794      871.275
01/25/2014  05:34:00      -68.105      -15.840      -10.549       16.173       14.768       12.338      261.566      218.084      152.228        0.282        0.032       69.923        8.984        0.017      330.659       -1.827      871.274
01/25/2014  05:35:00      -67.539      -10.143      -11.538       15.413       14.940       10.181      237.559      223.198      103.652        0.268        0.028       68.297        7.308        0.011      330.724       -1.719      871.276
01/25/2014  05:36:00      -39.122      -16.852       -7.676       14.913       10.538        8.452      222.399      111.051       71.442        0.114        0.020       42.597        4.406        0.011      330.679       -1.794      871.276
01/25/2014  05:37:00      -43.216      -26.772       -8.071       22.296       17.176       12.346      497.134      295.006      152.433        0.180        0.047       50.837        8.511        0.028      330.703       -1.753      871.283
01/25/2014  05:38:00      -27.418      -14.451        1.308       30.856        9.964       13.225      952.078       99.280      174.888        0.109        0.061       30.993       16.530        0.284      330.669       -1.811      871.296
01/25/2014  05:39:00      -45.912      -24.694      -10.865       12.355        8.613        6.412      152.634       74.176       41.114        0.155        0.013       52.132        2.715        0.003      330.689       -1.779      871.300
01/25/2014  05:40:00      -31.284      -18.738       -4.923        9.042        9.943       12.732       81.752       98.856      162.097        0.085        0.017       36.466        9.162        0.063      330.684       -1.785      871.293
01/25/2014  05:41:00      -71.944      -19.871      -10.085       14.634       11.266       10.187      214.153      126.912      103.775        0.306        0.022       74.638        7.321        0.010      330.706       -1.751      871.287
01/25/2014  05:42:00      -91.987      -27.723      -12.288        8.966        8.689        8.212       80.398       75.498       67.434        0.480        0.011       96.074        3.335        0.001      330.731       -1.709      871.286
01/25/2014  05:43:00      -91.392      -23.234       -7.274       18.675       15.847       13.440      348.744      251.133      180.639        0.486        0.039       94.299       10.307        0.012      330.686       -1.781      871.276
01/25/2014  05:44:00      -68.976      -11.054       -2.761       23.831       18.345       12.036      567.912      336.553      144.875        0.297        0.052       69.856       12.086        0.030      330.725       -1.719      871.276
01/25/2014  05:45:00      -56.830      -16.321        1.189       26.535       15.839       11.404      704.094      250.875      130.060        0.229        0.054       59.127       13.647        0.053      330.745       -1.686      871.275
01/25/2014  05:46:00      -46.179       -3.736        0.727       24.263       13.165       10.178      588.708      173.311      103.592        0.151        0.043       46.330        8.627        0.035      330.729       -1.713      871.272
01/25/2014  05:47:00      -46.766      -10.114        0.784       21.247       16.325       12.122      451.426      266.512      146.938        0.158        0.043       47.848       12.194        0.065      330.753       -1.672      871.277
01/25/2014  05:48:00      -49.356      -24.137       -1.984       23.311       15.154       11.424      543.421      229.631      130.512        0.196        0.045       54.942       12.545        0.052      330.763       -1.657      871.285
01/25/2014  05:49:00      -89.938      -20.259       -5.905       13.119       11.639        7.856      172.112      135.458       61.717        0.445        0.018       92.192        5.699        0.004      330.740       -1.693      871.295
01/25/2014  05:50:00      -92.075       -7.123       -7.088       20.424        9.818       11.068      417.122       96.387      122.505        0.461        0.032       92.351        9.762        0.011      330.661       -1.823      871.299
01/25/2014  05:51:00      -92.846      -15.446       -8.328       23.184       14.364       11.337      537.477      206.324      128.529        0.490        0.044       94.122       11.823        0.016      330.564       -1.982      871.293
01/25/2014  05:52:00      -57.345       -4.868        1.677       29.716       18.437       15.480      883.019      339.921      239.615        0.239        0.073       57.552       15.325        0.071      330.544       -2.015      871.293
01/25/2014  05:53:00      -74.524       -7.491       -1.217       25.806       18.099       15.939      665.928      327.583      254.048        0.343        0.062       74.899       12.650        0.029      330.491       -2.102      871.294
01/25/2014  05:54:00      -46.783       -2.863        1.478       37.733       14.939       16.815     1423.804      223.185      282.745        0.206        0.096       46.870       17.680        0.142      330.528       -2.041      871.298
01/25/2014  05:55:00      -65.655      -13.092       -5.573       19.148       17.669       14.130      366.629      312.202      199.650        0.270        0.044       66.948        9.360        0.020      330.607       -1.912      871.303
01/25/2014  05:56:00      -65.525      -18.420       -7.940       19.269       15.853        9.544      371.310      251.332       91.087        0.270        0.036       68.065        5.084        0.006      330.642       -1.853      871.305
01/25/2014  05:57:00      -60.223      -22.684       -2.639       11.379       19.839        9.678      129.478      393.568       93.655        0.238        0.031       64.353       11.346        0.031      330.691       -1.772      871.306
01/25/2014  05:58:00      -39.192      -15.343       -3.860        9.101        7.648        6.855       82.836       58.488       46.985        0.099        0.009       42.089        5.076        0.015      330.661       -1.821      871.307
01/25/2014  05:59:00      -26.855       -6.825      -11.537       10.798        6.680        5.907      116.595       44.626       34.890        0.055        0.010       27.709        5.584        0.041      330.799       -1.597      871.312
01/25/2014  06:00:00      -22.273       -6.861       -4.693       11.737        9.749        8.429      137.765       95.040       71.052        0.043        0.015       23.305        6.021        0.067      330.737       -1.699      871.317
01/25/2014  06:01:00      -19.470      -16.375       -7.601       14.201       17.438        9.482      201.669      304.093       89.901        0.065        0.030       25.441        9.690        0.145      330.793       -1.607      871.333
01/25/2014  06:02:00       -5.794      -37.167        6.650        8.200       15.210       12.337       67.232      231.329      152.197        0.095        0.023       37.616        5.429        0.021      330.849       -1.516      871.337
01/25/2014  06:03:00      -16.055      -20.643        5.888       12.683       13.157        9.634      160.847      173.107       92.809        0.057        0.021       26.152        7.890        0.091      330.903       -1.425      871.333
01/25/2014  06:04:00      -38.808      -15.410       -5.264        9.201        6.875        5.653       84.662       47.260       31.957        0.097        0.008       41.756        3.416        0.007      330.675       -1.800      871.331
01/25/2014  06:05:00      -38.290       -8.282       -3.885        7.250        7.858        6.189       52.570       61.742       38.309        0.085        0.008       39.176        3.957        0.010      330.568       -1.975      871.336
01/25/2014  06:06:00      -41.974      -16.278       -8.452        5.966        5.265        5.828       35.594       27.717       33.961        0.110        0.005       45.019        2.980        0.004      330.524       -2.048      871.346
01/25/2014  06:07:00      -42.803      -15.860      -10.722        8.754        7.636        6.800       76.640       58.301       46.236        0.119        0.009       45.647        1.746        0.001      330.566       -1.979      871.360
01/25/2014  06:08:00      -37.788      -20.447       -7.789        7.042        9.374        6.992       49.584       87.879       48.889        0.105        0.009       42.965        2.903        0.005      330.584       -1.949      871.370
01/25/2014  06:09:00      -42.202      -22.620       -7.430        8.128        7.120        6.958       66.063       50.688       48.407        0.126        0.008       47.881        3.217        0.005      330.601       -1.922      871.376
01/25/2014  06:10:00      -45.184      -20.564       -7.817        6.530       12.841        5.383       42.645      164.889       28.979        0.138        0.012       49.644        2.739        0.003      330.659       -1.827      871.376
01/25/2014  06:11:00      -34.382      -15.745       -7.004       10.338       15.188        7.845      106.872      230.679       61.549        0.094        0.020       37.816        6.296        0.028      330.685       -1.783      871.378
01/25/2014  06:12:00      -28.093      -16.567        6.394        7.270       12.325        9.553       52.857      151.902       91.268        0.070        0.015       32.614        5.475        0.028      330.647       -1.847      871.383
01/25/2014  06:13:00      -31.057      -11.758       -0.760       13.596       14.307        7.726      184.845      204.694       59.686        0.078        0.022       33.209        3.176        0.009      330.662       -1.823      871.388
01/25/2014  06:14:00      -53.603       -1.466        2.000       12.862       11.247        8.180      165.424      126.505       66.918        0.162        0.018       53.623        7.279        0.018      330.697       -1.764      871.395
01/25/2014  06:15:00      -65.143       -7.259       -5.934       11.519       14.808        9.324      132.678      219.291       86.939        0.239        0.022       65.547        6.117        0.009      330.703       -1.754      871.393
01/25/2014  06:16:00      -54.684      -21.706       -5.879       10.963       11.159        7.867      120.180      124.525       61.888        0.190        0.015       58.834        6.467        0.012      330.615       -1.898      871.387
01/25/2014  06:17:00      -54.432      -32.157      -10.746        7.158        6.720        6.482       51.239       45.153       42.019        0.213        0.007       63.221        2.192        0.001      330.570       -1.974      871.372
01/25/2014  06:18:00      -56.407      -26.305      -16.782       10.770       10.510        9.082      115.982      110.470       82.480        0.223        0.015       62.239        5.622        0.008      330.575       -1.964      871.359
01/25/2014  06:19:00      -64.655      -16.001      -18.017        9.917       11.636        8.057       98.350      135.393       64.919        0.253        0.015       66.606        4.058        0.004      330.413       -2.229      871.351
01/25/2014  06:20:00      -59.828       -9.592      -15.018        8.659        8.868        7.686       74.976       78.644       59.073        0.205        0.011       60.592        5.800        0.009      330.395       -2.259      871.349
01/25/2014  06:21:00      -54.967      -12.271      -13.481        7.187        9.690        7.049       51.655       93.900       49.686        0.177        0.010       56.320        4.265        0.006      330.404       -2.246      871.356
01/25/2014  06:22:00      -55.874       -9.290      -10.602       10.539       13.100       10.698      111.070      171.598      114.449        0.186        0.020       56.642        8.781        0.024      330.561       -1.986      871.368
01/25/2014  06:23:00      -50.859      -12.077       -6.532        8.862       15.231        7.332       78.539      231.975       53.763        0.157        0.018       52.274        3.906        0.006      330.514       -2.065      871.376
01/25/2014  06:24:00      -59.194       -6.300      -10.020       11.917       17.325       10.403      142.019      300.163      108.218        0.210        0.028       59.528        9.899        0.028      330.581       -1.956      871.370
01/25/2014  06:25:00      -51.944      -23.432       -9.256        8.404       13.687        9.471       70.627      187.330       89.706        0.184        0.017       56.984        5.764        0.010      330.419       -2.220      871.365
01/25/2014  06:26:00      -47.625      -21.769      -10.918        8.518       16.767        8.943       72.549      281.132       79.983        0.165        0.022       52.365        4.454        0.007      330.531       -2.037      871.360
01/25/2014  06:27:00      -36.612      -29.484       -7.734       12.573       10.871        8.140      158.089      118.174       66.266        0.131        0.017       47.008        0.956        0.000      330.597       -1.928      871.358
01/25/2014  06:28:00      -35.047      -24.736       -6.640       12.365       10.659        6.737      152.886      113.620       45.387        0.110        0.016       42.897        2.512        0.003      330.467       -2.141      871.359
01/25/2014  06:29:00      -34.855      -18.182      -13.229       11.149       12.988        7.943      124.309      168.695       63.095        0.104        0.018       39.312        7.086        0.032      330.384       -2.276      871.370
01/25/2014  06:30:00      -40.872      -26.142      -11.084       14.913       11.959        7.921      222.399      143.009       62.747        0.145        0.021       48.518        1.168        0.001      330.416       -2.223      871.370
01/25/2014  06:31:00      -60.086      -20.028      -11.444        8.753        8.534        8.105       76.615       72.824       65.690        0.218        0.011       63.336        4.659        0.005      330.379       -2.285      871.373
01/25/2014  06:32:00      -67.654      -22.519      -10.439       11.309       10.931        7.070      127.905      119.494       49.986        0.275        0.015       71.304        2.544        0.001      330.242       -2.510      871.367
01/25/2014  06:33:00      -61.013      -24.047      -14.071       17.033       12.914       10.325      290.126      166.772      106.604        0.253        0.028       65.581        7.135        0.012      330.236       -2.519      871.370
01/25/2014  06:34:00      -53.093      -33.594        0.995       10.516       15.206       10.676      110.588      231.224      113.986        0.220        0.023       62.829        8.244        0.017      330.379       -2.286      871.381
01/25/2014  06:35:00      -27.857      -20.302       -5.899       10.831        7.744        7.216      117.302       59.974       52.075        0.073        0.011       34.470        3.163        0.008      330.488       -2.107      871.397
01/25/2014  06:36:00      -22.056      -11.590       -6.255       11.421       11.461        9.588      130.445      131.363       91.932        0.051        0.018       24.915        6.412        0.066      330.591       -1.939      871.412
01/25/2014  06:37:00      -25.856      -22.809      -10.662       12.493       11.468        9.382      156.076      131.510       88.027        0.084        0.019       34.479        5.177        0.023      330.557       -1.993      871.427
01/25/2014  06:38:00      -20.623      -21.583       -6.883       11.543        8.711        7.010      133.234       75.878       49.138        0.060        0.013       29.852        2.658        0.008      330.492       -2.100      871.434
01/25/2014  06:39:00      -39.072      -24.477       -6.793       13.569       17.113        9.089      184.129      292.852       82.602        0.137        0.028       46.105        9.326        0.041      330.458       -2.157      871.443
01/25/2014  06:40:00      -64.709      -25.218      -10.533       12.795        6.924        5.728      163.723       47.945       32.805        0.259        0.012       69.449        3.581        0.003      330.196       -2.586      871.445
01/25/2014  06:41:00      -84.801      -25.286      -17.288       10.709       10.577       10.478      114.677      111.881      109.789        0.423        0.017       88.490        5.640        0.004      330.171       -2.629      871.439
01/25/2014  06:42:00     -111.461      -24.147      -14.642       24.545       18.722       10.600      602.467      350.527      112.357        0.714        0.053      114.046        7.218        0.004      330.109       -2.729      871.424
01/25/2014  06:43:00     -110.488      -27.974      -16.928       20.284       17.068       13.525      411.439      291.321      182.917        0.708        0.044      113.974        7.734        0.005      330.065       -2.801      871.419
01/25/2014  06:44:00     -113.351       -9.174      -20.571       18.294       10.763       10.570      334.679      115.837      111.720        0.696        0.028      113.721        6.137        0.003      330.071       -2.790      871.411
01/25/2014  06:45:00     -104.211      -15.725      -18.635       23.234       18.018       11.549      539.840      324.663      133.373        0.623        0.050      105.390        9.331        0.008      330.061       -2.807      871.405
01/25/2014  06:46:00      -96.774      -23.131      -15.401       16.912       18.767       10.886      286.025      352.202      118.494        0.545        0.038       99.500        8.602        0.007      330.088       -2.762      871.407
01/25/2014  06:47:00      -55.859      -10.764      -11.985       19.315        9.073        4.462      373.054       82.321       19.910        0.193        0.024       56.887        4.311        0.006      330.141       -2.678      871.406
01/25/2014  06:48:00      -30.393       -2.438        2.829        6.961        6.986        6.259       48.462       48.799       39.180        0.054        0.007       30.491        3.335        0.012      330.557       -1.995      871.395
01/25/2014  06:49:00      -40.606      -17.556       -8.169       12.538        8.899        9.121      157.191       79.197       83.189        0.117        0.016       44.239        3.218        0.005      330.365       -2.309      871.392
01/25/2014  06:50:00      -55.128      -19.208      -11.089       13.964       12.144       11.232      194.996      147.480      126.167        0.200        0.023       58.378        6.292        0.012      330.262       -2.478      871.391
01/25/2014  06:51:00      -83.486      -16.308      -10.592       20.189       12.095       11.702      407.582      146.285      136.932        0.402        0.035       85.064        4.367        0.003      330.151       -2.660      871.376
01/25/2014  06:52:00      -96.212      -10.667      -10.170       30.070       18.632       16.290      904.195      347.140      265.352        0.550        0.076       96.802        9.873        0.010      330.023       -2.869      871.367
01/25/2014  06:53:00     -100.946       -9.764      -18.672       20.283       13.909       12.178      411.403      193.448      148.314        0.569        0.038      101.417        5.997        0.003      330.195       -2.589      871.359
01/25/2014  06:54:00     -114.717      -12.136      -18.218       25.361       24.833       14.738      643.174      616.669      217.208        0.756        0.074      115.357       13.478        0.014      329.997       -2.914      871.357
01/25/2014  06:55:00     -115.138       -8.927      -18.784       18.086       12.285       12.448      327.086      150.928      154.953        0.716        0.032      115.483        8.196        0.005      329.974       -2.948      871.363
01/25/2014  06:56:00      -92.309       -6.665      -13.616       13.865       11.358       11.929      192.251      129.002      142.301        0.461        0.023       92.549        8.215        0.008      330.065       -2.801      871.364
01/25/2014  06:57:00      -89.591      -17.100      -13.130       11.853       10.740        9.575      140.501      115.358       91.682        0.442        0.017       91.208        4.261        0.002      330.074       -2.786      871.359
01/25/2014  06:58:00      -89.857      -22.630      -13.016       17.429       19.598       14.631      303.786      384.080      214.076        0.483        0.045       92.663       11.999        0.017      330.080       -2.776      871.365
01/25/2014  06:59:00     -104.572      -17.704      -16.035       25.108       20.905       13.131      630.391      437.032      172.413        0.637        0.062      106.060       13.150        0.015      330.085       -2.767      871.368
01/25/2014  07:00:00     -132.662       -7.099      -17.511       28.805       16.748       14.001      829.701      280.484      196.034        0.963        0.065      132.851       12.836        0.009      329.983       -2.934      871.374
01/25/2014  07:01:00     -102.306      -42.833      -19.387       24.550       15.926       12.010      602.709      253.626      144.245        0.684        0.050      110.910        6.037        0.003      330.021       -2.871      871.368
01/25/2014  07:02:00      -81.533      -28.531      -16.714       14.447       16.504       11.465      208.712      272.396      131.436        0.418        0.031       86.380        5.068        0.003      330.102       -2.739      871.367
01/25/2014  07:03:00      -83.645      -22.331      -13.081       15.541       16.958       12.557      241.533      287.563      157.676        0.418        0.034       86.575        7.194        0.007      330.188       -2.599      871.378
01/25/2014  07:04:00      -77.774      -23.578      -13.440       16.760       22.252       14.038      280.903      495.163      197.077        0.388        0.049       81.269        7.573        0.009      330.187       -2.602      871.375
01/25/2014  07:05:00      -73.576      -14.937      -10.501       13.835       15.706       11.340      191.416      246.690      128.591        0.316        0.028       75.077        7.985        0.011      330.113       -2.723      871.371
01/25/2014  07:06:00     -112.182      -11.228      -14.509       23.676       12.989       12.864      560.562      168.719      165.482        0.691        0.045      112.743        8.933        0.006      330.159       -2.648      871.378
01/25/2014  07:07:00      -96.585      -11.415       -7.006       34.799       21.627       15.919     1210.943      467.723      253.424        0.572        0.097       97.257       14.204        0.021      330.106       -2.734      871.386
01/25/2014  07:08:00      -89.967      -13.997       -6.846       27.608       21.112       14.105      762.197      445.703      198.953        0.487        0.070       91.049       12.369        0.018      330.173       -2.625      871.389
01/25/2014  07:09:00     -105.693      -19.852       -7.872       21.586       23.443       13.735      465.934      549.568      188.648        0.642        0.060      107.541        4.583        0.002      330.181       -2.612      871.389
01/25/2014  07:10:00      -95.034      -23.680      -11.421       20.399       21.916       18.266      416.131      480.311      333.638        0.548        0.062       97.940       11.464        0.014      330.168       -2.633      871.387
01/25/2014  07:11:00      -95.175      -47.268       -9.815       19.756       16.968       15.905      390.300      287.903      252.966        0.616        0.047      106.267       12.049        0.013      330.170       -2.628      871.399
01/25/2014  07:12:00      -89.487      -46.364      -11.390       33.136       21.384       16.329     1097.996      457.293      266.647        0.605        0.091      100.785       13.392        0.018      330.174       -2.624      871.406
01/25/2014  07:13:00      -49.267      -37.890        0.003       29.662       22.727       22.110      879.815      516.537      488.845        0.287        0.094       62.152       20.614        0.110      330.243       -2.509      871.419
01/25/2014  07:14:00      -44.018      -24.001       -0.392       31.402       20.465       21.414      986.060      418.832      458.565        0.219        0.093       50.137       16.670        0.111      330.294       -2.426      871.436
01/25/2014  07:15:00      -70.617       -4.139        2.656       27.488       21.528       15.964      755.611      463.453      254.845        0.324        0.074       70.739       14.956        0.045      330.264       -2.474      871.464
01/25/2014  07:16:00      -85.827       -1.533       -5.403       15.236       11.444       14.363      232.131      130.954      206.303        0.398        0.028       85.840       10.272        0.014      330.225       -2.537      871.478
01/25/2014  07:17:00      -79.213      -17.347      -21.658       13.683       15.328       17.326      187.221      234.941      300.207        0.388        0.036       81.090        8.814        0.012      330.260       -2.480      871.485
01/25/2014  07:18:00      -70.648      -15.222      -13.146       16.891       16.923       15.500      285.311      286.373      240.241        0.310        0.041       72.269       10.657        0.022      330.239       -2.514      871.479
01/25/2014  07:19:00      -88.082      -14.120      -16.473       20.328       17.471       13.346      413.221      305.250      178.106        0.456        0.045       89.206        4.806        0.003      330.226       -2.536      871.476
01/25/2014  07:20:00      -92.591      -17.615      -13.056       14.303       13.343       11.696      204.576      178.028      136.803        0.479        0.026       94.251        5.684        0.004      330.147       -2.668      871.475
01/25/2014  07:21:00     -100.457      -31.128      -20.322       16.673       16.177       11.191      277.995      261.710      125.232        0.607        0.033      105.169        6.974        0.004      330.126       -2.702      871.479
01/25/2014  07:22:00      -83.437      -36.121      -12.101       17.566       22.872       14.357      308.563      523.151      206.114        0.473        0.052       90.921       12.035        0.018      330.253       -2.491      871.471
01/25/2014  07:23:00      -79.240      -56.464       -7.226       20.448       22.359       16.047      418.132      499.913      257.496        0.535        0.059       97.300       13.489        0.019      330.241       -2.511      871.470
01/25/2014  07:24:00      -95.984      -30.791      -13.245       14.432       18.122       12.110      208.274      328.415      146.658        0.551        0.034      100.802        9.662        0.009      330.205       -2.571      871.466
01/25/2014  07:25:00      -88.345      -23.443       -9.406       12.640       16.218       12.525      159.765      263.024      156.871        0.451        0.029       91.403        8.312        0.008      330.272       -2.462      871.471
01/25/2014  07:26:00      -92.480      -22.512      -11.071       20.601       17.075       13.476      424.382      291.558      181.610        0.504        0.045       95.181        8.000        0.007      330.291       -2.430      871.476
01/25/2014  07:27:00      -92.065      -22.640      -12.022       19.477       19.450       12.071      379.360      378.297      145.715        0.502        0.045       94.808        8.834        0.009      330.271       -2.461      871.487
01/25/2014  07:28:00      -62.576      -39.566       -2.420       24.840       18.436       15.307      617.036      339.895      234.302        0.334        0.060       74.036       11.281        0.023      330.226       -2.536      871.494
01/25/2014  07:29:00      -92.187      -19.693      -13.334       15.815       15.156       12.170      250.110      229.716      148.099        0.485        0.031       94.267        9.502        0.010      330.266       -2.472      871.492
01/25/2014  07:30:00      -91.714      -10.966      -14.073       24.032       18.258       17.495      577.514      333.341      306.069        0.497        0.061       92.367       16.419        0.032      330.306       -2.405      871.492
01/25/2014  07:31:00      -59.262      -24.119       -4.182       22.495       18.402       20.263      506.025      338.643      410.603        0.268        0.063       63.982       10.826        0.029      330.274       -2.457      871.498
01/25/2014  07:32:00      -76.539      -12.853       -7.328       22.411       14.671       12.646      502.258      215.245      159.933        0.348        0.044       77.610       12.117        0.024      330.274       -2.456      871.498
01/25/2014  07:33:00      -47.536      -33.752        5.146       23.175       20.746       18.338      537.085      430.387      336.281        0.236        0.065       58.299       14.132        0.059      330.273       -2.460      871.492
01/25/2014  07:34:00      -73.957      -33.417       -7.195       20.385       24.699       15.979      415.541      610.045      255.326        0.396        0.064       81.157       15.664        0.037      330.240       -2.515      871.492
01/25/2014  07:35:00      -98.397      -12.611       -4.904       21.115       26.351       17.265      445.830      694.352      298.097        0.565        0.072       99.202        9.234        0.009      330.192       -2.593      871.490
01/25/2014  07:36:00      -97.178       -9.054       -5.401       23.895       22.383       15.180      570.991      501.007      230.420        0.543        0.065       97.599       11.779        0.015      330.192       -2.592      871.487
01/25/2014  07:37:00      -86.582      -31.763       -3.960       25.579       23.078       18.521      654.269      532.596      343.033        0.503        0.076       92.224       18.702        0.041      330.223       -2.542      871.480
01/25/2014  07:38:00      -59.066      -22.381       -3.497       17.411       17.467       12.238      303.147      305.083      149.779        0.238        0.038       63.164        7.448        0.014      330.252       -2.494      871.484
01/25/2014  07:39:00      -40.132      -20.365       -4.754        9.027       11.051        9.640       81.493      122.122       92.920        0.117        0.015       45.004        5.846        0.017      330.278       -2.451      871.482
01/25/2014  07:40:00      -21.202      -19.973       -8.693        7.498        7.631        7.502       56.214       58.232       56.277        0.055        0.009       29.128        4.694        0.026      330.474       -2.130      871.481
01/25/2014  07:41:00      -19.181       -9.854       -5.800       12.242        9.554        6.747      149.871       91.276       45.520        0.039        0.014       21.564        4.379        0.041      330.515       -2.062      871.462
01/25/2014  07:42:00      -32.581       -6.793       -6.958       12.561        6.971        5.760      157.790       48.591       33.180        0.070        0.012       33.281        3.649        0.012      330.500       -2.086      871.459
01/25/2014  07:43:00      -37.442       -5.156       -5.523        9.383        8.788        7.104       88.033       77.222       50.468        0.084        0.011       37.795        4.324        0.013      330.470       -2.137      871.446
01/25/2014  07:44:00      -37.696       -1.283       -2.296       11.127       11.662       12.921      123.806      136.005      166.944        0.093        0.021       37.718        8.818        0.055      330.484       -2.112      871.420
01/25/2014  07:45:00      -41.151       -2.506      -10.891        9.565        6.991        9.985       91.486       48.881       99.701        0.103        0.012       41.227        7.231        0.031      330.481       -2.119      871.412
01/25/2014  07:46:00      -17.838       -4.100       -5.094        9.553        6.324        6.067       91.265       39.993       36.811        0.026        0.008       18.303        4.464        0.059      330.548       -2.009      871.408
01/25/2014  07:47:00      -21.649       -8.806       -4.373        6.096        5.604        5.698       37.163       31.404       32.470        0.033        0.005       23.371        4.434        0.036      330.624       -1.883      871.409
01/25/2014  07:48:00      -21.346        6.440       -3.814        6.200        9.197        4.848       38.440       84.586       23.502        0.033        0.007       22.296        4.422        0.039      330.720       -1.726      871.426
01/25/2014  07:49:00        1.438        5.194        9.698        9.960        9.265        6.978       99.203       85.838       48.698        0.018        0.012        5.390        6.172        1.311      331.114       -1.079      871.431
01/25/2014  07:50:00       19.691       21.615        1.061       13.363       13.951        7.612      178.558      194.620       57.950        0.064        0.022       29.240        7.622        0.068      330.965       -1.324      871.450
01/25/2014  07:51:00       16.168       28.817        3.246       13.133       13.238       10.297      172.477      175.245      106.019        0.078        0.023       33.043       10.485        0.101      331.022       -1.230      871.457
01/25/2014  07:52:00       11.537       20.649        8.275       13.529       13.329       13.563      183.039      177.662      183.944        0.059        0.027       23.654       10.967        0.215      331.126       -1.061      871.481
01/25/2014  07:53:00       11.801        6.615        7.052       14.943        7.814       10.551      223.297       61.056      111.333        0.031        0.020       13.529        6.197        0.210      331.218       -0.908      871.505
01/25/2014  07:54:00       -9.727        0.110        7.807       12.958        7.249        4.994      167.913       52.545       24.937        0.020        0.012        9.728        3.106        0.102      331.135       -1.045      871.519
01/25/2014  07:55:00      -33.979       -8.247       -7.536        4.743        4.554        4.334       22.493       20.742       18.780        0.067        0.003       34.966        2.879        0.007      330.692       -1.772      871.545
01/25/2014  07:56:00      -34.116      -10.798       -7.077        4.355        5.291        3.913       18.963       27.993       15.312        0.070        0.003       35.784        2.502        0.005      330.745       -1.686      871.568
01/25/2014  07:57:00      -33.222       -5.028       -8.662        5.137        8.507        5.332       26.392       72.376       28.432        0.067        0.006       33.601        3.136        0.009      330.824       -1.555      871.581
01/25/2014  07:58:00      -33.189        5.196       -2.923        5.537        8.147        4.703       30.662       66.379       22.115        0.063        0.006       33.594        3.909        0.014      330.904       -1.424      871.601
01/25/2014  07:59:00      -43.421        0.917       -3.148        6.348        6.331        5.282       40.297       40.076       27.895        0.100        0.005       43.430        3.802        0.008      330.844       -1.523      871.613
01/25/2014  08:00:00      -31.804       -7.895       -2.168        6.684        7.209        4.664       44.680       51.966       21.755        0.060        0.006       32.769        2.970        0.008      330.847       -1.519      871.616
01/25/2014  08:01:00      -22.907       -6.312       -5.832        5.145        6.059        3.064       26.473       36.717        9.386        0.034        0.004       23.761        1.691        0.005      330.886       -1.453      871.638
01/25/2014  08:02:00      -18.856        5.958       -2.597        4.757        3.710        3.820       22.625       13.765       14.594        0.022        0.003       19.775        1.711        0.007      331.029       -1.218      871.645
01/25/2014  08:03:00      -18.852        2.395        4.340        5.625        5.978        5.556       31.646       35.735       30.870        0.024        0.005       19.003        3.196        0.028      331.118       -1.073      871.641
01/25/2014  08:04:00      -28.440       -5.899        0.059        4.027        3.617        2.628       16.214       13.080        6.906        0.044        0.002       29.045        0.979        0.001      331.121       -1.067      871.632
01/25/2014  08:05:00      -20.461       -0.853        0.352       10.471        3.953        5.540      109.650       15.623       30.692        0.029        0.008       20.479        5.531        0.073      331.274       -0.816      871.621
01/25/2014  08:06:00      -11.068        1.386        1.858        7.165        5.799        6.260       51.333       33.626       39.193        0.013        0.006       11.155        4.556        0.167      331.437       -0.548      871.612
01/25/2014  08:07:00       10.465       10.338        6.462       16.373       13.121        7.958      268.076      172.152       63.332        0.038        0.025       14.710        4.523        0.095      331.518       -0.415      871.601
01/25/2014  08:08:00       -7.157        7.900        8.236        6.393       10.298       12.224       40.870      106.044      149.422        0.024        0.015       10.660        6.111        0.329      331.723       -0.078      871.595
01/25/2014  08:09:00       18.509       13.875        1.002       20.064       17.310        9.488      402.574      299.632       90.031        0.066        0.040       23.133       13.033        0.317      331.627       -0.236      871.574
01/25/2014  08:10:00       24.760        8.842        6.546       13.777       18.247       11.085      189.808      332.938      122.887        0.069        0.032       26.291        6.125        0.054      331.588       -0.302      871.561
01/25/2014  08:11:00       14.013        1.858       18.368       13.610        5.990       12.198      185.230       35.875      148.787        0.045        0.018       14.135        5.298        0.140      331.880        0.182      871.554
01/25/2014  08:12:00       -4.652       -3.638        7.525       12.643       10.914        7.217      159.853      119.108       52.090        0.021        0.017        5.906        5.813        0.969      331.786        0.027      871.546
01/25/2014  08:13:00        8.729       16.113       12.089       20.812       16.898       13.733      433.146      285.547      188.598        0.069        0.045       18.326       12.856        0.492      331.760       -0.016      871.546
01/25/2014  08:14:00       -4.517       -5.989       11.825       16.039       12.577        9.355      257.238      158.169       87.515        0.035        0.025        7.501        4.846        0.417      331.718       -0.085      871.555
01/25/2014  08:15:00      -18.086      -28.975       -4.533        7.831        8.021        7.099       61.318       64.333       50.401        0.068        0.009       34.156        2.692        0.006      331.273       -0.819      871.560
01/25/2014  08:16:00      -33.262      -16.927       -3.830        7.520        8.030        6.241       56.553       64.483       38.954        0.078        0.008       37.322        4.281        0.013      331.338       -0.712      871.564
01/25/2014  08:17:00      -47.056       -7.215       -5.332        5.557        5.866        5.288       30.883       34.407       27.959        0.119        0.005       47.606        0.901        0.000      331.365       -0.666      871.575
01/25/2014  08:18:00      -40.375      -11.767       -5.194        5.701        6.461        5.573       32.498       41.742       31.063        0.095        0.005       42.055        1.362        0.001      331.463       -0.508      871.576
01/25/2014  08:19:00      -29.988      -10.802       -1.265        9.934        6.497        6.267       98.685       42.211       39.275        0.060        0.009       31.874        4.856        0.023      331.528       -0.400      871.579
01/25/2014  08:20:00      -24.715       -6.864        1.503        7.759        5.282        5.793       60.204       27.902       33.561        0.039        0.006       25.650        5.071        0.039      331.517       -0.418      871.592
01/25/2014  08:21:00      -30.216        1.439       -0.304        6.964        8.041        5.463       48.498       64.664       29.843        0.053        0.007       30.251        3.741        0.015      331.527       -0.402      871.593
01/25/2014  08:22:00      -33.758      -19.529       -2.905        8.794        9.603        5.208       77.342       92.219       27.119        0.086        0.010       39.000        3.003        0.006      331.528       -0.400      871.595
01/25/2014  08:23:00      -34.042      -21.734       -4.905       11.588       10.615        8.402      134.282      112.668       70.586        0.099        0.016       40.389        5.894        0.021      331.576       -0.320      871.590
01/25/2014  08:24:00      -21.678      -25.844       -0.213       26.588       12.428       10.107      706.915      154.460      102.148        0.105        0.048       33.732       10.081        0.089      331.654       -0.192      871.583
01/25/2014  08:25:00      -47.263      -19.770       -4.711        9.253       10.015        7.106       85.618      100.294       50.493        0.144        0.012       51.231        4.254        0.007      331.603       -0.276      871.580
01/25/2014  08:26:00      -34.794       -7.170       -5.775        9.565        9.182        8.071       91.496       84.310       65.141        0.077        0.012       35.525        5.245        0.022      331.661       -0.179      871.577
01/25/2014  08:27:00      -30.115       -4.231       -3.081        8.578       10.454        5.325       73.589      109.293       28.356        0.057        0.011       30.411        3.680        0.015      331.662       -0.178      871.575
01/25/2014  08:28:00      -23.387        4.160        3.443       11.279        6.529       11.680      127.222       42.631      136.424        0.044        0.015       23.754       10.020        0.178      331.858        0.147      871.575
01/25/2014  08:29:00        9.399        4.428       15.826       13.512       10.038       14.662      182.578      100.756      214.980        0.043        0.025       10.390        9.051        0.759      332.342        0.942      871.577
01/25/2014  08:30:00        8.273        5.066       18.048       10.871       10.464       14.132      118.179      109.498      199.727        0.042        0.021        9.701        8.444        0.758      332.617        1.396      871.580
01/25/2014  08:31:00       22.426       15.148       10.794       21.002       16.749       19.279      441.069      280.522      371.699        0.097        0.055       27.063       10.238        0.143      332.142        0.612      871.578
01/25/2014  08:32:00       16.343       52.580       21.694       24.555       22.164       31.853      602.963      491.241     1014.588        0.281        0.105       55.061       25.256        0.210      332.122        0.578      871.576
01/25/2014  08:33:00      -12.308        6.589       34.357       12.130       17.520       16.402      147.148      306.938      269.032        0.105        0.036       13.961       13.427        0.925      332.561        1.303      871.569
01/25/2014  08:34:00      -13.327        4.920       14.247       16.511       17.367       13.883      272.620      301.615      192.725        0.059        0.038       14.206        9.660        0.462      332.180        0.675      871.558
01/25/2014  08:35:00        4.597        7.465        5.740       18.769       26.927       19.770      352.287      725.087      390.852        0.079        0.073        8.767       17.138        3.821      332.231        0.759      871.555
01/25/2014  08:36:00       14.506       15.168        7.108       30.997       21.290       15.825      960.807      453.256      250.446        0.108        0.083       20.987        9.492        0.205      332.208        0.721      871.554
01/25/2014  08:37:00        8.500        3.786       17.817       19.714       24.355       17.573      388.625      593.166      308.806        0.085        0.065        9.305       14.597        2.461      332.557        1.298      871.557
01/25/2014  08:38:00        1.786       24.312       45.111       19.103       29.636       17.842      364.933      878.321      318.321        0.210        0.078       24.378       13.683        0.315      332.561        1.304      871.572
01/25/2014  08:39:00       18.483       54.270       49.946       30.454       29.531       29.895      927.448      872.097      893.704        0.424        0.135       57.331       24.476        0.182      332.294        0.863      871.570
01/25/2014  08:40:00       49.595       46.783       20.239       34.909       19.783       26.328     1218.670      391.387      693.183        0.368        0.115       68.179       10.788        0.025      332.010        0.394      871.567
01/25/2014  08:41:00       82.818       62.832       24.044       28.940       23.058       34.391      837.517      531.684     1182.740        0.697        0.128      103.955       15.563        0.022      332.041        0.446      871.562
01/25/2014  08:42:00       70.727       42.698       14.457       43.832       22.540       22.674     1921.253      508.071      514.098        0.499        0.147       82.617        4.298        0.003      332.104        0.550      871.557
01/25/2014  08:43:00       -3.405       21.353       49.200       23.482       30.345       21.031      551.392      920.836      442.303        0.240        0.096       21.622       22.243        1.058      332.666        1.478      871.560
01/25/2014  08:44:00       21.021       55.365       54.511       44.923       36.033       33.399     2018.120     1298.368     1115.491        0.545        0.222       59.221       33.762        0.325      332.481        1.171      871.570
01/25/2014  08:45:00       55.131       58.577       14.153       25.374       29.545       22.926      643.856      872.902      525.612        0.436        0.102       80.441       12.031        0.022      332.428        1.083      871.589
01/25/2014  08:46:00        9.096       27.797       29.655       35.299       35.196       23.930     1245.999     1238.777      572.650        0.240        0.153       29.247       13.464        0.212      332.618        1.398      871.609
01/25/2014  08:47:00       21.816       32.179       22.232       32.540       24.672       20.918     1058.835      608.700      437.561        0.206        0.105       38.877       19.785        0.259      332.732        1.586      871.624
01/25/2014  08:48:00        2.189       35.881       56.956       25.025       37.497       19.374      626.257     1406.039      375.343        0.347        0.120       35.948       20.127        0.313      332.978        1.993      871.643
01/25/2014  08:49:00       36.315       53.297       36.196       62.290       29.219       37.709     3880.106      853.748     1421.965        0.581        0.308       64.493       43.095        0.446      332.451        1.121      871.651
01/25/2014  08:50:00       52.746       55.088       19.814       40.287       26.760       32.869     1623.068      716.077     1080.345        0.481        0.171       76.268       11.894        0.024      332.475        1.161      871.664
01/25/2014  08:51:00       80.937       60.349        0.584       41.865       39.903       31.171     1752.706     1592.226      971.607        0.725        0.216      100.960       28.308        0.079      332.430        1.086      871.669
01/25/2014  08:52:00       -3.277       13.215       44.687       14.417       29.797       16.912      207.841      887.858      286.031        0.178        0.069       13.616       10.212        0.563      332.919        1.895      871.680
01/25/2014  08:53:00        6.111       73.226       78.621       18.406       26.888       13.556      338.790      722.976      183.766        0.641        0.062       73.481       12.817        0.030      332.620        1.400      871.677
01/25/2014  08:54:00       57.287       55.967       41.205       35.014       40.904       36.675     1225.957     1673.159     1345.061        0.618        0.212       80.088       30.786        0.148      332.451        1.120      871.683
01/25/2014  08:55:00       30.520       64.565       65.847       58.732       28.993       27.865     3449.479      840.587      776.473        0.725        0.253       71.415       17.441        0.060      332.585        1.343      871.680
01/25/2014  08:56:00      110.920       68.911        1.200       21.203       18.850       19.894      449.552      355.323      395.771        0.913        0.060      130.584        6.210        0.002      332.193        0.697      871.674
01/25/2014  08:57:00       76.439       62.471        8.416       24.540       17.763       29.747      602.217      315.508      884.885        0.581        0.090       98.719        6.236        0.004      332.402        1.039      871.675
01/25/2014  08:58:00       41.861       48.112        0.076       32.954       24.754       31.544     1085.989      612.743      995.031        0.338        0.135       63.774       19.028        0.089      332.591        1.353      871.672
01/25/2014  08:59:00       22.390       54.701       -0.998       27.803       32.050       25.899      773.025     1027.205      670.738        0.298        0.124       59.106       13.220        0.050      332.770        1.650      871.671
01/25/2014  09:00:00       45.529       54.923       10.684       37.808       30.896       26.914     1429.440      954.536      724.373        0.416        0.155       71.340       20.380        0.082      332.665        1.474      871.655
01/25/2014  09:01:00       77.418       71.965       11.351       41.798       32.863       29.517     1747.102     1079.992      871.231        0.750        0.185      105.700       20.392        0.037      332.624        1.408      871.656
01/25/2014  09:02:00       79.893       79.687        9.998       32.061       25.024       24.399     1027.906      626.209      595.307        0.754        0.112      112.840       12.581        0.012      332.476        1.164      871.661
01/25/2014  09:03:00       65.220       65.111       -0.722       38.944       24.401       28.234     1516.668      595.392      797.176        0.570        0.145       92.158       16.720        0.033      332.541        1.271      871.656
01/25/2014  09:04:00       51.158       55.704        5.437       44.707       32.992       25.595     1998.723     1088.457      655.079        0.475        0.187       75.631       21.166        0.078      332.608        1.382      871.652
01/25/2014  09:05:00       62.954       44.301       -4.958       30.506       26.611       24.495      930.633      708.161      600.022        0.409        0.112       76.979       13.410        0.030      332.340        0.939      871.650
01/25/2014  09:06:00       24.384       26.877       18.389       28.167       21.558       25.075      793.376      464.755      628.760        0.177        0.094       36.289       16.892        0.217      332.772        1.653      871.635
01/25/2014  09:07:00       31.467       31.955       36.305       36.008       28.886       31.786     1296.577      834.412     1010.362        0.323        0.157       44.847       26.222        0.342      332.824        1.738      871.637
01/25/2014  09:08:00       22.258       31.965       58.182       29.388       33.343       27.053      863.634     1111.724      731.856        0.380        0.135       38.951       22.299        0.328      332.930        1.913      871.632
01/25/2014  09:09:00       -5.656       29.529       58.315       20.795       21.940       15.099      432.422      481.348      227.976        0.272        0.057       30.066       12.422        0.171      333.205        2.368      871.622
01/25/2014  09:10:00       47.535       59.002       62.764       49.173       30.372       33.149     2418.014      922.472     1098.873        0.706        0.222       75.768       33.931        0.201      332.754        1.621      871.619
01/25/2014  09:11:00       68.735       37.341       34.842       25.712       32.077       28.383      661.102     1028.909      805.616        0.491        0.125       78.223       20.973        0.072      332.645        1.441      871.620
01/25/2014  09:12:00       49.519       47.714       31.998       20.073       21.560       19.622      402.939      464.845      385.014        0.350        0.063       68.766       10.925        0.025      332.576        1.327      871.621
01/25/2014  09:13:00       11.293       34.598       27.681       19.416       18.028       21.552      376.991      324.996      464.474        0.163        0.058       36.394       17.581        0.233      333.068        2.141      871.610
01/25/2014  09:14:00       -9.505       20.040       56.610       10.484       19.557       11.122      109.924      382.494      123.689        0.216        0.031       22.180       10.374        0.219      333.551        2.940      871.614
01/25/2014  09:15:00       -9.119      -11.686       28.334       16.180       35.830       19.093      261.806     1283.772      364.556        0.147        0.096       14.823       19.226        1.682      333.328        2.574      871.610
01/25/2014  09:16:00       -6.210      -39.789       16.746       18.867       42.004       22.105      355.969     1764.307      488.612        0.226        0.130       40.270       23.261        0.334      333.231        2.412      871.600
01/25/2014  09:17:00       -0.148      -34.201       11.098       15.170       37.289       20.876      230.143     1390.466      435.806        0.167        0.103       34.201       24.389        0.508      333.334        2.580      871.591
01/25/2014  09:18:00      -12.063        8.960       34.891       14.356       28.470       16.116      206.089      810.546      259.714        0.136        0.064       15.027       18.283        1.480      333.550        2.939      871.584
01/25/2014  09:19:00      -31.618       -6.692        9.831       13.113       12.739        8.277      171.953      162.287       68.507        0.077        0.020       32.318        6.911        0.046      332.971        1.982      871.577
01/25/2014  09:20:00       -6.793       -8.606       11.278       11.058       16.156       19.231      122.273      261.026      369.842        0.050        0.038       10.964       14.236        1.686      333.472        2.809      871.578
01/25/2014  09:21:00      -10.273       -8.023       17.091       14.287       11.894       16.336      204.115      141.477      266.868        0.054        0.031       13.035       11.632        0.796      333.782        3.324      871.575
01/25/2014  09:22:00      -16.130      -20.393        4.278       23.427       16.761       17.526      548.832      280.916      307.177        0.092        0.057       26.001       16.164        0.386      333.253        2.447      871.588
01/25/2014  09:23:00      -32.394      -39.999       -4.248       25.830       21.217       16.088      667.188      450.151      258.825        0.202        0.069       51.471       11.091        0.046      332.983        2.003      871.592
01/25/2014  09:24:00      -27.571      -26.804       -0.570       23.502       21.332       13.493      552.333      455.045      182.062        0.133        0.059       38.452       11.552        0.090      333.104        2.200      871.586
01/25/2014  09:25:00      -33.850      -30.940       -2.798       13.519       17.560       11.305      182.753      308.342      127.796        0.136        0.031       45.860        6.860        0.022      332.954        1.953      871.588
01/25/2014  09:26:00      -28.649      -26.565       -2.233       24.289       14.420        9.454      589.973      207.934       89.381        0.121        0.044       39.070       10.541        0.073      333.093        2.182      871.579
01/25/2014  09:27:00       -2.079       -7.683       -7.495       10.864       10.603        7.547      118.021      112.420       56.963        0.020        0.014        7.959        4.638        0.340      333.337        2.585      871.568
01/25/2014  09:28:00      -10.917       -0.125       18.631        8.709       13.453       22.434       75.851      180.979      503.295        0.061        0.038       10.918       13.659        1.565      333.626        3.064      871.559
01/25/2014  09:29:00      -10.237       16.586       47.288       12.043       19.592       16.398      145.037      383.859      268.909        0.171        0.040       19.490       11.533        0.350      333.835        3.411      871.551
01/25/2014  09:30:00        7.168       24.503       51.008       24.956       22.302        8.599      622.807      497.377       73.949        0.222        0.060       25.530        4.361        0.029      333.526        2.899      871.550
01/25/2014  09:31:00       33.915       43.150       29.619       15.724       13.676       18.284      247.240      187.028      334.288        0.233        0.038       54.883        5.829        0.011      333.139        2.258      871.543
01/25/2014  09:32:00       19.938       33.588       22.472       33.222       34.625       19.329     1103.668     1198.886      373.617        0.235        0.134       39.060       17.429        0.199      333.495        2.847      871.548
01/25/2014  09:33:00       -4.991       -0.890       45.302       17.980       75.388       43.559      323.282     5683.308     1897.401        0.499        0.395        5.069       53.464      111.229      333.553        2.943      871.548
01/25/2014  09:34:00       51.635       66.285       66.662       48.659       28.508       26.305     2367.743      812.683      691.932        0.769        0.194       84.023       26.453        0.099      333.285        2.499      871.561
01/25/2014  09:35:00       43.072       58.526       46.021       31.150       19.340       28.434      970.308      374.017      808.472        0.478        0.108       72.668       21.559        0.088      333.199        2.356      871.556
01/25/2014  09:36:00       39.985       44.466       57.518       41.013       35.990       26.474     1682.098     1295.308      700.850        0.528        0.184       59.800       23.013        0.148      333.456        2.781      871.545
01/25/2014  09:37:00       23.941       36.241       58.241       31.141       44.057       21.943      969.755     1940.992      481.495        0.433        0.170       43.435       23.797        0.300      333.482        2.826      871.544
01/25/2014  09:38:00       -8.856       35.705       61.765       20.771       28.171       20.262      431.421      793.616      410.543        0.340        0.082       36.787       13.273        0.130      333.640        3.088      871.550
01/25/2014  09:39:00       47.220       58.555       47.961       27.458       22.038       22.170      753.960      485.667      491.512        0.484        0.087       75.223       11.079        0.022      333.326        2.568      871.539
01/25/2014  09:40:00       11.400       38.468       48.968       22.326       24.359       18.685      498.441      593.377      349.134        0.272        0.072       40.121       11.119        0.077      333.676        3.147      871.534
01/25/2014  09:41:00      -10.119       17.326       47.064       22.951       42.254       21.849      526.764     1785.372      477.388        0.270        0.139       20.065       22.845        1.296      333.938        3.581      871.536
01/25/2014  09:42:00        4.277       34.663       46.661       39.351       28.739       21.152     1548.476      825.935      447.394        0.311        0.141       34.926       18.285        0.274      334.000        3.684      871.538
01/25/2014  09:43:00       48.707       42.480        5.155       34.003       32.776       24.541     1156.181     1074.298      602.275        0.352        0.142       64.629       15.515        0.058      333.561        2.956      871.536
01/25/2014  09:44:00       78.225       52.144       14.895       42.837       33.764       27.747     1834.968     1140.015      769.883        0.640        0.187       94.011       10.697        0.013      333.563        2.959      871.526
01/25/2014  09:45:00       74.814       68.742        8.833       29.475       19.493       23.189      868.780      379.961      537.728        0.609        0.089      101.601        8.237        0.007      333.495        2.846      871.527
01/25/2014  09:46:00       26.710       33.715       14.856       34.998       30.873       33.267     1224.836      953.139     1106.727        0.268        0.164       43.014       12.901        0.090      333.836        3.412      871.528
01/25/2014  09:47:00       -3.289       55.913       86.660       33.335       50.585       20.458     1111.214     2558.792      418.549        0.737        0.204       56.009       20.945        0.140      333.875        3.478      871.531
01/25/2014  09:48:00       49.748        0.395       57.511       37.182       39.970       31.028     1382.481     1597.586      962.726        0.486        0.197       49.750       27.361        0.302      333.718        3.217      871.538
01/25/2014  09:49:00       79.530       22.352       12.798       41.999       47.317       35.158     1763.917     2238.879     1236.119        0.611        0.262       82.611       23.856        0.083      333.492        2.841      871.541
01/25/2014  09:50:00       89.741       71.378        9.798       38.682       33.067       35.011     1496.313     1093.422     1225.759        0.853        0.191      114.666       18.693        0.027      333.450        2.772      871.536
01/25/2014  09:51:00       87.776       59.629       10.604       34.830       38.069       26.580     1213.148     1449.273      706.506        0.737        0.168      106.114       14.887        0.020      333.677        3.149      871.539
01/25/2014  09:52:00      107.793       77.072       16.738       19.805       17.444       19.693      392.256      304.310      387.822        0.946        0.054      132.512       10.816        0.007      333.325        2.565      871.528
01/25/2014  09:53:00      118.528       96.406       13.136       44.365       33.359       27.916     1968.251     1112.795      779.299        1.369        0.193      152.784       22.867        0.022      333.403        2.695      871.531
01/25/2014  09:54:00      122.148       90.918        0.947       45.092       29.681       30.033     2033.326      880.970      901.969        1.350        0.191      152.270       15.431        0.010      333.403        2.694      871.519
01/25/2014  09:55:00      134.116       90.795        7.427       61.204       27.168       37.156     3745.921      738.091     1380.538        1.607        0.293      161.959       36.732        0.051      333.612        3.040      871.514
01/25/2014  09:56:00       33.927       45.086       51.065       58.816       40.394       28.246     3459.364     1631.665      797.835        0.584        0.294       56.425       25.520        0.205      334.242        4.085      871.497
01/25/2014  09:57:00       92.337       71.496       19.449       36.005       32.568       31.290     1296.375     1060.701      979.059        0.868        0.167      116.781       20.679        0.031      333.754        3.277      871.495
01/25/2014  09:58:00       97.881       88.049       14.636       26.879       22.288       23.605      722.460      496.752      557.198        0.966        0.089      131.657       10.666        0.007      333.658        3.117      871.479
01/25/2014  09:59:00       31.641       39.101       25.673       40.786       47.251       38.572     1663.484     2232.676     1487.793        0.429        0.269       50.299       30.547        0.369      334.148        3.930      871.470
01/25/2014  10:00:00       24.955       74.158      101.406       46.944       45.699       25.470     2203.706     2088.422      648.704        1.067        0.247       78.244       29.955        0.147      333.912        3.537      871.456
01/25/2014  10:01:00       83.255       93.992       80.461       54.009       43.498       40.962     2916.948     1892.067     1677.900        1.436        0.324      125.562       34.080        0.074      333.829        3.399      871.461
01/25/2014  10:02:00       81.402       53.671       57.049       38.295       48.208       49.074     1466.507     2323.994     2408.209        0.948        0.310       97.503       45.412        0.217      333.865        3.460      871.458
01/25/2014  10:03:00       60.400       52.518       24.037       32.817       23.707       28.119     1076.938      562.016      790.705        0.471        0.121       80.040       13.711        0.029      333.970        3.635      871.454
01/25/2014  10:04:00       43.247       25.865        4.911       39.286       56.283       29.120     1543.354     3167.787      847.959        0.406        0.278       50.392       23.220        0.212      334.088        3.830      871.442
01/25/2014  10:05:00       -7.875       29.028       70.649       25.065       49.070       30.062      628.240     2407.884      903.700        0.492        0.197       30.077       32.322        1.155      334.807        5.024      871.430
01/25/2014  10:06:00        5.905       74.442       95.912       32.317       47.413       27.016     1044.402     2247.977      729.883        0.940        0.201       74.676       28.191        0.143      334.422        4.384      871.410
01/25/2014  10:07:00        3.993       39.792       69.628       38.784       54.120       32.456     1504.188     2928.971     1053.386        0.597        0.274       39.992       33.364        0.696      334.332        4.234      871.393
01/25/2014  10:08:00        1.842       18.644       78.169       30.790       56.128       32.926      948.046     3150.392     1084.129        0.582        0.259       18.735       33.835        3.261      334.682        4.816      871.363
01/25/2014  10:09:00       17.316        6.422       74.007       44.103       51.570       35.234     1945.046     2659.513     1241.400        0.583        0.292       18.468       34.298        3.449      334.661        4.780      871.359
01/25/2014  10:10:00       43.187       54.239       86.208       42.815       43.590       30.124     1833.151     1900.086      907.469        0.844        0.232       69.333       31.278        0.204      334.398        4.344      871.353
01/25/2014  10:11:00       82.303       33.872       18.943       35.736       35.773       34.796     1277.034     1279.673     1210.780        0.602        0.188       89.000       24.963        0.079      333.833        3.407      871.354
01/25/2014  10:12:00       55.331       35.866       39.681       25.846       18.594       15.625      668.004      345.743      244.138        0.359        0.063       65.938       12.048        0.033      334.055        3.775      871.352
01/25/2014  10:13:00       41.178       10.878       28.544       31.342       26.732       27.505      982.333      714.595      756.537        0.254        0.123       42.591       17.808        0.175      334.307        4.193      871.358
01/25/2014  10:14:00       51.304       39.643       21.800       55.996       21.481       38.753     3135.587      461.413     1501.832        0.489        0.255       64.836       19.831        0.094      334.248        4.095      871.355
01/25/2014  10:15:00       60.255       61.476       36.626       61.071       43.965       41.997     3729.664     1932.897     1763.788        0.809        0.371       86.081       30.734        0.127      334.451        4.432      871.359
01/25/2014  10:16:00      100.876       68.187       33.528       46.805       42.468       49.718     2190.690     1803.548     2471.852        1.121        0.323      121.760       28.158        0.053      334.476        4.473      871.363
01/25/2014  10:17:00       76.131      104.506       60.867       80.131       46.391       60.640     6421.055     2152.146     3677.151        1.633        0.613      129.296       49.139        0.144      334.571        4.630      871.362
01/25/2014  10:18:00       17.582       80.093       76.431       48.616       41.742       40.835     2363.517     1742.406     1667.501        0.917        0.289       82.000       37.458        0.209      334.836        5.072      871.353
01/25/2014  10:19:00       25.556       50.824       35.803       46.414       39.621       41.290     2154.267     1569.817     1704.861        0.497        0.271       56.887       30.479        0.287      334.872        5.131      871.351
01/25/2014  10:20:00       28.870       53.574       17.739       44.154       33.350       29.051     1949.588     1112.209      843.964        0.396        0.195       60.858       14.740        0.059      334.763        4.951      871.349
01/25/2014  10:21:00       59.274       53.709        1.624       36.500       41.655       31.960     1332.271     1735.170     1021.460        0.524        0.204       79.988       19.551        0.060      334.612        4.700      871.343
01/25/2014  10:22:00       69.090       35.737        4.450       45.518       25.949       32.194     2071.920      673.327     1036.438        0.493        0.189       77.785       17.241        0.049      334.677        4.808      871.328
01/25/2014  10:23:00       71.244       84.374       82.083       48.687       51.054       48.353     2370.413     2606.490     2337.968        1.312        0.366      110.429       32.559        0.087      334.803        5.016      871.331
01/25/2014  10:24:00       76.786      104.645       72.959       50.272       54.128       48.816     2527.320     2929.893     2382.995        1.500        0.392      129.795       40.217        0.096      334.344        4.254      871.335
01/25/2014  10:25:00       38.390       90.815      103.346       39.140       45.912       28.353     1531.950     2107.934      803.914        1.242        0.222       98.596       28.587        0.084      334.448        4.427      871.324
01/25/2014  10:26:00      109.448       91.575       63.860       34.537       37.515       41.295     1192.824     1407.385     1705.275        1.437        0.215      142.705       21.919        0.024      334.251        4.100      871.321
01/25/2014  10:27:00       84.558       94.048       60.266       66.825       38.154       47.122     4465.532     1455.734     2220.479        1.388        0.407      126.472       41.519        0.108      334.524        4.553      871.322
01/25/2014  10:28:00       39.802        4.453       15.863       74.776       33.410       34.442     5591.502     1116.235     1186.218        0.487        0.395       40.050       22.063        0.303      334.590        4.662      871.325
01/25/2014  10:29:00       -4.526       26.678       65.089       32.056       75.583       49.801     1027.580     5712.829     2480.170        0.709        0.461       27.059       53.763        3.948      334.917        5.205      871.315
01/25/2014  10:30:00       69.017       57.355       45.829       38.488       56.275       36.076     1481.360     3166.833     1301.498        0.805        0.297       89.738       34.261        0.146      334.461        4.449      871.309
01/25/2014  10:31:00       15.509       89.239      105.552       49.447       53.983       42.262     2444.977     2914.150     1786.060        1.324        0.357       90.577       40.711        0.202      334.907        5.189      871.293
01/25/2014  10:32:00       32.622       52.725       60.492       49.587       38.594       40.784     2458.835     1489.463     1663.304        0.656        0.281       62.001       38.448        0.385      334.848        5.092      871.292
01/25/2014  10:33:00       19.470       28.842       86.496       42.008       49.744       27.458     1764.714     2474.421      753.965        0.684        0.250       34.799       25.487        0.536      335.304        5.849      871.279
01/25/2014  10:34:00       51.118       83.126       85.678       37.440       34.436       30.921     1401.721     1185.845      956.078        1.020        0.177       97.586       21.052        0.047      334.723        4.884      871.282
01/25/2014  10:35:00       59.715      -62.532       -3.689       29.445       53.682       34.400      867.020     2881.729     1183.381        0.621        0.247       86.465       29.989        0.120      334.818        5.042      871.273
01/25/2014  10:36:00       12.400       32.891       39.293       38.129       32.515       25.625     1453.820     1057.214      656.665        0.297        0.158       35.151       14.047        0.160      335.252        5.764      871.268
01/25/2014  10:37:00      -16.578       10.345       50.978       26.778       49.866       39.622      717.039     2486.579     1569.870        0.388        0.239       19.541       34.600        3.135      335.495        6.166      871.260
01/25/2014  10:38:00       76.891       78.815       50.068       29.393       24.421       33.170      863.975      596.368     1100.219        0.860        0.128      110.110       14.169        0.017      334.678        4.809      871.258
01/25/2014  10:39:00       61.775       24.592       41.402       33.507       41.309       36.738     1122.749     1706.442     1349.693        0.516        0.209       66.490       31.095        0.219      334.936        5.237      871.244
01/25/2014  10:40:00       34.263       13.870       18.091       30.289       42.564       30.354      917.422     1811.701      921.380        0.267        0.183       36.964       14.500        0.154      335.047        5.423      871.227
01/25/2014  10:41:00      -10.095       56.701       -2.045       37.359       31.503       35.100     1395.697      992.416     1231.992        0.347        0.181       57.593       29.136        0.256      334.984        5.319      871.215
01/25/2014  10:42:00       23.299       12.326       24.756       31.187       23.300       18.597      972.605      542.872      345.863        0.158        0.093       26.359       14.844        0.317      335.729        6.556      871.207
01/25/2014  10:43:00       99.390       63.801       33.824       59.404       35.755       43.824     3528.795     1278.424     1920.533        1.091        0.336      118.106       35.722        0.091      335.178        5.640      871.201
01/25/2014  10:44:00       59.595       83.429       47.844       37.410       30.622       30.710     1399.477      937.683      943.080        0.804        0.164      102.528       18.121        0.031      334.997        5.338      871.205
01/25/2014  10:45:00       17.186        2.285      -14.761       37.582       26.731       19.420     1412.407      714.570      377.149        0.151        0.125       17.337       13.273        0.586      334.774        4.969      871.206
01/25/2014  10:46:00       -8.247       -9.016       16.277       19.886       21.489       16.233      395.442      461.788      263.510        0.077        0.056       12.219       15.002        1.507      335.573        6.298      871.184
01/25/2014  10:47:00       11.404       27.120       35.754       31.065       29.360       29.997      965.053      862.003      899.810        0.243        0.136       29.420       24.942        0.719      335.810        6.692      871.172
01/25/2014  10:48:00        6.851       47.207       68.748       31.387       36.948       22.276      985.149     1365.181      496.199        0.492        0.142       47.701       13.921        0.085      335.620        6.375      871.161
01/25/2014  10:49:00        8.527       -9.922       28.282       27.695       56.321       30.931      767.029     3172.085      956.742        0.293        0.245       13.083       35.901        7.530      335.664        6.449      871.152
01/25/2014  10:50:00        1.735        3.934       32.762       20.719       43.619       33.555      429.273     1902.654     1125.940        0.227        0.173        4.299        8.126        3.572      336.084        7.149      871.135
01/25/2014  10:51:00        5.503      -13.012       43.182       35.176       71.573       42.601     1237.350     5122.704     1814.869        0.512        0.409       14.128       38.246        7.328      335.868        6.789      871.121
01/25/2014  10:52:00        7.030       27.964       61.091       40.786       44.240       38.242     1663.493     1957.219     1462.479        0.482        0.254       28.834       28.592        0.983      336.018        7.039      871.109
01/25/2014  10:53:00       14.201      -10.017       55.239       27.858       61.310       31.474      776.069     3758.948      990.602        0.444        0.276       17.378       29.374        2.857      335.974        6.965      871.098
01/25/2014  10:54:00       26.838       44.355       34.648       45.318       45.292       45.198     2053.710     2051.407     2042.904        0.502        0.307       51.843       28.574        0.304      335.455        6.100      871.100
01/25/2014  10:55:00       -0.856       38.851       48.148       33.313       43.600       38.297     1109.762     1900.970     1466.640        0.415        0.224       38.861       26.031        0.449      335.751        6.593      871.096
01/25/2014  10:56:00       32.632       44.311       36.115       46.157       45.198       25.475     2130.468     2042.900      648.952        0.458        0.241       55.030       19.640        0.127      335.604        6.350      871.083
01/25/2014  10:57:00       -6.687       24.835       56.141       15.351       30.846       21.808      235.643      951.452      475.604        0.274        0.083       25.719       15.387        0.358      336.202        7.345      871.064
01/25/2014  10:58:00       -5.308       39.866       58.934       18.639       25.792       14.235      347.413      665.213      202.626        0.315        0.061       40.218        9.620        0.057      335.727        6.553      871.049
01/25/2014  10:59:00        2.735       20.339       44.398       24.054       30.030       22.512      578.610      901.805      506.806        0.219        0.099       20.522       14.108        0.473      336.008        7.021      871.032
01/25/2014  11:00:00       -3.752        4.249       46.638       11.629       17.181       14.528      135.224      295.174      211.076        0.142        0.032        5.669       11.421        4.059      336.173        7.298      871.020
01/25/2014  11:01:00       40.606      -66.996        7.905       64.523       56.631       33.527     4163.192     3207.055     1124.035        0.735        0.425       78.341       39.585        0.255      335.779        6.641      871.010
01/25/2014  11:02:00       74.417      -91.965       -3.300       43.046       47.755       35.310     1852.981     2280.559     1246.795        0.969        0.269      118.302       24.225        0.042      335.676        6.468      870.997
01/25/2014  11:03:00       55.541      -26.580       24.690       69.691       73.578       40.852     4856.784     5413.720     1668.859        0.817        0.597       61.573       60.136        0.954      335.748        6.590      870.992
01/25/2014  11:04:00        6.185       67.532       80.019       35.506       33.982       24.763     1260.654     1154.752      613.196        0.701        0.151       67.814       19.807        0.085      336.105        7.184      870.979
01/25/2014  11:05:00       93.923       87.766       41.087       45.598       37.340       55.001     2079.155     1394.305     3025.063        1.235        0.325      128.547       30.640        0.057      335.641        6.410      870.958
01/25/2014  11:06:00       22.218       60.607       64.015       43.918       53.110       34.441     1928.786     2820.725     1186.172        0.710        0.297       64.551       30.595        0.225      336.101        7.177      870.939
01/25/2014  11:07:00       47.650       75.907       57.052       46.238       54.309       44.812     2137.997     2949.416     2008.092        0.919        0.355       89.624       29.871        0.111      335.875        6.800      870.932
01/25/2014  11:08:00       52.766       85.507       81.417       61.317       57.187       33.182     3759.782     3270.382     1101.054        1.243        0.407      100.478       30.700        0.093      335.717        6.537      870.907
01/25/2014  11:09:00       95.509       62.761       41.826       51.916       52.366       49.776     2695.318     2742.163     2477.639        1.136        0.396      114.284       44.948        0.155      335.413        6.031      870.904
01/25/2014  11:10:00       19.386       89.016       82.783       48.741       48.932       48.265     2375.725     2394.348     2329.463        1.112        0.355       91.103       34.705        0.145      336.074        7.132      870.885
01/25/2014  11:11:00       47.183       40.985       61.156       41.440       53.509       54.699     1717.306     2863.264     2991.962        0.761        0.379       62.498       38.279        0.375      335.935        6.901      870.887
01/25/2014  11:12:00       72.219       47.172       12.702       51.571       45.403       37.665     2659.557     2061.404     1418.659        0.687        0.307       86.260       21.253        0.061      335.691        6.493      870.872
01/25/2014  11:13:00       72.409       81.662       21.014       49.108       37.090       37.908     2411.583     1375.632     1437.018        0.879        0.261      109.141       30.486        0.078      335.701        6.510      870.856
01/25/2014  11:14:00       65.034       72.690       44.752       38.285       34.421       26.206     1465.740     1184.798      686.763        0.743        0.167       97.536       16.436        0.028      335.967        6.954      870.839
01/25/2014  11:15:00        0.865       60.082       87.869       39.889       76.724       50.005     1591.103     5886.569     2500.470        1.065        0.499       60.088       57.548        0.917      336.004        7.014      870.817
01/25/2014  11:16:00       40.480     -144.052      -29.760       37.061       46.955       31.587     1373.488     2204.748      997.745        1.392        0.229      149.632       13.314        0.008      335.782        6.644      870.810
01/25/2014  11:17:00       16.760      -60.369       22.506       41.582       67.959       43.411     1729.077     4618.413     1884.543        0.633        0.412       62.652       45.452        0.526      336.284        7.482      870.783
01/25/2014  11:18:00      -20.177      -27.510       51.275       50.222       57.590       32.600     2522.215     3316.606     1062.792        0.535        0.345       34.116       19.656        0.332      336.378        7.639      870.747
01/25/2014  11:19:00       -2.717       80.491       95.291       23.133       31.181       22.620      535.148      972.281      511.676        0.879        0.101       80.537       18.662        0.054      336.033        7.063      870.725
01/25/2014  11:20:00       17.823       13.502       44.973       21.448       33.245       15.970      460.034     1105.215      255.034        0.217        0.091       22.360       13.202        0.349      336.243        7.414      870.694
01/25/2014  11:21:00       -4.218       26.637       12.403       22.349       26.148       24.758      499.487      683.700      612.957        0.134        0.090       26.969       10.930        0.164      336.297        7.505      870.673
01/25/2014  11:22:00       -3.267       19.270       56.233       20.108       37.300       27.341      404.348     1391.322      747.555        0.304        0.127       19.546       15.031        0.591      336.463        7.781      870.652
01/25/2014  11:23:00       30.311       26.059       54.457       30.858       42.428       24.020      952.206     1800.108      576.959        0.395        0.166       39.973       23.534        0.347      336.345        7.584      870.643
01/25/2014  11:24:00       50.824       57.325       46.290       33.500       25.296       23.670     1122.228      639.893      560.290        0.517        0.116       76.611        7.645        0.010      336.184        7.315      870.613
01/25/2014  11:25:00       79.389       66.534       61.622       37.007       27.817       28.592     1369.547      773.788      817.498        0.874        0.148      103.582       17.537        0.029      335.994        7.000      870.592
01/25/2014  11:26:00       58.745       46.080       50.713       49.222       38.909       40.417     2422.790     1513.916     1633.564        0.686        0.279       74.661       18.435        0.061      336.080        7.143      870.575
01/25/2014  11:27:00        1.429       35.595      -14.560       32.600       24.259       16.333     1062.741      588.475      266.754        0.170        0.096       35.624       15.836        0.198      335.997        7.004      870.556
01/25/2014  11:28:00       10.392      -19.815       54.927       38.973       80.705       51.695     1518.927     6513.274     2672.389        0.711        0.535       22.375       45.194        4.080      336.611        8.029      870.526
01/25/2014  11:29:00       57.793       76.562       66.891       49.245       41.689       41.040     2425.118     1737.985     1684.254        0.976        0.292       95.926       28.075        0.086      336.229        7.391      870.510
01/25/2014  11:30:00      121.885       78.620       24.872       21.274       14.118       30.933      452.589      199.315      956.862        1.163        0.080      145.042       13.616        0.009      335.808        6.687      870.500
01/25/2014  11:31:00       99.371       70.454       31.894       26.512       25.440       34.062      702.876      647.191     1160.248        0.918        0.126      121.813       26.370        0.047      335.858        6.772      870.476
01/25/2014  11:32:00       71.461       67.332       52.623       71.428       55.440       47.569     5101.957     3073.612     2262.787        1.142        0.522       98.185       39.264        0.160      336.373        7.632      870.449
01/25/2014  11:33:00        7.850       60.580       90.324       34.517       45.451       33.889     1191.397     2065.824     1148.475        0.815        0.220       61.087       31.862        0.272      336.466        7.787      870.413
01/25/2014  11:34:00       50.890       48.788       55.953       36.546       41.383       33.628     1335.629     1712.562     1130.836        0.614        0.209       70.499       27.911        0.157      336.288        7.489      870.400
01/25/2014  11:35:00       33.634       16.846       25.564       25.528       50.390       27.801      651.654     2539.173      772.883        0.302        0.198       37.617       24.791        0.434      336.453        7.765      870.377
01/25/2014  11:36:00       -5.001       31.831       12.537       25.065       28.041       31.435      628.232      786.301      988.179        0.180        0.120       32.221       18.451        0.328      336.548        7.924      870.355
01/25/2014  11:37:00      -21.075      -49.015        2.476       22.092       51.308       18.590      488.065     2632.476      345.594        0.316        0.173       53.354       16.810        0.099      336.402        7.680      870.349
01/25/2014  11:38:00      -55.672      -92.743        4.104       32.000       33.634       23.403     1023.972     1131.260      547.719        0.721        0.135      108.169       20.384        0.036      336.179        7.306      870.324
01/25/2014  11:39:00      -30.782     -105.564       -8.674       25.194       33.890       17.796      634.750     1148.542      316.692        0.713        0.105      109.960        4.795        0.002      336.067        7.121      870.310
01/25/2014  11:40:00      -56.937     -119.440       -8.209       32.520       46.240       28.262     1057.549     2138.176      798.756        1.078        0.200      132.317       29.094        0.048      336.177        7.304      870.291
01/25/2014  11:41:00      -78.435     -112.024      -10.039       31.266       33.868       25.527      977.567     1147.051      651.605        1.079        0.139      136.753       23.665        0.030      336.168        7.290      870.279
01/25/2014  11:42:00      -66.970      -98.920      -16.637       21.815       28.605       14.901      475.915      818.266      222.055        0.803        0.076      119.457        9.396        0.006      336.130        7.224      870.259
01/25/2014  11:43:00      -51.005      -25.178      -14.114       27.435       34.050       17.591      752.673     1159.382      309.428        0.283        0.111       56.881       12.693        0.050      336.168        7.289      870.247
01/25/2014  11:44:00      -67.417       20.327        1.916       42.353       38.744       25.724     1793.762     1501.088      661.728        0.446        0.198       70.414       22.636        0.103      336.516        7.868      870.215
01/25/2014  11:45:00      -50.132      -50.939      -13.248       39.858       27.718       14.269     1588.630      768.314      203.601        0.392        0.128       71.470        8.192        0.013      336.159        7.273      870.198
01/25/2014  11:46:00      -37.538      -34.106        9.137       69.223       55.600       28.283     4791.858     3091.404      799.944        0.567        0.434       50.718       31.359        0.382      336.623        8.049      870.161
01/25/2014  11:47:00      -72.395      -52.074        7.963       62.018       45.934       35.444     3846.200     2109.965     1256.243        0.761        0.361       89.178       37.090        0.173      336.521        7.879      870.144
01/25/2014  11:48:00      -88.101      -28.159       -3.540       56.873       32.267       28.253     3234.503     1041.154      798.227        0.682        0.254       92.492       30.492        0.109      336.481        7.811      870.110
01/25/2014  11:49:00     -107.625       60.763      -22.326       26.059       25.069       16.721      679.052      628.430      279.606        0.868        0.079      123.593       10.842        0.008      336.373        7.631      870.080
01/25/2014  11:50:00     -101.366       -2.202      -14.831       29.972       36.007       16.233      898.348     1296.485      263.522        0.648        0.123      101.390       10.577        0.011      336.425        7.718      870.053
01/25/2014  11:51:00      -92.103      -36.468      -15.230       24.720       25.932       22.887      611.079      672.493      523.813        0.593        0.090       99.060       15.913        0.026      336.325        7.550      870.021
01/25/2014  11:52:00      -75.900      -24.105      -12.411       31.189       23.987       17.295      972.783      575.355      299.100        0.417        0.092       79.635       10.952        0.019      336.477        7.803      870.005
01/25/2014  11:53:00      -48.249       11.092      -28.684       38.195       30.846       22.618     1458.873      951.468      511.591        0.310        0.146       49.508       18.168        0.135      336.531        7.896      869.977
01/25/2014  11:54:00       11.557      -23.902      -21.140       10.717       10.663       10.099      114.849      113.710      101.984        0.074        0.017       26.549        8.005        0.091      336.589        7.993      869.962
01/25/2014  11:55:00      -39.038       21.946      -10.949       17.266       22.643       13.237      298.126      512.713      175.231        0.156        0.049       44.784        7.248        0.026      336.546        7.920      869.924
01/25/2014  11:56:00      -64.717       19.572      -14.865       43.844       26.860       20.019     1922.300      721.444      400.761        0.392        0.152       67.612       19.813        0.086      336.700        8.178      869.906
01/25/2014  11:57:00      -34.412       -2.072        3.654       21.090       40.622       29.075      444.769     1650.175      845.345        0.207        0.147       34.474       24.741        0.515      336.680        8.145      869.893
01/25/2014  11:58:00       -6.050        0.941       17.405       22.541       26.322       17.959      508.099      692.858      322.530        0.093        0.076        6.123       12.636        4.260      337.402        9.353      869.889
01/25/2014  11:59:00      -47.227       49.308       -9.814       36.559       45.040       24.595     1336.566     2028.618      604.900        0.436        0.199       68.277       25.806        0.143      336.933        8.568      869.879
01/25/2014  12:00:00      -35.875       51.908        1.212       26.139       29.410       20.880      683.261      864.940      435.992        0.298        0.099       63.099       15.228        0.058      337.260        9.115      869.860
01/25/2014  12:01:00      -26.813       83.878       -9.897       35.207       41.247       27.482     1239.542     1701.322      755.251        0.577        0.185       88.060       19.902        0.051      336.861        8.447      869.862
01/25/2014  12:02:00      -10.445       76.349        3.278       33.096       39.680       29.959     1095.376     1574.542      897.515        0.476        0.178       77.060       23.928        0.096      337.068        8.793      869.836
01/25/2014  12:03:00        1.149       44.783       -2.239       15.398       24.046       17.949      237.085      578.202      322.153        0.157        0.057       44.797       10.358        0.053      337.063        8.785      869.824
01/25/2014  12:04:00      -18.499       78.070       -9.424       23.879       38.340       20.828      570.228     1469.952      433.818        0.450        0.124       80.232       11.907        0.022      336.968        8.625      869.797
01/25/2014  12:05:00       -1.115       10.295       14.505       20.425       30.373       21.928      417.171      922.515      480.830        0.107        0.091       10.355       16.234        2.458      337.664        9.791      869.788
01/25/2014  12:06:00       19.561       44.629        4.491       28.761       37.678       27.233      827.187     1419.641      741.623        0.269        0.149       48.728       20.649        0.180      337.305        9.190      869.768
01/25/2014  12:07:00       45.014       15.748        1.379       21.740       27.198       22.943      472.632      739.738      526.369        0.201        0.087       47.689       11.755        0.061      336.932        8.566      869.753
01/25/2014  12:08:00       10.533        6.416        8.260       16.886       21.807       25.003      285.150      475.563      625.158        0.080        0.069       12.333        7.140        0.335      337.302        9.184      869.734
01/25/2014  12:09:00      -22.949        2.333        3.879       31.224       19.059       20.995      974.958      363.238      440.803        0.116        0.089       23.067       23.262        1.017      337.459        9.448      869.716
01/25/2014  12:10:00      -72.711       23.063      -22.985       20.934       25.214       11.157      438.240      635.768      124.468        0.377        0.060       76.281        5.326        0.005      336.841        8.413      869.697
01/25/2014  12:11:00      -70.135       16.425      -17.695       28.308       16.731       14.376      801.341      279.923      206.664        0.339        0.064       72.032        8.663        0.014      336.992        8.664      869.678
01/25/2014  12:12:00      -76.197       -5.763       -4.549       26.919       35.018       22.657      724.646     1226.255      513.346        0.416        0.123       76.415       14.220        0.035      337.154        8.937      869.671
01/25/2014  12:13:00      -56.649       60.188      -16.770       26.479       48.942       31.304      701.143     2395.279      979.916        0.559        0.204       82.654       13.764        0.028      336.863        8.451      869.646
01/25/2014  12:14:00       -8.023       57.138       12.918       37.136       47.904       26.795     1379.052     2294.750      717.955        0.394        0.220       57.699       24.793        0.185      337.605        9.693      869.645
01/25/2014  12:15:00       27.699       49.450       18.018       43.026       49.140       32.181     1851.217     2414.693     1035.596        0.442        0.265       56.680       32.016        0.319      337.353        9.270      869.624
01/25/2014  12:16:00      -12.392      119.822      -16.380       16.876       34.118       16.896      284.791     1164.027      285.461        0.826        0.087      120.461       13.382        0.012      337.053        8.768      869.617
01/25/2014  12:17:00      -11.886        5.358      -11.778       22.608       25.693       15.074      511.104      660.120      227.238        0.085        0.070       13.038       10.478        0.646      337.380        9.314      869.587
01/25/2014  12:18:00      -40.934       -2.168        1.726       34.713       39.379       21.981     1205.019     1550.714      483.165        0.246        0.162       40.991       20.217        0.243      337.650        9.767      869.570
01/25/2014  12:19:00      -58.428       70.720      -18.043       32.590       35.208       25.881     1062.126     1239.600      669.827        0.586        0.149       91.734       25.306        0.076      337.245        9.090      869.550
01/25/2014  12:20:00      -23.218       66.723        4.736       46.179       40.764       29.726     2132.518     1661.739      883.623        0.484        0.234       70.647       26.182        0.137      337.524        9.556      869.534
01/25/2014  12:21:00        1.048       44.636       25.357       33.758       37.910       32.404     1139.601     1437.183     1050.003        0.313        0.181       44.648       25.942        0.338      337.895       10.180      869.515
01/25/2014  12:22:00       -6.879      110.305      -11.130       22.632       65.242       29.241      512.211     4256.470      855.060        0.898        0.281      110.519       31.813        0.083      337.315        9.206      869.510
01/25/2014  12:23:00        1.602       38.923       11.484       23.739       41.111       27.346      563.537     1690.134      747.813        0.232        0.150       38.956       27.081        0.483      337.803       10.025      869.501
01/25/2014  12:24:00       16.703       56.344        7.768       27.017       30.036       21.416      729.905      902.172      458.635        0.280        0.105       58.768       18.402        0.098      337.543        9.589      869.482
01/25/2014  12:25:00       10.857       27.680       39.412       27.799       29.408       23.585      772.758      864.803      556.267        0.232        0.110       29.733       19.990        0.452      338.237       10.752      869.461
01/25/2014  12:26:00      -10.697       47.886       34.438       29.933       40.234       41.872      895.966     1618.759     1753.248        0.393        0.213       49.066       17.106        0.122      337.859       10.118      869.432
01/25/2014  12:27:00       -7.103      126.885      -11.033       22.430       55.751       23.694      503.086     3108.120      561.411        1.022        0.209      127.084       26.849        0.045      337.444        9.423      869.416
01/25/2014  12:28:00      -12.796      152.449      -12.535       32.232       37.221       29.746     1038.871     1385.394      884.851        1.343        0.165      152.985       23.886        0.024      337.319        9.214      869.379
01/25/2014  12:29:00       -1.486      139.712      -15.914       23.817       34.209       21.109      567.227     1170.246      445.600        1.098        0.109      139.720       18.829        0.018      337.284        9.154      869.366
01/25/2014  12:30:00      -25.369       75.214      -10.214       23.137       29.931       19.580      535.310      895.864      383.384        0.411        0.091       79.377       10.323        0.017      337.495        9.508      869.346
01/25/2014  12:31:00      -25.663       48.106        2.567       27.213       34.063       25.138      740.549     1160.302      631.895        0.276        0.127       54.523       18.686        0.117      338.069       10.470      869.331
01/25/2014  12:32:00       -1.166       40.881       17.027       25.076       41.185       26.712      628.808     1696.232      713.548        0.250        0.152       40.898       23.464        0.329      338.120       10.555      869.317
01/25/2014  12:33:00       11.249       33.630       36.808       50.613       38.705       34.518     2561.651     1498.043     1191.478        0.393        0.263       35.462       27.350        0.595      337.989       10.337      869.298
01/25/2014  12:34:00       42.257       69.698        0.511       45.703       57.348       35.259     2088.752     3288.820     1243.226        0.663        0.331       81.508       29.260        0.129      337.606        9.692      869.290
01/25/2014  12:35:00       52.563       61.358        1.766       46.651       43.333       29.584     2176.308     1877.785      875.191        0.573        0.246       80.793       20.551        0.065      337.556        9.610      869.272
01/25/2014  12:36:00       34.362       68.668       -2.723       46.895       44.300       31.728     2199.112     1962.533     1006.645        0.554        0.258       76.786       24.855        0.105      337.800       10.019      869.259
01/25/2014  12:37:00       18.305       87.578       -8.915       25.102       34.689       25.255      630.127     1203.302      637.832        0.528        0.124       89.471       16.616        0.034      337.812       10.039      869.236
01/25/2014  12:38:00       22.307       69.478       23.138       30.045       63.047       35.529      902.674     3974.914     1262.288        0.600        0.307       72.971       37.641        0.266      337.966       10.297      869.218
01/25/2014  12:39:00       85.689      -32.039       26.789       49.967       92.772       58.672     2496.744     8606.643     3442.459        1.181        0.727       91.483       66.258        0.525      337.667        9.795      869.196
01/25/2014  12:40:00       65.818      -77.542       -0.994       46.919       99.424       33.416     2201.374     9885.210     1116.604        1.177        0.660      101.709       41.949        0.170      337.709        9.867      869.155
01/25/2014  12:41:00       27.480      -60.742        2.253       75.982       74.317       45.288     5773.328     5522.994     2051.041        0.890        0.667       66.669       38.033        0.325      338.003       10.358      869.138
01/25/2014  12:42:00       59.664     -118.126       12.191       41.716       86.563       41.263     1740.197     7493.135     1702.640        1.430        0.547      132.338       39.487        0.089      337.997       10.348      869.105
01/25/2014  12:43:00       61.939      -40.630       25.100       53.706       85.542       67.660     2884.331     7317.401     4577.830        1.045        0.739       74.075       64.740        0.764      338.052       10.443      869.091
01/25/2014  12:44:00       51.123      -87.299       -4.885       49.511       59.204       54.981     2451.378     3505.135     3022.891        0.962        0.449      101.167       46.250        0.209      337.847       10.098      869.060
01/25/2014  12:45:00       37.484       44.720       93.450       56.179       71.746       46.110     3156.047     5147.442     2126.161        1.128        0.521       58.352       44.266        0.575      338.099       10.520      869.032
01/25/2014  12:46:00       46.204        8.707       54.833       60.130       54.077       47.038     3615.571     2924.337     2212.564        0.698        0.438       47.017       38.138        0.658      337.917       10.215      869.019
01/25/2014  12:47:00       45.297        0.992       43.110       51.933       69.042       54.384     2697.073     4766.863     2957.641        0.716        0.521       45.308       60.049        1.757      337.640        9.751      869.015
01/25/2014  12:48:00      -11.902      -31.563       18.199       28.641       39.115       21.343      820.283     1530.017      455.528        0.214        0.140       33.733       14.567        0.186      337.864       10.126      868.989
01/25/2014  12:49:00      -25.062       59.093      -23.114       19.109       34.483       16.148      365.171     1189.092      260.755        0.323        0.091       64.188        9.998        0.024      337.552        9.603      868.976
01/25/2014  12:50:00        9.379      -29.438        6.609       28.971       31.436       20.095      839.340      988.252      403.805        0.161        0.112       30.896       13.367        0.187      337.829       10.067      868.956
01/25/2014  12:51:00       17.453      105.843      110.896       48.459       53.483       39.350     2348.322     2860.438     1548.437        1.528        0.338      107.272       35.207        0.108      338.073       10.477      868.927
01/25/2014  12:52:00      133.147       92.616       43.289       58.460       36.990       41.697     3417.611     1368.227     1738.674        1.735        0.326      162.191       28.728        0.031      337.833       10.074      868.926
01/25/2014  12:53:00       54.751       73.245       47.056       50.965       38.784       29.986     2597.426     1504.167      899.164        0.779        0.250       91.447       33.887        0.137      337.854       10.109      868.925
01/25/2014  12:54:00       15.320       34.949       -7.088       28.849       42.962       36.775      832.270     1845.700     1352.401        0.277        0.202       38.159       26.746        0.491      337.696        9.845      868.907
01/25/2014  12:55:00       -2.733       16.949       -7.695       17.156       17.663       15.972      294.336      311.966      255.118        0.061        0.043       17.168        8.755        0.260      337.876       10.148      868.878
01/25/2014  12:56:00       21.382       18.314       26.700       27.497       22.590       16.868      756.100      510.321      284.533        0.153        0.078       28.153       12.469        0.196      338.215       10.715      868.846
01/25/2014  12:57:00       63.000       55.364       10.613       61.742       31.975       34.946     3812.080     1022.423     1221.193        0.660        0.303       83.869       17.869        0.045      338.063       10.460      868.819
01/25/2014  12:58:00       21.660       72.223       25.355       49.626       35.167       36.200     2462.713     1236.683     1310.454        0.567        0.250       75.401       14.816        0.039      338.297       10.855      868.786
01/25/2014  12:59:00      104.126       99.367        3.695       55.880       42.043       42.068     3122.527     1767.600     1769.739        1.369        0.333      143.930       25.214        0.031      337.791       10.003      868.760
01/25/2014  13:00:00       41.644       80.458       -2.430       50.432       25.178       31.254     2543.409      633.910      976.783        0.618        0.208       90.596       27.247        0.090      337.594        9.672      868.758
01/25/2014  13:01:00       18.041       44.984        2.621       19.007       37.154       26.794      361.262     1380.431      717.933        0.241        0.123       48.467       22.109        0.208      338.011       10.373      868.737
01/25/2014  13:02:00       20.567       33.421       45.184       47.044       56.548       37.716     2213.154     3197.727     1422.499        0.521        0.342       39.242       33.541        0.731      338.237       10.752      868.718
01/25/2014  13:03:00       27.262        3.502       73.598       56.560      121.358       69.635     3199.056    14727.790     4849.030        1.447        1.139       27.486       82.216        8.947      338.110       10.539      868.697
01/25/2014  13:04:00       76.021      -49.437       25.339       65.282      109.320       60.413     4261.757    11950.836     3649.767        1.436        0.993       90.682       70.876        0.611      337.889       10.167      868.696
01/25/2014  13:05:00       57.006      -98.245       11.731       32.039       36.295       22.187     1026.495     1317.307      492.267        0.794        0.142      113.586       21.289        0.035      337.779        9.983      868.703
01/25/2014  13:06:00       17.038      -17.458       24.832       47.448       51.652       31.186     2251.302     2667.950      972.572        0.355        0.295       24.395       26.318        1.164      338.358       10.956      868.693
01/25/2014  13:07:00       71.670     -125.283        4.440       58.807       46.103       35.721     3458.212     2125.496     1276.013        1.385        0.343      144.335       25.013        0.030      338.185       10.664      868.676
01/25/2014  13:08:00       62.546     -146.151      -15.898       68.857       68.839       43.972     4741.288     4738.777     1933.520        1.847        0.571      158.972       27.924        0.031      338.066       10.464      868.656
01/25/2014  13:09:00       38.064      -58.914       -2.784       50.616       83.715       40.846     2561.949     7008.263     1668.376        0.808        0.562       70.141       34.157        0.237      338.168       10.636      868.642
01/25/2014  13:10:00       53.324      -98.663       -4.760       65.944       84.100       39.555     4348.603     7072.851     1564.608        1.279        0.649      112.151       47.282        0.178      338.227       10.734      868.632
01/25/2014  13:11:00       -0.194      -14.399       13.563       17.801       27.277       28.518      316.876      744.027      813.277        0.113        0.094       14.400       19.277        1.792      338.614       11.386      868.623
01/25/2014  13:12:00      -22.029       -9.783        7.017       20.204       23.186       23.319      408.208      537.589      543.770        0.106        0.074       24.104       16.143        0.449      338.673       11.484      868.615
01/25/2014  13:13:00      -33.979       14.945        6.314       30.031       51.394       23.579      901.843     2641.328      555.976        0.276        0.205       37.120        9.600        0.067      338.435       11.085      868.606
01/25/2014  13:14:00       -1.849       61.683      -10.319       21.669       24.937       23.769      469.546      621.841      564.986        0.279        0.083       61.711       18.687        0.092      338.253       10.779      868.581
01/25/2014  13:15:00       29.823       34.098      -11.988       27.106       37.360       22.760      734.753     1395.760      517.999        0.242        0.132       45.300       13.566        0.090      338.219       10.723      868.566
01/25/2014  13:16:00        9.803      -24.473        8.572       36.169       42.753       19.590     1308.174     1827.798      383.782        0.214        0.176       26.364       23.742        0.811      338.535       11.252      868.563
01/25/2014  13:17:00       95.916      -97.684       -7.420       38.194       51.023       40.136     1458.780     2603.394     1610.917        1.223        0.284      136.902       31.780        0.054      337.956       10.280      868.555
01/25/2014  13:18:00       62.798      -50.657        7.910       32.687       65.955       37.394     1068.410     4350.022     1398.343        0.669        0.341       80.683       30.603        0.144      337.927       10.234      868.555
01/25/2014  13:19:00       53.827       -0.615       32.736       40.756       46.153       41.799     1661.035     2130.078     1747.161        0.475        0.277       53.831       32.222        0.358      338.151       10.609      868.531
01/25/2014  13:20:00       47.530       41.753       19.593       44.830       26.964       27.043     2009.719      727.037      731.323        0.393        0.173       63.265       20.968        0.110      338.249       10.772      868.507
01/25/2014  13:21:00       32.391       18.906       36.936       39.446       24.257       23.449     1555.966      588.408      549.865        0.273        0.135       37.504       17.506        0.218      338.514       11.218      868.501
01/25/2014  13:22:00      108.393       74.551       22.740       46.578       38.094       29.696     2169.554     1451.165      881.865        1.116        0.225      131.555        8.695        0.004      338.233       10.746      868.495
01/25/2014  13:23:00        3.977        6.266        4.082       27.320       17.672       19.379      746.400      312.291      375.535        0.075        0.072        7.421       11.464        2.386      338.361       10.962      868.469
01/25/2014  13:24:00       18.995       59.199       60.550       64.673       46.901       44.974     4182.546     2199.669     2022.688        0.797        0.420       62.172       35.520        0.326      338.511       11.214      868.446
01/25/2014  13:25:00       72.766       65.254       26.908       40.285       42.002       41.182     1622.907     1764.172     1695.960        0.768        0.254       97.740       28.261        0.084      338.183       10.660      868.439
01/25/2014  13:26:00       52.868        2.672        9.371       32.414       19.326       28.509     1050.695      373.493      812.784        0.256        0.112       52.935       18.416        0.121      338.095       10.513      868.434
01/25/2014  13:27:00       11.093       -4.014       -1.276       18.054       26.901       20.620      325.955      723.657      425.179        0.081        0.074       11.797       10.938        0.860      338.312       10.877      868.414
01/25/2014  13:28:00       14.434       18.976       11.153       15.332       31.825       23.357      235.085     1012.827      545.544        0.124        0.090       23.842       23.941        1.008      338.494       11.183      868.387
01/25/2014  13:29:00       42.151       26.708       34.659       33.558       28.559       37.172     1126.122      815.603     1381.764        0.351        0.166       49.900       19.917        0.159      338.457       11.122      868.382
01/25/2014  13:30:00       30.127       49.539      -15.294       26.862       24.447       21.543      721.551      597.634      464.097        0.269        0.089       57.980       16.029        0.076      338.304       10.864      868.374
01/25/2014  13:31:00       33.967       48.166        1.039       41.842       39.754       29.112     1750.778     1580.370      847.507        0.383        0.209       58.938       24.851        0.178      338.450       11.110      868.351
01/25/2014  13:32:00        9.693       48.229        1.365       28.408       49.971       27.392      806.992     2497.126      750.342        0.324        0.203       49.194       22.331        0.206      338.608       11.376      868.330
01/25/2014  13:33:00       17.259       51.934       60.430       39.708       41.991       36.881     1576.759     1763.254     1360.184        0.567        0.235       54.727       36.207        0.438      338.899       11.865      868.320
01/25/2014  13:34:00       19.322      -12.669       11.184       28.803       51.982       30.375      829.591     2702.141      922.640        0.256        0.223       23.105       21.171        0.840      338.695       11.520      868.312
01/25/2014  13:35:00       50.385       -3.692       60.080       75.890       89.356       71.834     5759.309     7984.455     5160.101        1.253        0.945       50.520       67.317        1.775      338.827       11.744      868.294
01/25/2014  13:36:00       37.369       61.795       85.444       46.463       62.737       46.076     2158.767     3935.991     2123.010        1.037        0.411       72.215       44.944        0.387      338.441       11.094      868.305
01/25/2014  13:37:00       39.414     -112.146       -5.202       32.866       37.532       24.879     1080.156     1408.668      618.971        0.863        0.155      118.870       15.627        0.017      338.381       10.993      868.297
01/25/2014  13:38:00       47.205      -57.565        5.571       46.592       54.583       49.331     2170.777     2979.267     2433.597        0.658        0.379       74.445       40.429        0.295      338.667       11.474      868.277
01/25/2014  13:39:00      123.075     -130.612      -31.734       46.248       68.151       30.809     2138.848     4644.593      949.179        2.047        0.387      179.463       27.895        0.024      338.371       10.976      868.281
01/25/2014  13:40:00       65.716      -71.699       23.219       78.663       72.806       58.613     6187.796     5300.682     3435.487        1.246        0.746       97.259       56.877        0.342      338.729       11.579      868.287
01/25/2014  13:41:00      142.268      -59.341       16.187       67.416      141.525       70.053     4544.919    20029.334     4907.412        2.675        1.474      154.148       92.198        0.358      338.428       11.070      868.287
01/25/2014  13:42:00       58.795       31.492       33.056       59.785       51.402       33.335     3574.235     2642.214     1111.228        0.643        0.366       66.698       23.827        0.128      338.643       11.434      868.289
01/25/2014  13:43:00       60.024       49.802       56.593       47.111       89.550       48.799     2219.481     8019.218     2381.317        1.095        0.631       77.995       52.400        0.451      338.716       11.557      868.285
01/25/2014  13:44:00       37.866       12.663       29.450       63.249       60.016       42.839     4000.494     3601.925     1835.166        0.595        0.472       39.927       40.163        1.012      338.782       11.668      868.283
01/25/2014  13:45:00       51.572       43.269       31.099       54.909       51.455       39.870     3014.996     2647.658     1589.585        0.637        0.363       67.319       29.185        0.188      338.720       11.562      868.279
01/25/2014  13:46:00       62.875      -39.380       18.946       64.329       90.855       53.427     4138.178     8254.548     2854.466        1.055        0.762       74.189       60.894        0.674      338.647       11.439      868.279
01/25/2014  13:47:00      120.785      -30.811       20.153       69.101       52.146       45.258     4774.915     2719.166     2048.249        1.274        0.477      124.652       40.480        0.105      338.428       11.072      868.279
01/25/2014  13:48:00       67.821        4.700        5.792       40.154       41.855       30.254     1612.334     1751.869      915.290        0.447        0.214       67.984       22.239        0.107      338.387       11.005      868.273
01/25/2014  13:49:00       38.191       32.212       30.419       36.156       61.245       40.893     1307.282     3750.911     1672.272        0.507        0.337       49.962       41.886        0.703      338.644       11.436      868.264
01/25/2014  13:50:00       88.344     -115.111      -30.943       42.298       55.743       27.372     1789.090     3107.271      749.228        1.383        0.282      145.104       23.311        0.026      338.401       11.028      868.255
01/25/2014  13:51:00       68.524      -73.063       -3.226       54.569       74.894       47.154     2977.814     5609.108     2223.484        1.043        0.541      100.168       50.910        0.258      338.690       11.512      868.258
01/25/2014  13:52:00       43.368       49.146       65.547       78.702       43.052       44.374     6194.060     1853.454     1969.064        0.930        0.501       65.545       44.991        0.471      338.883       11.838      868.255
01/25/2014  13:53:00      118.266       79.144       25.528       53.881       47.662       36.343     2903.162     2271.626     1320.787        1.370        0.325      142.305       22.361        0.025      338.436       11.086      868.265
01/25/2014  13:54:00       86.233       43.950       22.441       60.344       37.811       29.863     3641.458     1429.696      891.806        0.792        0.298       96.787       16.842        0.030      338.387       11.004      868.263
01/25/2014  13:55:00        2.770       16.160       10.669       20.106       28.098       24.611      404.266      789.474      605.718        0.109        0.090       16.396       21.710        1.753      338.607       11.373      868.247
01/25/2014  13:56:00       54.581       43.833       26.493       19.520       13.282       19.663      381.012      176.424      386.632        0.327        0.047       70.003        8.430        0.015      338.583       11.333      868.243
01/25/2014  13:57:00       22.232       24.464       11.497       32.029       13.191       18.519     1025.853      173.993      342.940        0.138        0.077       33.057        5.028        0.023      338.645       11.439      868.241
01/25/2014  13:58:00       43.106       68.810       61.180       49.743       53.263       61.971     2474.340     2836.928     3840.430        0.974        0.458       81.197       56.736        0.488      338.584       11.333      868.243
01/25/2014  13:59:00       41.022      128.808      118.158       56.046       50.353       45.110     3141.123     2535.469     2034.911        1.997        0.386      135.183       40.250        0.089      338.513       11.213      868.242
01/25/2014  14:00:00       36.987       20.941       36.225       46.019       74.856       40.475     2117.734     5603.428     1638.252        0.624        0.468       42.504       45.179        1.130      338.624       11.402      868.244
01/25/2014  14:01:00      114.821      -40.646       46.861       71.982       60.414       42.941     5181.426     3649.880     1843.904        1.385        0.534      121.803       44.437        0.133      338.710       11.547      868.232
01/25/2014  14:02:00      110.471      -19.560       52.197       54.269       78.716       48.235     2945.176     6196.194     2326.622        1.339        0.573      112.189       48.390        0.186      338.666       11.472      868.228
01/25/2014  14:03:00       51.677       20.996       35.374       62.406       81.378       41.494     3894.467     6622.389     1721.775        0.830        0.612       55.779       41.847        0.563      338.633       11.416      868.227
01/25/2014  14:04:00       95.515     -137.710      -29.966       45.672       53.801       30.347     2085.961     2894.565      920.961        1.744        0.295      167.592       20.769        0.015      338.648       11.441      868.224
01/25/2014  14:05:00       58.863      -41.553       25.274       57.551       55.316       38.303     3312.085     3059.856     1467.113        0.683        0.392       72.052       44.954        0.389      338.863       11.803      868.221
01/25/2014  14:06:00       40.859     -113.326      -19.561       47.567       59.407       34.671     2262.602     3529.250     1202.067        1.094        0.350      120.467       37.224        0.095      338.863       11.803      868.200
01/25/2014  14:07:00       96.052      -61.319        7.738       41.824       63.780       54.391     1749.253     4067.858     2958.378        1.091        0.439      113.956       55.280        0.235      338.727       11.576      868.186
01/25/2014  14:08:00       30.325       -6.118       26.583       49.191       41.572       34.085     2419.750     1728.220     1161.786        0.349        0.265       30.936       32.591        1.110      338.893       11.853      868.179
01/25/2014  14:09:00       25.514      -63.165        5.155       30.409       42.422       32.483      924.717     1799.600     1055.132        0.422        0.189       68.123       30.748        0.204      338.790       11.681      868.171
01/25/2014  14:10:00       30.567     -129.775      -14.172       22.189       50.403       19.249      492.373     2540.504      370.515        1.069        0.170      133.326       10.143        0.006      338.497       11.188      868.167
01/25/2014  14:11:00      -50.237      -57.102       -8.777       36.280       47.011       19.548     1316.217     2210.048      382.123        0.488        0.195       76.055       12.926        0.029      338.641       11.430      868.148
01/25/2014  14:12:00      -14.455       17.031       17.578       18.974       15.938       17.402      359.996      254.014      302.821        0.086        0.046       22.339        8.370        0.140      339.181       12.339      868.148
01/25/2014  14:13:00       33.461       15.575        3.447       29.246       14.630       21.369      855.346      214.037      456.653        0.145        0.076       36.908       12.107        0.108      339.005       12.043      868.136
01/25/2014  14:14:00       51.266       47.282       15.988       62.599       37.441       29.102     3918.695     1401.832      846.916        0.564        0.308       69.741       15.984        0.053      339.027       12.080      868.131
01/25/2014  14:15:00      118.497       95.352        8.257       46.773       31.706       28.695     2187.695     1005.281      823.385        1.361        0.201      152.097       16.532        0.012      338.711       11.548      868.128
01/25/2014  14:16:00       68.407       61.595      -14.186       46.182       29.081       25.619     2132.748      845.683      656.358        0.615        0.182       92.051       15.155        0.027      338.732       11.583      868.119
01/25/2014  14:17:00       25.730       12.280        4.989       27.756       29.404       19.575      770.419      864.617      383.172        0.143        0.101       28.510       16.297        0.327      338.973       11.990      868.104
01/25/2014  14:18:00       25.658      100.402        0.774       46.214       81.227       24.689     2135.712     6597.788      609.560        1.004        0.467      103.628       32.573        0.099      338.951       11.949      868.091
01/25/2014  14:19:00       49.314       54.022       31.198       48.727       39.299       38.836     2374.306     1544.396     1508.242        0.587        0.271       73.145       35.062        0.230      339.140       12.270      868.077
01/25/2014  14:20:00        8.270      -90.105       15.927       33.153       43.136       31.607     1099.108     1860.693      999.018        0.620        0.198       90.484       24.538        0.074      339.293       12.528      868.071
01/25/2014  14:21:00       31.429       38.903       27.622       35.892       39.390       33.139     1288.267     1551.560     1098.195        0.360        0.197       50.013       24.345        0.237      339.221       12.406      868.077
01/25/2014  14:22:00       98.145       78.160       42.474       62.748       39.308       51.081     3937.354     1545.118     2609.313        1.282        0.405      125.464       45.099        0.129      338.947       11.944      868.080
01/25/2014  14:23:00       42.282       78.981       82.340       54.497       47.911       35.352     2969.940     2295.500     1249.732        1.066        0.326       89.587       34.205        0.146      338.980       12.002      868.081
01/25/2014  14:24:00       19.274       62.016       68.153       36.005       34.474       34.309     1296.386     1188.456     1177.094        0.626        0.183       64.943       28.638        0.194      339.074       12.157      868.068
01/25/2014  14:25:00       25.588        0.110       15.638       48.517       38.638       36.981     2353.851     1492.867     1367.622        0.306        0.261       25.588       29.638        1.342      339.283       12.511      868.064
01/25/2014  14:26:00       24.999       48.751        5.713       40.926       26.751       29.603     1674.968      715.604      876.342        0.315        0.163       54.787       18.588        0.115      338.920       11.900      868.065
01/25/2014  14:27:00       12.182       96.619      -21.360       23.387       25.639       15.191      546.973      657.363      230.772        0.569        0.072       97.384        9.943        0.010      338.795       11.689      868.058
01/25/2014  14:28:00      -15.257       96.890       -8.895       33.160       37.347       20.795     1099.595     1394.788      432.444        0.631        0.146       98.084       21.730        0.049      338.905       11.875      868.047
01/25/2014  14:29:00        5.978       44.921        5.492       30.249       27.209       22.963      914.997      740.337      527.295        0.213        0.109       45.317       21.224        0.219      339.093       12.190      868.023
01/25/2014  14:30:00        5.566       43.085        3.063       18.815       31.658       19.502      353.988     1002.241      380.324        0.182        0.087       43.443       17.798        0.168      339.088       12.182      868.006
01/25/2014  14:31:00       31.472       52.369       -1.177       33.134       35.250       21.920     1097.857     1242.581      480.465        0.328        0.141       61.098       11.266        0.034      339.153       12.290      867.992
01/25/2014  14:32:00       82.607       56.641       12.509       52.023       41.319       38.799     2706.356     1707.236     1505.356        0.805        0.296      100.161       28.831        0.083      339.193       12.359      867.989
01/25/2014  14:33:00        6.001       39.025       38.130       34.649       28.203       21.554     1200.523      795.432      464.570        0.274        0.123       39.484       20.072        0.258      339.524       12.916      867.979
01/25/2014  14:34:00       12.818       42.075       44.161       42.417       43.838       41.306     1799.217     1921.747     1706.153        0.466        0.271       43.984       29.520        0.450      339.381       12.676      867.965
01/25/2014  14:35:00       42.888       51.498        0.348       33.846       30.357       22.055     1145.533      921.560      486.407        0.352        0.128       67.018       22.619        0.114      338.874       11.821      867.960
01/25/2014  14:36:00       24.207       38.135        6.568       53.261       31.781       27.503     2836.742     1010.016      756.401        0.334        0.230       45.169       16.505        0.134      339.208       12.383      867.954
01/25/2014  14:37:00       92.518       51.399       32.464       57.175       36.014       40.869     3269.035     1297.039     1670.273        0.924        0.312      105.836       39.274        0.138      339.190       12.353      867.954
01/25/2014  14:38:00        5.106        3.050       28.405       42.667       41.756       38.087     1820.501     1743.598     1450.627        0.293        0.251        5.948       35.117       34.860      339.663       13.151      867.935
01/25/2014  14:39:00        3.435        3.606       23.330       34.721       52.478       26.150     1205.574     2753.978      683.805        0.261        0.232        4.980       26.359       28.015      339.519       12.908      867.932
01/25/2014  14:40:00       15.684      -90.603      -13.343       41.250       24.290       21.462     1701.567      590.021      460.628        0.569        0.138       91.950       16.807        0.033      339.238       12.433      867.916
01/25/2014  14:41:00       43.128        1.777       20.863       35.361       50.673       31.727     1250.366     2567.717     1006.573        0.356        0.241       43.165       33.686        0.609      339.248       12.451      867.908
01/25/2014  14:42:00       30.647       24.192       40.136       36.960       28.356       27.311     1366.042      804.039      745.883        0.303        0.146       39.045       22.554        0.334      339.274       12.496      867.903
01/25/2014  14:43:00        3.978       36.742       -0.488       23.111       37.658       20.077      534.127     1418.112      403.092        0.186        0.118       36.957       17.768        0.231      339.303       12.543      867.896
01/25/2014  14:44:00      -10.860       85.926       -9.042       35.973       39.393       27.546     1294.022     1551.830      758.784        0.559        0.180       86.610       21.435        0.061      339.275       12.496      867.885
01/25/2014  14:45:00       27.496       -3.348        8.853       48.996       30.951       25.505     2400.609      957.987      650.519        0.243        0.200       27.699       23.007        0.690      339.476       12.836      867.886
01/25/2014  14:46:00        9.432      -34.549        9.319       26.926       39.896       28.606      725.018     1591.687      818.288        0.225        0.157       35.813       24.955        0.486      339.666       13.156      867.884
01/25/2014  14:47:00       50.822      -31.301       28.648       46.491       50.583       38.817     2161.440     2558.627     1506.753        0.530        0.311       59.688       45.017        0.569      339.351       12.625      867.878
01/25/2014  14:48:00       47.606       28.778       43.581       44.823       52.057       38.195     2009.106     2709.929     1458.853        0.558        0.309       55.628       39.792        0.512      339.247       12.449      867.877
01/25/2014  14:49:00       60.995      -23.517       20.416       31.715       74.587       44.763     1005.814     5563.199     2003.739        0.663        0.429       65.372       51.946        0.631      339.237       12.432      867.873
01/25/2014  14:50:00       32.115       44.769       57.792       46.984       35.689       31.369     2207.540     1273.712      984.014        0.542        0.223       55.097       22.275        0.163      339.411       12.727      867.866
01/25/2014  14:51:00       43.544       10.801       24.430       57.478       28.633       25.547     3303.709      819.826      652.664        0.369        0.239       44.863       31.078        0.480      339.456       12.801      867.854
01/25/2014  14:52:00       26.478       30.094       29.125       26.398       33.646       42.838      696.839     1132.031     1835.136        0.306        0.183       40.084       34.174        0.727      339.422       12.744      867.842
01/25/2014  14:53:00       78.695       17.338       30.080       50.359       40.228       34.020     2536.051     1618.278     1157.332        0.635        0.266       80.582       30.790        0.146      339.432       12.760      867.828
01/25/2014  14:54:00      -14.998      -35.373       13.467       29.243       39.989       25.236      855.125     1599.156      636.865        0.237        0.155       38.421       17.224        0.201      339.759       13.313      867.823
01/25/2014  14:55:00       66.536     -119.174       -5.509       41.660       41.816       31.349     1735.527     1748.589      982.766        1.156        0.223      136.490       26.677        0.038      339.336       12.599      867.814
01/25/2014  14:56:00       98.352     -118.203      -13.942       38.123       27.192       18.596     1453.359      739.417      345.819        1.319        0.127      153.770       16.719        0.012      339.122       12.239      867.808
01/25/2014  14:57:00       94.345     -100.233        2.558       56.335       59.704       33.988     3173.644     3564.600     1155.198        1.342        0.395      137.650       36.994        0.072      339.215       12.396      867.799
01/25/2014  14:58:00       52.986        8.420       64.621       51.918       50.381       36.594     2695.474     2538.284     1339.111        0.681        0.329       53.651       32.958        0.377      339.333       12.595      867.799
01/25/2014  14:59:00        2.352       14.710       -6.697       36.750       33.946       27.588     1350.598     1152.352      761.078        0.176        0.163       14.897       29.176        3.836      339.276       12.498      867.797
01/25/2014  15:00:00      -43.445        6.496        3.799       40.430       22.090       23.372     1634.576      487.957      546.230        0.231        0.133       43.928       27.459        0.391      339.380       12.675      867.770
01/25/2014  15:01:00       40.897       41.943       50.568       49.838       48.575       32.950     2483.856     2359.506     1085.683        0.596        0.296       58.581       31.420        0.288      339.314       12.562      867.751
01/25/2014  15:02:00       26.801       -1.629       24.251       40.049       44.591       29.146     1603.909     1988.334      849.477        0.287        0.222       26.851       29.032        1.169      339.440       12.774      867.741
01/25/2014  15:03:00       29.452       76.125       81.020       45.903       38.554       38.339     2107.114     1486.373     1469.907        0.914        0.253       81.624       40.277        0.243      339.323       12.577      867.743
01/25/2014  15:04:00       22.707       21.250       49.299       54.076       46.377       33.872     2924.242     2150.844     1147.320        0.481        0.311       31.100       36.368        1.367      339.490       12.859      867.746
01/25/2014  15:05:00       33.338       49.892       53.499       34.626       23.469       28.120     1198.925      550.801      790.732        0.450        0.127       60.006       26.922        0.201      339.294       12.529      867.749
01/25/2014  15:06:00       27.079       26.423        3.988       17.290       12.900       14.256      298.947      166.419      203.236        0.106        0.033       37.835       10.430        0.076      339.269       12.486      867.750
01/25/2014  15:07:00       24.032       26.806        2.680       32.678       12.666       19.797     1067.828      160.433      391.906        0.146        0.081       36.002       18.173        0.255      339.308       12.551      867.750
01/25/2014  15:08:00      -14.536       30.095       -4.848       15.782       16.710       14.555      249.078      279.210      211.862        0.094        0.037       33.422       12.343        0.136      339.354       12.629      867.744
01/25/2014  15:09:00      -16.314       15.158       -1.288       21.281       16.508       15.021      452.897      272.516      225.616        0.072        0.048       22.269        8.915        0.160      339.600       13.044      867.735
01/25/2014  15:10:00      -26.982        7.314        2.839       25.532       20.372       14.857      651.886      415.002      220.731        0.104        0.064       27.955       12.023        0.185      339.597       13.038      867.721
01/25/2014  15:11:00      -37.324      -12.092        5.307       22.551       16.145       12.708      508.548      260.645      161.489        0.125        0.047       39.234       11.396        0.084      339.601       13.046      867.714
01/25/2014  15:12:00       42.842       26.209       10.520       22.515       17.533       16.021      506.929      307.419      256.660        0.185        0.054       50.223       13.020        0.067      339.418       12.737      867.718
01/25/2014  15:13:00       84.036       57.616       15.800       44.998       37.309       20.290     2024.793     1391.996      411.672        0.723        0.191      101.890       17.757        0.030      339.270       12.489      867.720
01/25/2014  15:14:00       83.799       64.455       -3.047       55.178       30.836       31.714     3044.655      950.834     1005.747        0.809        0.250      105.719       16.458        0.024      339.345       12.615      867.719
01/25/2014  15:15:00       48.858       48.427       -3.176       46.472       38.748       27.991     2159.669     1501.429      783.502        0.459        0.222       68.792       20.932        0.093      339.369       12.655      867.718
01/25/2014  15:16:00       74.711       55.856        5.704       32.200       29.583       31.221     1036.848      875.133      974.734        0.581        0.144       93.283       17.264        0.034      339.300       12.538      867.719
01/25/2014  15:17:00       79.130       62.038        1.675       39.010       22.022       26.623     1521.801      484.985      708.802        0.641        0.136      100.550       16.586        0.027      339.409       12.722      867.709
01/25/2014  15:18:00       28.874       47.435       54.798       57.316       55.926       47.011     3285.173     3127.731     2210.047        0.735        0.431       55.532       42.105        0.575      339.513       12.897      867.698
01/25/2014  15:19:00       14.735       50.103       65.837       42.607       46.178       37.231     1815.390     2132.446     1386.134        0.620        0.267       52.225       35.055        0.451      339.564       12.984      867.682
01/25/2014  15:20:00       39.592       95.487      -21.767       28.177       34.417       29.549      793.948     1184.542      873.169        0.700        0.143      103.370       22.957        0.049      339.343       12.609      867.683
01/25/2014  15:21:00       44.065       53.284        3.919       54.758       35.541       24.554     2998.404     1263.175      602.907        0.483        0.243       69.144       26.869        0.151      339.410       12.722      867.670
01/25/2014  15:22:00       53.536       44.230        6.320       38.016       21.596       14.313     1445.215      466.392      204.861        0.349        0.106       69.444       17.557        0.064      339.390       12.689      867.662
01/25/2014  15:23:00       80.364       66.274       12.596       54.461       35.942       32.447     2966.042     1291.844     1052.835        0.816        0.266      104.166       23.159        0.049      339.445       12.785      867.656
01/25/2014  15:24:00      115.730       64.585       14.002       34.974       35.504       28.031     1223.164     1260.553      785.714        1.051        0.163      132.531       21.614        0.027      339.476       12.835      867.641
01/25/2014  15:25:00       89.803       51.764       -4.842       59.442       39.100       32.756     3533.304     1528.792     1072.950        0.845        0.307      103.654       20.910        0.041      339.454       12.798      867.627
01/25/2014  15:26:00      105.192       67.781        2.624       46.562       27.816       23.538     2168.042      773.732      554.014        0.958        0.175      125.139       15.608        0.016      339.327       12.585      867.625
01/25/2014  15:27:00       73.353       33.114       12.417       50.440       38.095       31.908     2544.181     1451.198     1018.110        0.582        0.251       80.481        7.948        0.010      339.434       12.763      867.623
01/25/2014  15:28:00       47.548       77.052       -7.954       45.066       48.690       23.601     2030.982     2370.669      557.030        0.661        0.248       90.542       21.193        0.055      339.482       12.846      867.614
01/25/2014  15:29:00       30.770       81.365      -13.159       23.217       37.231       23.389      539.025     1386.111      547.064        0.511        0.124       86.989       20.532        0.056      339.390       12.689      867.616
01/25/2014  15:30:00       34.943       72.322       -7.676       30.428       32.448       23.050      925.889     1052.880      531.300        0.451        0.126       80.321       17.474        0.047      339.410       12.724      867.608
01/25/2014  15:31:00       82.121       25.968        3.807       46.013       53.932       35.171     2117.204     2908.676     1236.965        0.685        0.313       86.128       29.495        0.117      339.401       12.709      867.604
01/25/2014  15:32:00       10.225      -21.840       12.922       24.495       31.950       23.183      600.010     1020.817      537.434        0.145        0.108       24.116       17.478        0.525      339.655       13.137      867.590
01/25/2014  15:33:00       10.941       29.064        5.624       21.876       21.176       16.679      478.550      448.443      278.174        0.110        0.060       31.056        9.796        0.100      339.544       12.949      867.586
01/25/2014  15:34:00       48.427       33.920       22.821       29.471       24.859       25.962      868.557      617.952      674.008        0.309        0.108       59.125       18.644        0.099      339.631       13.097      867.576
01/25/2014  15:35:00       23.287       11.973       21.239       29.701       30.298       35.461      882.157      917.986     1257.477        0.210        0.153       26.185       32.468        1.538      339.766       13.326      867.564
01/25/2014  15:36:00       39.301       41.720       62.037       34.113       61.518       47.046     1163.719     3784.518     2213.328        0.715        0.358       57.316       46.989        0.672      339.496       12.868      867.558
01/25/2014  15:37:00       43.893       33.525       53.125       41.251       39.179       24.171     1701.627     1534.985      584.217        0.485        0.191       55.231       29.164        0.279      339.490       12.860      867.561
01/25/2014  15:38:00       63.072       32.673       12.999       28.205       31.931       19.020      795.542     1019.596      361.752        0.370        0.109       71.032       15.834        0.050      339.413       12.729      867.553
01/25/2014  15:39:00       63.998       41.869       52.228       48.542       52.344       36.126     2356.335     2739.932     1305.113        0.749        0.320       76.477       37.476        0.240      339.462       12.812      867.538
01/25/2014  15:40:00       81.338       81.894       75.834       58.421       39.198       32.288     3413.012     1536.451     1042.536        1.253        0.300      115.423       30.719        0.071      339.496       12.867      867.528
01/25/2014  15:41:00      112.548       63.785       36.816       33.378       31.641       25.818     1114.096     1001.151      666.546        1.044        0.139      129.366       22.918        0.031      339.423       12.746      867.516
01/25/2014  15:42:00       53.184       26.500       47.022       27.543       25.088       23.556      758.604      629.405      554.866        0.384        0.097       59.420       16.204        0.074      339.490       12.859      867.512
01/25/2014  15:43:00       46.638       43.816       19.263       22.043       16.371       28.472      485.877      268.008      810.628        0.302        0.078       63.992       11.464        0.032      339.466       12.818      867.502
01/25/2014  15:44:00       42.766       37.998        9.103       10.139       16.232       14.634      102.798      263.480      214.160        0.197        0.029       57.208       11.416        0.040      339.418       12.739      867.497
01/25/2014  15:45:00       11.867       24.801       -0.332       19.813       15.953       12.092      392.567      254.488      146.207        0.077        0.040       27.494       10.281        0.140      339.487       12.854      867.497
01/25/2014  15:46:00       -7.504       35.878       -1.316       12.186       17.028       16.576      148.492      289.939      274.769        0.103        0.036       36.655        9.857        0.072      339.596       13.039      867.493
01/25/2014  15:47:00        3.584       47.276       -5.338       16.470       12.779        9.384      271.264      163.300       88.056        0.140        0.026       47.412        6.519        0.019      339.499       12.873      867.489
01/25/2014  15:48:00       10.732       22.359       20.524       29.510       18.897       17.421      870.869      357.081      303.477        0.128        0.077       24.801       15.106        0.371      339.686       13.190      867.472
01/25/2014  15:49:00      -53.966       -3.254        0.992       40.366       27.295       16.421     1629.426      745.010      269.655        0.278        0.132       54.064       15.228        0.079      339.814       13.405      867.459
01/25/2014  15:50:00       16.900       27.929       22.055       32.361       36.229       22.397     1047.252     1312.511      501.639        0.221        0.143       32.644       11.508        0.124      339.565       12.986      867.449
01/25/2014  15:51:00       22.927        4.889        2.468       15.150       14.578       11.237      229.516      212.530      126.272        0.056        0.028       23.442        7.860        0.112      339.600       13.044      867.451
01/25/2014  15:52:00        7.460       14.072        6.456       10.518       11.205        6.945      110.625      125.548       48.227        0.029        0.014       15.927        4.740        0.089      339.668       13.160      867.438
01/25/2014  15:53:00       -2.135       12.991        5.317        6.276        8.394        6.383       39.388       70.467       40.747        0.018        0.008       13.166        5.617        0.182      339.823       13.422      867.423
01/25/2014  15:54:00       -1.214        5.659       11.782        6.501        6.924        7.426       42.267       47.948       55.142        0.016        0.007        5.787        2.707        0.219      340.083       13.860      867.415
01/25/2014  15:55:00       36.234       -4.847       24.661       27.235       32.940       17.402      741.748     1085.018      302.826        0.204        0.106       36.556       23.088        0.399      339.641       13.115      867.407
01/25/2014  15:56:00       26.904       -7.724       20.876       24.316       12.435        7.466      591.252      154.620       55.747        0.101        0.040       27.991       10.352        0.137      339.776       13.341      867.399
01/25/2014  15:57:00       20.378       15.574       13.418       17.271       19.136       15.668      298.281      366.200      245.498        0.087        0.045       25.648        5.239        0.042      339.715       13.238      867.393
01/25/2014  15:58:00       14.740       -3.540       22.918       22.522       33.785       15.819      507.252     1141.433      250.232        0.133        0.095       15.159       19.865        1.717      339.832       13.435      867.395
01/25/2014  15:59:00       33.612      -54.576        8.193       29.794       30.199       28.871      887.654      911.981      833.531        0.340        0.132       64.096       22.981        0.129      339.803       13.385      867.396
01/25/2014  16:00:00       65.082      -34.787       -7.157       38.850       31.202       15.009     1509.323      973.593      225.276        0.410        0.135       73.796       14.613        0.039      339.597       13.040      867.400
01/25/2014  16:01:00       35.909       28.119       10.254       28.482       22.492       14.021      811.206      505.898      196.596        0.185        0.076       45.609       10.366        0.052      339.648       13.127      867.400
01/25/2014  16:02:00        8.568        9.920       12.017       19.124       17.388       14.379      365.723      302.341      206.746        0.060        0.044       13.108       12.400        0.895      339.713       13.236      867.411
01/25/2014  16:03:00       14.900        8.052      -11.518        9.119       12.692        6.169       83.163      161.098       38.054        0.035        0.014       16.937        7.038        0.173      339.659       13.146      867.411
01/25/2014  16:04:00        2.448       17.950       -7.983        8.854       16.270       10.132       78.390      264.712      102.659        0.042        0.022       18.117        7.217        0.159      339.754       13.305      867.413
01/25/2014  16:05:00      -16.777      -16.101       -3.143       12.985       15.510        9.471      168.608      240.549       89.703        0.052        0.025       23.253        4.506        0.038      339.747       13.293      867.417
01/25/2014  16:06:00      -51.832       -1.223       -6.397       14.228       21.382       17.969      202.449      457.181      322.892        0.186        0.049       51.846       15.390        0.088      339.656       13.139      867.420
01/25/2014  16:07:00        1.823      -34.138        1.774       16.318       26.404       20.408      266.289      697.153      416.467        0.128        0.069       34.186       17.928        0.275      339.800       13.383      867.418
01/25/2014  16:08:00      -11.260       15.590       15.633       18.591       15.783       14.004      345.642      249.113      196.114        0.070        0.040       19.231       13.179        0.470      339.974       13.676      867.416
01/25/2014  16:09:00       18.209       46.560        8.294       17.756       21.203       10.879      315.284      449.578      118.346        0.173        0.044       49.994       11.500        0.053      339.666       13.158      867.419
01/25/2014  16:10:00       22.480       18.169       18.364        7.587        6.936        9.738       57.563       48.101       94.824        0.069        0.010       28.904        6.402        0.049      339.720       13.248      867.412
01/25/2014  16:11:00        7.279        7.547       -0.477        5.968        7.680        6.757       35.613       58.990       45.662        0.013        0.007       10.485        3.840        0.134      339.730       13.264      867.404
01/25/2014  16:12:00        4.574       -9.533        3.810        9.067       18.744        9.109       82.206      351.352       82.966        0.032        0.026       10.573        6.928        0.429      339.883       13.523      867.397
01/25/2014  16:13:00       -3.233       14.036       32.410        6.939       14.129       12.455       48.153      199.628      155.134        0.083        0.020       14.404       11.482        0.635      339.993       13.707      867.389
01/25/2014  16:14:00       31.439       38.022       25.261       24.883       16.713       22.638      619.140      279.334      512.495        0.224        0.071       49.336       19.316        0.153      339.590       13.026      867.385
01/25/2014  16:15:00       42.804       35.144       12.836       23.221       18.920       18.858      539.197      357.958      355.633        0.224        0.063       55.383        7.868        0.020      339.605       13.054      867.373
01/25/2014  16:16:00       45.231       26.374       11.330       29.352       16.156       15.021      861.532      261.005      225.624        0.211        0.067       52.359        7.082        0.018      339.614       13.067      867.364
01/25/2014  16:17:00       14.537       10.542        9.181        9.782        7.071       10.116       95.680       50.001      102.336        0.033        0.012       17.957        5.134        0.082      339.755       13.305      867.358
01/25/2014  16:18:00        2.780       10.027       10.927        5.797        7.842        7.676       33.608       61.494       58.926        0.019        0.008       10.406        2.994        0.083      339.895       13.542      867.340
01/25/2014  16:19:00       16.009      -17.401        6.522       17.951       18.742       14.345      322.221      351.269      205.775        0.074        0.044       23.645        9.160        0.150      339.886       13.526      867.329
01/25/2014  16:20:00       52.284        5.328       15.612       19.975       17.776       14.056      399.010      315.977      197.564        0.196        0.046       52.555        7.081        0.018      339.640       13.110      867.319
01/25/2014  16:21:00        6.211        2.341        4.338       25.283       23.313       22.748      639.219      543.478      517.472        0.088        0.085        6.637       12.898        3.776      339.829       13.432      867.317
01/25/2014  16:22:00       56.222      -83.427       -4.455       38.903       33.011       27.134     1513.468     1089.757      736.265        0.674        0.167      100.603       22.504        0.050      339.787       13.360      867.323
01/25/2014  16:23:00       48.305      -51.169       -2.347       24.541       31.088       16.391      602.272      966.487      268.662        0.340        0.092       70.368       10.613        0.023      339.715       13.240      867.326
01/25/2014  16:24:00       21.820       16.300       26.174       29.080       20.808       12.681      845.626      432.981      160.797        0.143        0.072       27.236       10.350        0.144      339.784       13.354      867.330
01/25/2014  16:25:00       25.412       20.024       16.490       32.751       26.114       24.469     1072.655      681.916      598.732        0.184        0.118       32.353       18.818        0.338      339.665       13.155      867.331
01/25/2014  16:26:00       32.182      -29.341        6.247       16.478       25.575       16.454      271.514      654.085      270.743        0.157        0.060       43.549       12.159        0.078      339.706       13.223      867.330
01/25/2014  16:27:00        4.265       -2.643       18.691       20.847       49.143       22.473      434.590     2415.045      505.015        0.186        0.168        5.018       25.495       25.816      339.741       13.283      867.328
01/25/2014  16:28:00        0.432       14.775       28.103       13.660       21.681       11.877      186.582      470.052      141.071        0.090        0.040       14.781       10.215        0.478      339.872       13.503      867.331
01/25/2014  16:29:00       32.058       25.499       15.651       20.613       12.130        9.959      424.883      147.138       99.173        0.130        0.034       40.962        8.561        0.044      339.634       13.102      867.334
01/25/2014  16:30:00       30.557       23.755       16.661       20.959       13.043       12.012      439.284      170.109      144.284        0.126        0.038       38.704        8.467        0.048      339.589       13.024      867.336
01/25/2014  16:31:00       41.341       12.365       -0.493       10.521       13.675        8.418      110.690      186.995       70.865        0.112        0.018       43.150        4.881        0.013      339.593       13.034      867.335
01/25/2014  16:32:00       33.066        2.654       13.941       14.251       23.071       15.643      203.087      532.260      244.711        0.114        0.049       33.172       15.447        0.217      339.677       13.175      867.333
01/25/2014  16:33:00       48.089       17.212       18.364       14.418       25.511       17.000      207.883      650.817      289.014        0.205        0.057       51.076       11.594        0.052      339.562       12.979      867.335
01/25/2014  16:34:00       25.039        3.464        5.297       18.843       10.529       10.547      355.054      110.855      111.238        0.062        0.029       25.278        9.142        0.131      339.717       13.241      867.336
01/25/2014  16:35:00        4.210        3.381        4.107        9.313       10.693        9.934       86.727      114.335       98.682        0.017        0.015        5.400        3.540        0.430      339.761       13.317      867.329
01/25/2014  16:36:00       30.463       26.449        4.467       11.723        7.324        8.003      137.419       53.635       64.043        0.095        0.013       40.343        4.634        0.013      339.615       13.069      867.336
01/25/2014  16:37:00       16.655       55.135       -9.827       10.193       13.895        9.110      103.890      193.069       82.984        0.190        0.019       57.595        4.919        0.007      339.658       13.142      867.330
01/25/2014  16:38:00        3.321       32.992       -5.899       11.212       18.316        7.221      125.718      335.461       52.142        0.082        0.026       33.159        7.814        0.056      339.664       13.153      867.333
01/25/2014  16:39:00      -36.216       41.064       -2.127       27.227       23.580       17.529      741.306      556.014      307.280        0.230        0.080       54.753       12.557        0.053      339.758       13.311      867.325
01/25/2014  16:40:00      -17.457       56.871      -13.598       20.233       26.677       10.790      409.360      711.684      116.421        0.248        0.062       59.490       12.507        0.044      339.752       13.301      867.315
01/25/2014  16:41:00       -7.997       34.639        5.050       15.903       32.441       20.332      252.892     1052.431      413.395        0.150        0.086       35.551       18.689        0.276      339.698       13.210      867.305
01/25/2014  16:42:00       30.988       53.400       58.513       46.003       63.302       59.545     2116.259     4007.091     3545.644        0.845        0.483       61.740       54.064        0.767      339.448       12.788      867.300
01/25/2014  16:43:00       79.273       28.154       37.280       63.911       48.095       39.742     4084.632     2313.099     1579.395        0.822        0.399       84.124       24.807        0.087      339.435       12.766      867.292
01/25/2014  16:44:00      104.677       58.087       12.228       82.582       58.594       40.970     6819.788     3433.203     1678.567        1.320        0.597      119.714       26.854        0.050      339.408       12.721      867.290
01/25/2014  16:45:00      118.737       66.526       42.246       53.859       41.160       41.013     2900.740     1694.116     1682.047        1.329        0.314      136.103       26.398        0.038      339.377       12.670      867.286
01/25/2014  16:46:00      131.152       83.772       36.233       54.050       37.501       31.377     2921.375     1406.350      984.530        1.542        0.266      155.623       25.699        0.027      339.364       12.645      867.283
01/25/2014  16:47:00       94.085       50.222       10.719       50.139       50.388       34.864     2513.941     2538.974     1215.517        0.888        0.313      106.650       18.775        0.031      339.347       12.618      867.288
01/25/2014  16:48:00      118.253       62.879       29.081       43.110       33.977       32.878     1858.432     1154.462     1080.973        1.144        0.205      133.931       23.390        0.030      339.330       12.588      867.290
01/25/2014  16:49:00      120.566       64.637       21.750       56.435       46.360       32.355     3184.934     2149.268     1046.875        1.278        0.319      136.800       33.432        0.060      339.313       12.561      867.303
01/25/2014  16:50:00      141.132       66.347       17.346       49.507       40.787       30.921     2450.899     1663.614      956.104        1.485        0.254      155.950       15.525        0.010      339.389       12.688      867.313
01/25/2014  16:51:00       96.845       44.681        9.547       53.891       39.639       35.810     2904.227     1571.286     1282.370        0.861        0.288      106.655       19.857        0.035      339.248       12.451      867.316
01/25/2014  16:52:00      130.266       80.935       17.246       48.467       48.607       40.397     2349.011     2362.660     1631.930        1.508        0.317      153.361       26.816        0.031      339.228       12.418      867.320
01/25/2014  16:53:00      128.831       45.680       18.664       64.508       48.346       47.299     4161.254     2337.307     2237.178        1.388        0.437      136.690       30.731        0.051      339.236       12.430      867.326
01/25/2014  16:54:00      101.871       43.567        9.199       44.643       42.048       27.546     1992.961     1768.047      758.766        0.844        0.226      110.796       22.047        0.040      339.170       12.319      867.338
01/25/2014  16:55:00       67.899       39.270       13.310       28.893       35.890       20.561      834.822     1288.078      422.773        0.444        0.127       78.437       11.455        0.021      339.136       12.263      867.337
01/25/2014  16:56:00       52.968       24.146       15.163       34.325       32.169       25.888     1178.178     1034.858      670.210        0.325        0.144       58.212       12.247        0.044      339.047       12.111      867.328
01/25/2014  16:57:00       77.846       18.804       15.179       36.517       31.639       16.716     1333.486     1001.021      279.429        0.463        0.131       80.085       16.880        0.044      339.076       12.162      867.325
01/25/2014  16:58:00       72.611       47.855        7.849       38.577       26.464       26.711     1488.165      700.337      713.459        0.526        0.145       86.962       22.089        0.065      339.104       12.211      867.330
01/25/2014  16:59:00       74.298       44.763       33.260       49.179       23.169       25.228     2418.545      536.783      636.468        0.611        0.180       86.740       25.801        0.088      339.088       12.180      867.324
01/25/2014  17:00:00       68.408       33.484       30.771       53.601       39.329       27.749     2873.077     1546.786      769.981        0.597        0.259       76.163       28.608        0.141      339.088       12.180      867.314
01/25/2014  17:01:00       55.842       39.521       34.841       30.426       19.142       16.806      925.745      366.412      282.426        0.373        0.079       68.412       14.910        0.047      339.044       12.107      867.311
01/25/2014  17:02:00       79.661       31.356        9.562       28.071       27.960       19.451      787.986      781.734      378.354        0.468        0.097       85.610        8.644        0.010      339.053       12.123      867.306
01/25/2014  17:03:00       60.956       30.149       23.398       36.346       22.446       21.233     1321.039      503.813      450.837        0.372        0.114       68.005       17.055        0.063      339.050       12.118      867.314
01/25/2014  17:04:00       66.334       28.739       18.716       30.713       21.296       24.868      943.267      453.538      618.440        0.380        0.101       72.292       18.207        0.063      338.998       12.030      867.313
01/25/2014  17:05:00       62.120       32.109       27.075       26.022       21.402       21.039      677.134      458.058      442.631        0.360        0.079       69.927        9.123        0.017      339.027       12.080      867.315
01/25/2014  17:06:00       71.089       34.774       21.001       19.686       21.337       18.208      387.520      455.249      331.520        0.394        0.059       79.138        8.820        0.012      339.017       12.063      867.322
01/25/2014  17:07:00       52.468       27.416       31.116       22.011       14.355       17.493      484.503      206.053      305.997        0.273        0.050       59.199        8.801        0.022      338.926       11.910      867.319
01/25/2014  17:08:00       71.017       31.848       20.320       33.163       25.212       16.786     1099.812      635.637      281.753        0.424        0.101       77.831        9.165        0.014      338.972       11.987      867.331
01/25/2014  17:09:00       24.277       29.505       39.243       23.243       15.138        9.884      540.245      229.171       97.691        0.193        0.043       38.209        7.905        0.043      338.865       11.807      867.331
01/25/2014  17:10:00        5.098       10.670       21.831       12.325       14.941       11.873      151.899      223.245      140.959        0.057        0.026       11.825        7.604        0.413      338.852       11.785      867.333
01/25/2014  17:11:00        3.027       13.301       14.590       10.213       12.815       10.304      104.302      164.222      106.163        0.039        0.019       13.641        9.160        0.451      338.715       11.553      867.337
01/25/2014  17:12:00       -8.905        0.308       25.085       12.522       19.780       15.549      156.809      391.263      241.782        0.075        0.039        8.911       11.768        1.744      338.820       11.731      867.325
01/25/2014  17:13:00      -12.735       10.556       22.931       11.318       16.088       11.020      128.106      258.832      121.442        0.065        0.025       16.541        6.158        0.139      338.856       11.791      867.319
01/25/2014  17:14:00       -2.173      -33.391       -0.411       25.993       23.778       15.763      675.654      565.385      248.483        0.130        0.074       33.461        9.836        0.086      338.899       11.862      867.315
01/25/2014  17:15:00       -6.735      -56.638       -5.795       22.752       23.820       16.574      517.633      567.406      274.708        0.232        0.068       57.037       10.756        0.036      338.953       11.954      867.313
01/25/2014  17:16:00      -17.335        3.638       -3.956       18.208       13.700       14.730      331.543      187.690      216.962        0.053        0.037       17.712       12.444        0.494      338.930       11.915      867.314
01/25/2014  17:17:00      -38.429       -1.552       -2.176       10.606       12.191        9.257      112.488      148.609       85.699        0.092        0.017       38.460        7.703        0.040      338.854       11.789      867.319
01/25/2014  17:18:00      -80.919      -11.413      -13.149       24.110       21.485       13.160      581.312      461.589      173.190        0.403        0.061       81.720       13.231        0.026      338.791       11.682      867.322
01/25/2014  17:19:00      -39.508      -47.729        2.131       35.293       24.490       14.392     1245.609      599.784      207.121        0.295        0.103       61.959       16.575        0.072      338.697       11.524      867.336
01/25/2014  17:20:00      -59.319      -32.273       -6.305       27.061       18.546       13.163      732.277      343.937      173.272        0.292        0.062       67.529       10.761        0.025      338.764       11.637      867.347
01/25/2014  17:21:00      -37.489      -15.939      -14.922       25.540        7.819        6.450      652.310       61.137       41.607        0.132        0.038       40.737        1.322        0.001      338.761       11.634      867.354
01/25/2014  17:22:00      -10.229      -12.036       -7.284       11.112        9.051        9.424      123.486       81.926       88.810        0.030        0.015       15.795        5.928        0.141      338.830       11.746      867.365
01/25/2014  17:23:00       -6.223      -19.073       -3.764       10.173        7.834        7.613      103.493       61.367       57.963        0.032        0.011       20.063        4.993        0.062      338.805       11.705      867.369
01/25/2014  17:24:00        0.084      -14.213       -4.424       13.509       12.917        9.981      182.483      166.836       99.614        0.034        0.022       14.214        7.266        0.261      338.836       11.757      867.378
01/25/2014  17:25:00      -43.336      -29.971        3.863       43.156       26.176       17.657     1862.461      685.203      311.772        0.282        0.143       52.690       18.829        0.128      338.758       11.627      867.378
01/25/2014  17:26:00        3.799       14.294       22.739       11.226       15.864        8.015      126.020      251.662       64.235        0.059        0.022       14.790        7.250        0.240      338.462       11.132      867.378
01/25/2014  17:27:00       -3.763      -12.445        2.685        4.960       11.892        7.477       24.598      141.416       55.904        0.020        0.011       13.001        4.765        0.134      338.579       11.326      867.384
01/25/2014  17:28:00      -22.607      -36.547        2.577       20.728       13.201       11.316      429.635      174.272      128.060        0.129        0.037       42.974        8.096        0.035      338.789       11.678      867.387
01/25/2014  17:29:00      -26.492       -3.437        4.633       11.054       10.474        9.340      122.196      109.714       87.227        0.053        0.016       26.714        6.566        0.060      338.775       11.654      867.391
01/25/2014  17:30:00        3.119        2.021        2.381        6.092        4.074        3.135       37.112       16.599        9.830        0.004        0.003        3.716        2.060        0.307      338.617       11.391      867.391
01/25/2014  17:31:00        6.024        3.753        5.726        4.726        4.208        4.885       22.334       17.706       23.863        0.007        0.003        7.097        3.915        0.304      338.641       11.431      867.389
01/25/2014  17:32:00      -23.917       -4.899       -5.315       14.428        6.528        5.551      208.155       42.617       30.816        0.045        0.014       24.413        5.285        0.047      338.521       11.228      867.387
01/25/2014  17:33:00      -47.451       -6.355       -9.914        6.994        5.745        5.826       48.910       33.010       33.937        0.125        0.006       47.875        2.106        0.002      338.366       10.970      867.383
01/25/2014  17:34:00      -23.966       -4.798       -6.080        7.963        4.119        4.244       63.415       16.965       18.009        0.037        0.005       24.442        2.433        0.010      338.579       11.327      867.386
01/25/2014  17:35:00      -25.113       -6.481       -3.318        9.096        6.238        5.761       82.739       38.916       33.188        0.042        0.008       25.936        3.409        0.017      338.645       11.436      867.380
01/25/2014  17:36:00      -36.910      -19.447       -6.855        7.163        9.853        6.311       51.314       97.075       39.827        0.099        0.009       41.720        2.133        0.003      338.676       11.486      867.378
01/25/2014  17:37:00      -29.999      -13.031       -3.186       16.607       15.780       11.198      275.807      248.994      125.404        0.086        0.033       32.707        9.140        0.078      338.337       10.921      867.386
01/25/2014  17:38:00      -61.910      -18.797      -13.621        8.451       12.231        6.647       71.418      149.591       44.177        0.232        0.013       64.701        3.667        0.003      337.955       10.279      867.383
01/25/2014  17:39:00      -78.736       19.300      -15.088       15.678       23.231       11.102      245.804      539.658      123.244        0.385        0.045       81.066        2.134        0.001      337.685        9.825      867.378
01/25/2014  17:40:00      -34.185        1.979       -7.279       27.561       26.504       16.347      759.618      702.488      267.230        0.148        0.086       34.242       10.289        0.090      337.578        9.646      867.378
01/25/2014  17:41:00      -86.530       39.792      -15.436       43.735       39.214       26.055     1912.746     1537.701      678.886        0.672        0.206       95.241       19.233        0.041      337.496        9.509      867.368
01/25/2014  17:42:00      -95.949       -3.991       -6.865       53.053       38.698       29.069     2814.588     1497.572      845.028        0.721        0.258       96.032       25.899        0.073      337.408        9.361      867.365
01/25/2014  17:43:00     -107.085       15.925      -15.107       29.784       32.907       20.221      887.105     1082.858      408.892        0.716        0.119      108.263       15.361        0.020      337.552        9.601      867.374
01/25/2014  17:44:00     -104.371      -28.479       -6.002       34.366       25.072       20.811     1180.989      628.614      433.106        0.699        0.112      108.187       17.870        0.027      337.296        9.174      867.374
01/25/2014  17:45:00     -111.234      -27.873       -5.779       27.439       33.497       17.286      752.891     1122.026      298.807        0.768        0.109      114.673        7.345        0.004      337.197        9.009      867.369
01/25/2014  17:46:00      -93.651      -12.225      -11.469       16.871       17.719       14.981      284.636      313.947      224.442        0.494        0.041       94.445        7.806        0.007      337.230        9.062      867.374
01/25/2014  17:47:00     -101.127        8.074      -14.663       36.640       30.426       20.122     1342.495      925.748      404.912        0.659        0.134      101.448        6.808        0.005      337.452        9.435      867.384
01/25/2014  17:48:00     -107.732       19.368       -6.016       38.917       27.429       21.683     1514.558      752.373      470.172        0.738        0.137      109.459       18.390        0.028      337.560        9.618      867.389
01/25/2014  17:49:00     -133.140       44.944       -2.401       50.005       27.884       24.661     2500.475      777.512      608.159        1.182        0.194      140.521       17.740        0.016      337.541        9.585      867.396
01/25/2014  17:50:00     -169.621       29.656      -17.987       31.144       31.085       20.856      969.924      966.264      434.981        1.617        0.119      172.194        7.511        0.002      337.493        9.504      867.399
01/25/2014  17:51:00     -164.927       59.930      -19.251       54.747       27.496       20.334     2997.205      756.027      413.489        1.766        0.208      175.478        9.273        0.003      337.404        9.354      867.402
01/25/2014  17:52:00      -59.178       25.056       -7.613       22.215       37.042       15.831      493.487     1372.097      250.610        0.315        0.106       64.264        5.564        0.007      337.150        8.929      867.408
01/25/2014  17:53:00     -125.722       18.622      -10.397       43.196       34.153       19.480     1865.874     1166.396      379.474        0.984        0.171      127.094       16.728        0.017      337.280        9.147      867.406
01/25/2014  17:54:00     -113.325       16.932       -5.188       47.309       41.761       24.421     2238.105     1743.953      596.379        0.887        0.229      114.583       22.360        0.038      337.345        9.256      867.401
01/25/2014  17:55:00      -66.859       19.890       -8.813       41.799       25.534       20.624     1747.116      651.965      425.341        0.388        0.141       69.755       19.057        0.075      337.213        9.034      867.404
01/25/2014  17:56:00      -69.931       33.101      -11.623       22.845       28.339       15.845      521.914      803.075      251.078        0.385        0.079       77.370        8.460        0.012      337.208        9.027      867.405
01/25/2014  17:57:00      -73.844       -3.381      -11.235       18.860       23.042       13.749      355.712      530.917      189.026        0.333        0.054       73.922        7.318        0.010      337.185        8.988      867.400
01/25/2014  17:58:00      -64.073      -10.080       -9.411       16.889       20.285       17.286      285.250      411.476      298.823        0.265        0.050       64.861        7.185        0.012      337.058        8.777      867.381
01/25/2014  17:59:00      -62.155       -4.845       -9.682       30.870       20.401       17.668      952.962      416.197      312.144        0.283        0.084       62.344       17.334        0.077      337.079        8.810      867.382
01/25/2014  18:00:00      -62.297        0.542       -6.140       34.403       23.245       17.065     1183.584      540.350      291.199        0.297        0.101       62.299       14.796        0.056      337.168        8.959      867.381
01/25/2014  18:01:00      -84.221       -6.503       -3.462       37.475       27.904       19.388     1404.398      778.630      375.884        0.485        0.128       84.472       14.379        0.029      337.110        8.862      867.377
01/25/2014  18:02:00      -43.172      -23.718        1.194       30.261       31.767       23.486      915.756     1009.135      551.612        0.245        0.124       49.258       18.757        0.145      337.027        8.722      867.381
01/25/2014  18:03:00      -61.868        6.153      -12.997       44.758       24.492       20.078     2003.235      599.842      403.114        0.352        0.150       62.173        9.539        0.024      337.125        8.888      867.391
01/25/2014  18:04:00      -63.310        2.068       -9.466       32.252       24.857       20.692     1040.183      617.855      428.179        0.309        0.104       63.344       20.208        0.102      337.127        8.891      867.394
01/25/2014  18:05:00      -54.166        5.774       -5.559       25.734       22.337       15.067      662.228      498.960      227.013        0.219        0.069       54.473        4.537        0.007      337.027        8.722      867.400
01/25/2014  18:06:00      -66.644       -4.939      -11.999       17.516       17.439       12.849      306.804      304.111      165.085        0.269        0.039       66.826       10.202        0.023      336.948        8.592      867.404
01/25/2014  18:07:00      -62.649       -6.745      -13.390       11.866       14.605       11.849      140.800      213.302      140.402        0.232        0.025       63.011        7.958        0.016      336.852        8.431      867.395
01/25/2014  18:08:00      -63.445       -9.301       -5.752       21.589       15.207       16.347      466.077      231.263      267.224        0.255        0.048       64.123       14.642        0.052      336.798        8.342      867.400
01/25/2014  18:09:00      -51.209       -5.828       -9.309       22.448       17.085       12.136      503.920      291.906      147.291        0.184        0.047       51.539       12.601        0.060      336.702        8.184      867.402
01/25/2014  18:10:00      -58.785       -3.971       -9.580       19.893       14.344       15.761      395.742      205.752      248.407        0.221        0.042       58.919       12.092        0.042      336.768        8.291      867.399
01/25/2014  18:11:00      -70.985        0.377      -14.665       19.348       17.168       12.436      374.362      294.727      154.647        0.304        0.041       70.986        9.020        0.016      336.692        8.165      867.405
01/25/2014  18:12:00      -75.879      -17.275       -9.460       16.304       18.621       11.980      265.836      346.734      143.529        0.345        0.038       77.821       10.209        0.017      336.556        7.938      867.407
01/25/2014  18:13:00      -76.759      -12.403      -16.372       18.781       21.153       13.154      352.707      447.451      173.016        0.364        0.049       77.755        9.814        0.016      336.565        7.954      867.416
01/25/2014  18:14:00      -73.721      -10.484       -7.924       27.775       17.384       14.811      771.477      302.204      219.371        0.345        0.065       74.463       15.330        0.042      336.543        7.915      867.419
01/25/2014  18:15:00      -96.176       -3.462      -11.534       17.414       26.465       15.821      303.255      700.392      250.308        0.532        0.063       96.239        7.126        0.005      336.454        7.765      867.416
01/25/2014  18:16:00      -87.125      -27.045      -12.200       24.032       20.557       15.929      577.546      422.602      253.734        0.486        0.063       91.227       10.867        0.014      336.358        7.605      867.411
01/25/2014  18:17:00      -89.567       12.729       -9.287       45.552       24.644       17.872     2074.995      607.308      319.418        0.564        0.150       90.467       17.559        0.038      336.372        7.629      867.420
01/25/2014  18:18:00      -60.461        6.822      -10.098       26.567       16.301       17.540      705.829      265.717      307.658        0.254        0.064       60.845       14.579        0.057      336.430        7.728      867.425
01/25/2014  18:19:00      -62.472      -19.490      -14.643       18.913       23.101       12.685      357.692      533.667      160.911        0.277        0.053       65.441       11.299        0.030      336.366        7.620      867.432
01/25/2014  18:20:00      -68.970      -13.669      -15.141       19.583       14.753       15.702      383.500      217.666      246.546        0.301        0.042       70.312       13.357        0.036      336.217        7.370      867.432
01/25/2014  18:21:00      -71.563       -6.176      -11.493       16.961       15.211        9.627      287.687      231.384       92.688        0.295        0.031       71.829        5.535        0.006      336.320        7.542      867.443
01/25/2014  18:22:00      -59.921       -9.222      -10.502       25.428       20.153       12.675      646.602      406.158      160.665        0.250        0.061       60.627       11.188        0.034      336.152        7.260      867.456
01/25/2014  18:23:00      -71.189      -13.514      -15.148       23.128       16.301        9.907      534.924      265.736       98.154        0.319        0.045       72.460        9.646        0.018      336.124        7.215      867.471
01/25/2014  18:24:00      -85.456       -7.923      -19.166       18.424       28.434       15.060      339.440      808.518      226.803        0.455        0.069       85.823        8.927        0.011      336.083        7.147      867.479
01/25/2014  18:25:00      -79.505       -4.296      -17.232       14.920       20.709       12.773      222.613      428.852      163.149        0.373        0.041       79.621        6.906        0.008      335.982        6.978      867.483
01/25/2014  18:26:00      -86.872      -15.768      -19.790       23.936       15.078       11.256      572.944      227.360      126.709        0.456        0.046       88.291        6.025        0.005      336.081        7.143      867.487
01/25/2014  18:27:00      -64.672      -17.997      -21.386       20.167       17.888       16.713      406.723      319.975      279.326        0.298        0.050       67.129       13.349        0.040      336.009        7.021      867.498
01/25/2014  18:28:00      -87.187      -20.029      -19.302       19.730       31.494       20.008      389.266      991.889      400.317        0.508        0.089       89.458        8.407        0.009      336.131        7.227      867.497
01/25/2014  18:29:00      -82.470      -31.808       -7.154       23.932       24.894       17.912      572.745      619.705      320.823        0.469        0.076       88.392        9.473        0.011      335.994        6.998      867.506
01/25/2014  18:30:00      -80.690      -27.521      -11.857       21.855       18.555       13.913      477.635      344.291      193.574        0.421        0.051       85.254       10.018        0.014      335.999        7.005      867.515
01/25/2014  18:31:00      -82.098      -36.840      -17.189       18.653       22.940       14.035      347.933      526.237      196.976        0.473        0.054       89.985       13.409        0.022      335.975        6.966      867.518
01/25/2014  18:32:00      -91.734      -27.458      -15.675       22.109       22.813       14.457      488.821      520.436      209.010        0.532        0.061       95.755       10.586        0.012      336.097        7.169      867.523
01/25/2014  18:33:00      -96.530      -32.659      -12.303       25.373       27.260       21.668      643.793      743.100      469.496        0.620        0.093      101.905       15.026        0.022      335.974        6.966      867.530
01/25/2014  18:34:00     -117.727       -3.149      -11.354       33.150       25.263       19.100     1098.944      638.214      364.803        0.805        0.105      117.769       15.990        0.018      336.055        7.101      867.535
01/25/2014  18:35:00      -70.276      -11.486        2.258       41.364       26.417       19.974     1711.006      697.856      398.970        0.394        0.140       71.209       20.999        0.087      335.948        6.920      867.535
01/25/2014  18:36:00      -89.939      -12.129       -5.621       30.326       24.957       16.330      919.675      622.855      266.674        0.504        0.090       90.753       12.787        0.020      335.927        6.886      867.529
01/25/2014  18:37:00      -87.397      -19.168       -8.780       31.015       21.034       16.146      961.919      442.448      260.697        0.487        0.083       89.474       15.930        0.032      335.849        6.758      867.531
01/25/2014  18:38:00      -63.867      -23.473        1.559       25.733       21.289       15.893      662.186      453.223      252.582        0.300        0.068       68.044       15.471        0.052      335.846        6.750      867.533
01/25/2014  18:39:00     -128.736      -22.199      -13.628       11.134       15.245        9.158      123.974      232.415       83.864        0.885        0.022      130.636        6.420        0.002      335.964        6.948      867.534
01/25/2014  18:40:00      -86.908      -28.038       -9.450       22.780       16.002       12.660      518.927      256.052      160.274        0.468        0.047       91.319        7.639        0.007      335.917        6.870      867.540
01/25/2014  18:41:00      -95.222      -34.333      -15.114       13.100       12.420       10.948      171.597      154.259      119.850        0.546        0.022      101.223        7.565        0.006      335.986        6.986      867.545
01/25/2014  18:42:00     -103.034      -23.415      -14.765       17.838       16.117       12.687      318.195      259.760      160.968        0.606        0.037      105.661        8.815        0.007      335.962        6.945      867.549
01/25/2014  18:43:00     -105.689      -33.446       -7.812       16.455       15.632       11.731      270.760      244.363      137.623        0.650        0.033      110.855        7.788        0.005      335.971        6.959      867.556
01/25/2014  18:44:00     -101.264      -30.213      -10.609       16.105       18.271       10.194      259.367      333.838      103.926        0.599        0.035      105.676        7.618        0.005      335.928        6.889      867.571
01/25/2014  18:45:00     -101.403      -22.950      -12.827       14.370       14.606       11.059      206.497      213.339      122.301        0.576        0.027      103.968        6.674        0.004      335.944        6.914      867.574
01/25/2014  18:46:00     -116.091      -23.732      -12.285       19.209       16.244       10.533      369.004      263.851      110.954        0.747        0.037      118.492        9.614        0.007      335.887        6.820      867.586
01/25/2014  18:47:00      -99.572      -42.727      -14.488       14.257       14.494       10.956      203.259      210.078      120.039        0.624        0.027      108.352        4.756        0.002      335.832        6.730      867.592
01/25/2014  18:48:00      -90.142      -40.160      -15.522       17.449       16.633       12.102      304.461      276.663      146.461        0.535        0.036       98.683        8.777        0.008      335.808        6.689      867.596
01/25/2014  18:49:00      -90.196      -42.331      -15.435       29.825       16.344       15.681      889.554      267.114      245.902        0.578        0.070       99.635        9.183        0.008      335.765        6.617      867.601
01/25/2014  18:50:00      -98.215      -40.372      -15.956       17.719       13.983       13.462      313.976      195.527      181.221        0.611        0.035      106.189        5.716        0.003      335.714        6.533      867.606
01/25/2014  18:51:00      -70.224      -44.436       -7.499       20.831       25.378       20.410      433.934      644.047      416.573        0.423        0.075       83.102       15.717        0.036      335.712        6.529      867.618
01/25/2014  18:52:00      -57.786      -37.830       -4.475       26.054       17.873       21.089      678.800      319.436      444.733        0.312        0.072       69.068       15.696        0.052      335.683        6.481      867.636
01/25/2014  18:53:00      -82.430      -26.109      -13.805       14.689       18.679       10.564      215.766      348.895      111.598        0.417        0.034       86.466        5.679        0.004      335.650        6.426      867.650
01/25/2014  18:54:00      -72.661      -39.827       -8.669       19.780       18.904       13.650      391.236      357.351      186.318        0.394        0.047       82.860        7.618        0.008      335.585        6.317      867.658
01/25/2014  18:55:00      -79.495      -24.971      -15.223       15.661       22.481       13.042      245.262      505.410      170.087        0.405        0.046       83.325        4.103        0.002      335.567        6.287      867.661
01/25/2014  18:56:00      -79.633      -29.916      -14.128       18.605       16.820       10.942      346.164      282.913      119.736        0.409        0.037       85.067       10.147        0.014      335.550        6.259      867.664
01/25/2014  18:57:00      -67.751      -57.881       -6.591       18.654       22.109       13.975      347.967      488.817      195.298        0.451        0.052       89.109        6.779        0.006      335.611        6.361      867.659
01/25/2014  18:58:00      -53.942      -45.118       -1.476       20.156       24.919       19.949      406.256      620.958      397.966        0.319        0.071       70.323       10.961        0.024      335.622        6.378      867.668
01/25/2014  18:59:00      -78.331      -25.482       -9.941       26.076       23.081       19.702      679.963      532.749      388.170        0.424        0.080       82.371       16.112        0.038      335.511        6.195      867.666
01/25/2014  19:00:00      -64.727      -21.752       -7.351       25.251       23.684       20.002      637.597      560.938      400.081        0.316        0.080       68.285       17.142        0.063      335.520        6.208      867.670
01/25/2014  19:01:00      -64.970      -23.789      -18.462       14.115       17.802       10.199      199.234      316.921      104.029        0.287        0.031       69.188        7.215        0.011      335.559        6.273      867.662
01/25/2014  19:02:00      -95.183       -5.586      -16.774       18.040       23.220       13.644      325.448      539.163      186.152        0.521        0.053       95.346        9.852        0.011      335.619        6.374      867.658
01/25/2014  19:03:00      -96.712       -6.338      -21.562       17.155       17.983       12.834      294.291      323.379      164.708        0.532        0.039       96.919        8.039        0.007      335.585        6.316      867.654
01/25/2014  19:04:00      -66.965       -1.464      -14.931       31.041       22.535       12.793      963.542      507.846      163.651        0.317        0.082       66.981       14.124        0.044      335.457        6.103      867.652
01/25/2014  19:05:00      -82.501      -11.349      -16.023       19.210       20.319       13.001      369.023      412.848      169.031        0.407        0.048       83.278        6.877        0.007      335.572        6.295      867.640
01/25/2014  19:06:00      -86.025        6.877      -24.848       21.350       19.924       19.254      455.832      396.950      370.710        0.464        0.061       86.299        9.724        0.013      335.489        6.157      867.640
01/25/2014  19:07:00      -77.577        0.899      -18.803       41.433       20.150       18.059     1716.716      406.028      326.145        0.441        0.122       77.583        9.982        0.017      335.621        6.377      867.636
01/25/2014  19:08:00      -93.571        9.394       -7.970       34.609       24.013       21.297     1197.801      576.623      453.566        0.557        0.111       94.042       16.625        0.031      335.570        6.292      867.638
01/25/2014  19:09:00      -84.208        0.425      -20.370       17.568       19.029       17.376      308.638      362.116      301.940        0.424        0.049       84.209        9.086        0.012      335.686        6.484      867.645
01/25/2014  19:10:00     -102.871      -11.067      -19.590       14.787       12.596       13.223      218.642      158.656      174.857        0.582        0.028      103.465        6.775        0.004      335.482        6.145      867.646
01/25/2014  19:11:00      -88.590      -18.628      -16.914       19.396       22.306       14.715      376.190      497.560      216.530        0.479        0.055       90.528       10.122        0.013      335.503        6.180      867.646
01/25/2014  19:12:00      -74.400      -30.501      -16.270       14.008       19.328       13.149      196.215      373.555      172.886        0.374        0.037       80.410        7.384        0.008      335.506        6.185      867.649
01/25/2014  19:13:00      -89.414      -23.240      -18.135       19.311       20.099        9.627      372.914      403.972       92.681        0.487        0.043       92.385        6.792        0.005      335.525        6.217      867.639
01/25/2014  19:14:00      -98.670       -5.572      -15.333       24.030       19.245       15.706      577.460      370.380      246.676        0.560        0.060       98.827       15.406        0.024      335.415        6.033      867.646
01/25/2014  19:15:00      -99.151      -23.723      -18.908       23.331       20.473       15.890      544.336      419.162      252.494        0.598        0.061      101.949       12.998        0.016      335.440        6.076      867.638
01/25/2014  19:16:00      -94.386       -9.951      -12.006       21.611       19.981       18.223      467.046      399.253      332.074        0.517        0.060       94.909       15.212        0.026      335.363        5.947      867.646
01/25/2014  19:17:00      -78.054      -29.992      -14.752       23.346       20.590       13.781      545.044      423.948      189.904        0.418        0.058       83.618       10.195        0.015      335.441        6.076      867.643
01/25/2014  19:18:00     -114.213      -15.254      -14.410       33.789       24.984       17.406     1141.669      624.204      302.979        0.778        0.103      115.227       16.980        0.022      335.509        6.190      867.643
01/25/2014  19:19:00      -87.981      -15.200      -14.922       32.550       24.923       16.017     1059.506      621.149      256.548        0.507        0.097       89.284       16.651        0.035      335.369        5.956      867.633
01/25/2014  19:20:00      -92.436      -22.736      -17.089       29.457       32.220       15.559      867.705     1038.158      242.092        0.575        0.107       95.191       17.761        0.035      335.489        6.157      867.625
01/25/2014  19:21:00      -86.244      -24.818      -14.467       17.235       19.279       16.214      297.050      371.678      262.897        0.460        0.047       89.744        4.862        0.003      335.482        6.144      867.630
01/25/2014  19:22:00     -100.576      -11.835      -18.521       24.472       21.979       13.262      598.878      483.084      175.878        0.593        0.063      101.270       11.727        0.013      335.625        6.382      867.622
01/25/2014  19:23:00      -59.124      -14.183      -11.219       24.405       17.274       12.283      595.607      298.393      150.874        0.243        0.052       60.802        8.618        0.020      335.529        6.225      867.626
01/25/2014  19:24:00      -82.972      -16.331      -11.989       32.449       28.644       16.410     1052.954      820.473      269.276        0.472        0.107       84.564       14.490        0.029      335.510        6.191      867.618
01/25/2014  19:25:00      -81.405      -10.070      -13.178       16.822       17.883       12.778      282.994      319.786      163.289        0.383        0.038       82.026       12.216        0.022      335.385        5.983      867.632
01/25/2014  19:26:00      -56.466      -39.901      -11.211       19.568       18.388       13.293      382.917      338.109      176.695        0.290        0.045       69.142        9.440        0.019      335.475        6.131      867.633
01/25/2014  19:27:00      -46.697      -15.660       -6.333       21.544       24.385       17.351      464.148      594.626      301.067        0.191        0.068       49.253       14.390        0.085      335.491        6.159      867.643
01/25/2014  19:28:00      -45.712      -11.431       -7.007       19.660       16.739        9.906      386.512      280.198       98.128        0.152        0.038       47.119        6.539        0.019      335.635        6.400      867.655
01/25/2014  19:29:00      -44.717      -14.825      -10.879       13.565       16.483       10.620      184.002      271.703      112.791        0.145        0.028       47.111        7.182        0.023      335.594        6.332      867.650
01/25/2014  19:30:00      -38.848      -10.291        4.211       22.994       23.296       16.926      528.747      542.697      286.480        0.150        0.068       40.188       16.414        0.167      335.729        6.559      867.657
01/25/2014  19:31:00      -54.183      -25.347       -5.617       17.471       14.140       10.551      305.248      199.945      111.322        0.211        0.031       59.819        4.401        0.005      335.666        6.452      867.651
01/25/2014  19:32:00      -59.011      -26.707      -10.865       26.907       21.813       15.031      723.962      475.822      225.920        0.287        0.071       64.774       12.853        0.039      335.717        6.538      867.655
01/25/2014  19:33:00      -69.756      -25.806      -10.182       16.288       16.676        9.173      265.305      278.086       84.139        0.313        0.031       74.377        8.155        0.012      335.670        6.460      867.662
01/25/2014  19:34:00      -70.388      -29.582       -8.884       17.914       23.363       14.368      320.911      545.850      206.444        0.349        0.054       76.352        8.970        0.014      335.706        6.518      867.659
01/25/2014  19:35:00      -83.194      -47.880      -12.564       15.300       17.048       14.385      234.104      290.646      206.938        0.505        0.037       95.989        6.595        0.005      335.519        6.207      867.660
01/25/2014  19:36:00      -83.610      -31.893      -13.534       15.843       27.933       13.146      250.989      780.269      172.813        0.470        0.060       89.487       11.904        0.018      335.600        6.342      867.665
01/25/2014  19:37:00      -85.824      -22.324      -19.089       14.446       11.507       10.028      208.701      132.420      100.567        0.434        0.022       88.680        9.309        0.011      335.490        6.159      867.675
01/25/2014  19:38:00      -89.848      -23.862      -14.708       18.234       15.500        9.579      332.494      240.262       91.753        0.476        0.033       92.963        7.050        0.006      335.495        6.168      867.672
01/25/2014  19:39:00      -91.132      -25.179      -20.485       22.183       10.912        7.484      492.082      119.079       56.009        0.501        0.033       94.546        5.607        0.004      335.515        6.200      867.665
01/25/2014  19:40:00      -84.582      -48.515       -6.789       18.027       12.214       11.248      324.960      149.180      126.514        0.508        0.030       97.508        6.145        0.004      335.458        6.107      867.666
01/25/2014  19:41:00      -93.842      -37.892       -5.025       24.115       15.002       12.962      581.541      225.057      168.014        0.562        0.049      101.203       12.056        0.014      335.584        6.315      867.660
01/25/2014  19:42:00      -94.862      -48.984       -8.871       14.926       14.427        9.265      222.795      208.150       85.849        0.600        0.026      106.762        4.994        0.002      335.629        6.389      867.647
01/25/2014  19:43:00      -74.306      -59.849       -6.082       19.379       25.423       17.365      375.535      646.327      301.556        0.523        0.066       95.411       12.403        0.017      335.704        6.516      867.660
01/25/2014  19:44:00     -107.623      -51.589      -11.274       20.799       23.785       11.368      432.614      565.709      129.241        0.775        0.056      119.349        7.907        0.004      335.473        6.130      867.646
01/25/2014  19:45:00      -94.458      -63.382       -3.719       25.810       17.796       12.648      666.143      316.695      159.967        0.705        0.057      113.752       13.461        0.014      335.355        5.933      867.640
01/25/2014  19:46:00      -62.111      -43.873       -7.657       21.539       14.998       14.572      463.912      224.931      212.346        0.337        0.045       76.044       10.561        0.019      335.419        6.040      867.653
01/25/2014  19:47:00      -63.638      -60.569       -1.315       24.483       19.819       17.010      599.394      392.797      289.352        0.450        0.064       87.855       12.203        0.019      335.443        6.080      867.646
01/25/2014  19:48:00      -56.473      -41.220       -4.690       21.780       18.094       16.713      474.352      327.401      279.327        0.300        0.054       69.917       13.908        0.040      335.388        5.987      867.653
01/25/2014  19:49:00      -86.359      -46.483      -12.481       13.706       13.152       10.420      187.849      172.975      108.571        0.512        0.023       98.074        5.945        0.004      335.361        5.942      867.666
01/25/2014  19:50:00      -92.958      -47.274      -13.043       10.827        8.803        7.785      117.214       77.492       60.600        0.565        0.013      104.289        4.618        0.002      335.347        5.920      867.670
01/25/2014  19:51:00      -93.573      -43.835      -14.178       10.003        8.033        6.322      100.053       64.522       39.966        0.554        0.010      103.331        3.829        0.001      335.420        6.041      867.672
01/25/2014  19:52:00      -82.467      -45.418      -13.669        6.940        8.097        6.337       48.160       65.555       40.157        0.460        0.008       94.147        3.186        0.001      335.461        6.109      867.677
01/25/2014  19:53:00      -92.875      -42.030      -15.034        9.204        7.658        6.196       84.719       58.638       38.386        0.540        0.009      101.942        3.556        0.001      335.359        5.939      867.677
01/25/2014  19:54:00      -88.557      -46.499      -14.707       15.436       10.916        7.877      238.261      119.162       62.051        0.532        0.021      100.023        3.254        0.001      335.253        5.763      867.661
01/25/2014  19:55:00      -66.464      -38.610       -5.141       15.931       12.382       10.708      253.788      153.315      114.668        0.323        0.026       76.865        3.135        0.002      335.117        5.538      867.663
01/25/2014  19:56:00      -79.985      -53.458      -13.034       12.842       10.961       10.124      164.915      120.134      102.496        0.491        0.019       96.205        5.890        0.004      335.242        5.745      867.661
01/25/2014  19:57:00      -82.796      -44.089      -13.844        9.969       10.653        7.651       99.387      113.491       58.545        0.463        0.014       93.803        4.265        0.002      335.296        5.834      867.659
01/25/2014  19:58:00      -94.397      -31.629      -16.721        8.054        6.489        6.961       64.868       42.103       48.451        0.517        0.008       99.555        2.485        0.001      335.366        5.952      867.654
01/25/2014  19:59:00      -93.071      -32.636      -18.562        6.890        9.171        8.805       47.468       84.099       77.531        0.514        0.010       98.627        2.671        0.001      335.328        5.886      867.650
01/25/2014  20:00:00      -70.018      -41.652      -15.811        7.270        9.667        7.671       52.856       93.448       58.842        0.355        0.010       81.470        5.335        0.004      335.277        5.804      867.646
01/25/2014  20:01:00      -71.864      -46.865      -13.725       10.043        7.727        6.086      100.871       59.708       37.040        0.387        0.010       85.795        3.854        0.002      335.235        5.733      867.648
01/25/2014  20:02:00      -83.931      -42.821      -12.290        6.594        7.518        6.463       43.487       56.519       41.771        0.459        0.007       94.224        3.261        0.001      335.187        5.654      867.659
01/25/2014  20:03:00      -86.141      -54.734      -10.537       21.006       20.045       11.438      441.273      401.815      130.829        0.575        0.049      102.059        8.689        0.007      335.026        5.387      867.667
01/25/2014  20:04:00     -117.971      -59.012      -13.950       16.417       19.925       14.657      269.530      397.002      214.840        0.924        0.044      131.908       11.022        0.007      334.965        5.287      867.668
01/25/2014  20:05:00     -119.227      -62.126       -9.789       18.729       14.305       12.288      350.788      204.620      150.985        0.944        0.035      134.442        8.717        0.004      334.971        5.296      867.658
01/25/2014  20:06:00     -111.033      -45.333      -12.757       12.021       19.130       11.219      144.510      365.961      125.863        0.759        0.032      119.931        3.900        0.001      334.963        5.282      867.657
01/25/2014  20:07:00      -95.956      -47.531       -9.461       15.934        9.698        9.925      253.879       94.056       98.502        0.600        0.022      107.083        9.174        0.007      334.913        5.199      867.665
01/25/2014  20:08:00      -94.736      -47.990      -11.855       12.428       13.212        9.646      154.457      174.561       93.054        0.592        0.021      106.198        3.896        0.001      334.864        5.118      867.659
01/25/2014  20:09:00     -119.188      -60.589      -14.100       15.641       14.908        9.577      244.635      222.241       91.711        0.932        0.028      133.704        4.572        0.001      334.829        5.058      867.649
01/25/2014  20:10:00     -132.526      -66.663      -12.348       21.380       15.667       13.587      457.119      245.462      184.609        1.152        0.044      148.348       10.503        0.005      334.823        5.049      867.647
01/25/2014  20:11:00     -130.467      -50.219      -16.490       13.846       16.354       10.343      191.720      267.440      106.975        1.019        0.028      139.798        4.534        0.001      334.841        5.079      867.636
01/25/2014  20:12:00     -106.762      -38.286      -12.566       11.851       19.561       10.359      140.440      382.621      107.304        0.683        0.032      113.419        5.090        0.002      334.803        5.017      867.618
01/25/2014  20:13:00     -112.967      -30.407      -17.622       10.134       10.243        9.384      102.692      104.914       88.067        0.715        0.015      116.987        2.879        0.001      334.816        5.038      867.601
01/25/2014  20:14:00     -107.915      -35.814      -14.510       10.762       10.023        9.412      115.811      100.461       88.587        0.672        0.015      113.703        4.218        0.001      334.832        5.064      867.600
01/25/2014  20:15:00     -109.372      -34.553      -16.626       12.613       11.826        8.905      159.085      139.865       79.306        0.691        0.019      114.700        4.742        0.002      334.828        5.056      867.591
01/25/2014  20:16:00     -111.423      -41.210      -13.298       15.113       15.858       10.627      228.390      251.486      112.942        0.744        0.030      118.800        5.557        0.002      334.840        5.079      867.585
01/25/2014  20:17:00     -112.186      -40.304       -9.269       14.484       13.302       10.666      209.774      176.944      113.765        0.740        0.025      119.206        7.206        0.004      334.854        5.101      867.586
01/25/2014  20:18:00     -118.040      -43.311       -8.454       11.535       13.815        8.695      133.046      190.843       75.604        0.814        0.020      125.735        4.138        0.001      334.801        5.013      867.586
01/25/2014  20:19:00     -119.202      -51.008      -15.108        9.410       11.404        8.535       88.554      130.056       72.838        0.867        0.015      129.658        3.178        0.001      334.788        4.991      867.582
01/25/2014  20:20:00     -116.418      -47.879      -15.629        9.302       10.491        8.319       86.526      110.051       69.203        0.818        0.013      125.879        2.892        0.001      334.793        4.998      867.601
01/25/2014  20:21:00     -117.037      -41.571       -8.836       13.576       15.103       11.468      184.307      228.114      131.511        0.802        0.027      124.200        8.229        0.004      334.792        4.998      867.608
01/25/2014  20:22:00     -115.130      -45.252       -9.745       19.937       19.990       12.814      397.469      399.581      164.211        0.818        0.048      123.704       12.213        0.010      334.733        4.899      867.616
01/25/2014  20:23:00     -144.202      -43.853      -13.124       16.923       12.991       14.657      286.375      168.756      214.815        1.178        0.033      150.723       10.983        0.005      334.662        4.781      867.623
01/25/2014  20:24:00     -143.982      -37.975      -17.037       13.332       14.218       10.597      177.742      202.157      112.291        1.148        0.025      148.905        4.449        0.001      334.619        4.710      867.624
01/25/2014  20:25:00     -125.982      -41.949      -16.395       15.123       13.588        9.884      228.707      184.627       97.702        0.921        0.026      132.783        3.993        0.001      334.603        4.685      867.619
01/25/2014  20:26:00     -125.713      -44.506      -19.072       14.436       10.151        8.116      208.392      103.038       65.871        0.926        0.019      133.359        5.203        0.002      334.597        4.675      867.619
01/25/2014  20:27:00     -116.304      -37.044      -17.538        9.943       10.869        9.761       98.865      118.135       95.274        0.776        0.016      122.061        3.559        0.001      334.604        4.685      867.619
01/25/2014  20:28:00     -111.380      -45.315      -15.605       14.937       14.181        9.779      223.119      201.093       95.637        0.761        0.026      120.245        4.495        0.001      334.535        4.571      867.614
01/25/2014  20:29:00     -114.800      -44.336      -19.997        9.402       12.448        9.149       88.397      154.943       83.700        0.794        0.016      123.064        7.967        0.004      334.582        4.650      867.617
01/25/2014  20:30:00      -91.029      -47.086      -18.531       12.627       13.818       10.052      159.429      190.931      101.046        0.565        0.023      102.486        5.468        0.003      334.553        4.602      867.609
01/25/2014  20:31:00      -99.844      -37.169      -18.454       19.752       15.036       15.067      390.128      226.072      227.014        0.627        0.042      106.538       10.392        0.010      334.450        4.431      867.599
01/25/2014  20:32:00     -119.949      -13.852      -17.542       28.609       18.412       15.626      818.487      338.998      244.166        0.814        0.070      120.746       15.558        0.017      334.455        4.440      867.598
01/25/2014  20:33:00     -101.091      -23.107      -22.279       27.427       20.684       16.364      752.235      427.834      267.767        0.635        0.072      103.698       17.469        0.028      334.448        4.427      867.581
01/25/2014  20:34:00      -95.405      -20.854      -16.829       18.621       24.103       12.944      346.742      580.951      167.539        0.546        0.055       97.658       10.315        0.011      334.448        4.427      867.582
01/25/2014  20:35:00     -103.368      -22.816      -12.205       19.610       21.458       15.369      384.550      460.440      236.206        0.622        0.054      105.856       13.621        0.017      334.391        4.333      867.574
01/25/2014  20:36:00     -130.760      -28.777      -21.945       19.231       18.362       10.666      369.815      337.145      113.769        0.961        0.041      133.889        7.952        0.004      334.324        4.221      867.556
01/25/2014  20:37:00     -128.951      -31.616      -16.387       22.771       21.740       14.978      518.501      472.612      224.330        0.956        0.061      132.770       13.996        0.011      334.315        4.206      867.551
01/25/2014  20:38:00     -108.542      -31.165      -11.458       22.846       25.363       17.933      521.959      643.294      321.580        0.719        0.074      112.928       17.899        0.025      334.299        4.181      867.551
01/25/2014  20:39:00     -121.909      -14.001      -17.812       22.411       21.448       12.408      502.254      460.028      153.969        0.825        0.056      122.710       10.836        0.008      334.335        4.240      867.542
01/25/2014  20:40:00      -87.210       -8.160      -20.406       30.482       21.363       19.014      929.123      456.367      361.520        0.492        0.087       87.591       20.370        0.054      334.318        4.211      867.554
01/25/2014  20:41:00      -76.940      -24.443      -12.239       25.101       23.631       14.399      630.057      558.405      207.337        0.403        0.070       80.729        9.396        0.014      334.389        4.329      867.545
01/25/2014  20:42:00      -85.261      -31.315      -16.019       16.789       20.449       13.863      281.879      418.146      192.175        0.470        0.045       90.830        8.982        0.010      334.426        4.391      867.551
01/25/2014  20:43:00      -99.784      -25.405      -10.027       24.243       22.064       12.673      587.747      486.815      160.598        0.597        0.062      102.968       12.308        0.014      334.399        4.346      867.563
01/25/2014  20:44:00      -84.611      -42.615       -9.258       22.233       25.921       16.230      494.285      671.903      263.401        0.524        0.071       94.737       14.317        0.023      334.347        4.261      867.556
01/25/2014  20:45:00      -93.506      -36.914      -15.341       17.434       18.003       11.723      303.961      324.110      137.419        0.555        0.038      100.529        7.912        0.006      334.430        4.398      867.549
01/25/2014  20:46:00     -104.674      -13.269      -26.084       22.567       21.417       16.486      509.259      458.671      271.789        0.653        0.062      105.512       14.907        0.020      334.403        4.352      867.547
01/25/2014  20:47:00      -88.049      -27.666      -16.328       16.566       20.832       12.884      274.448      433.968      166.005        0.483        0.044       92.294       11.106        0.014      334.354        4.272      867.550
01/25/2014  20:48:00     -122.895       -5.279      -20.091       13.146       14.341       11.775      172.824      205.668      138.651        0.803        0.026      123.009        4.695        0.001      334.375        4.307      867.543
01/25/2014  20:49:00      -91.605       -9.847      -12.820       23.243       17.439       17.001      540.236      304.110      289.036        0.489        0.057       92.133       12.773        0.019      334.349        4.263      867.548
01/25/2014  20:50:00      -74.343      -29.585       -4.565       22.047       21.646       16.568      486.090      468.534      274.502        0.383        0.061       80.013        8.508        0.011      334.359        4.280      867.547
01/25/2014  20:51:00      -91.105      -30.297      -15.408       16.474       19.169       10.256      271.402      367.449      105.178        0.510        0.037       96.011        9.705        0.010      334.308        4.196      867.551
01/25/2014  20:52:00     -100.983      -30.190      -16.070       23.421       14.861       11.917      548.543      220.845      142.023        0.614        0.046      105.399        9.920        0.009      334.317        4.211      867.557
01/25/2014  20:53:00     -113.087      -37.318      -21.426       13.270       14.317       10.663      176.088      204.967      113.705        0.757        0.025      119.085        6.281        0.003      334.348        4.261      867.552
01/25/2014  20:54:00     -136.438      -36.026      -21.757        9.012        9.385        9.401       81.208       88.079       88.369        1.032        0.013      141.114        5.279        0.001      334.336        4.241      867.541
01/25/2014  20:55:00     -132.511      -30.439      -16.846       11.765       14.509       13.523      138.425      210.503      182.859        0.965        0.027      135.962        6.877        0.003      334.335        4.239      867.549
01/25/2014  20:56:00     -116.487      -28.277      -14.144       17.923       13.039       11.269      321.221      170.026      126.981        0.759        0.031      119.870        5.192        0.002      334.392        4.335      867.552
01/25/2014  20:57:00     -122.018      -27.594      -24.261        7.724        8.446        8.708       59.667       71.328       75.826        0.822        0.010      125.099        5.616        0.002      334.345        4.256      867.556
01/25/2014  20:58:00     -118.935      -32.064      -18.972       15.097       15.845        9.490      227.913      251.075       90.066        0.805        0.028      123.181        6.863        0.003      334.306        4.192      867.568
01/25/2014  20:59:00     -120.494      -44.217      -11.468       14.950       11.811       10.022      223.514      139.510      100.436        0.853        0.023      128.351        8.859        0.005      334.230        4.068      867.575
01/25/2014  21:00:00     -107.444      -57.030       -6.721       17.044       14.825       11.835      290.494      219.792      140.072        0.775        0.033      121.642        9.195        0.006      334.161        3.951      867.564
01/25/2014  21:01:00      -96.477      -39.912       -5.416       19.521       17.080       11.708      381.069      291.717      137.068        0.587        0.040      104.407        9.096        0.008      334.054        3.773      867.563
01/25/2014  21:02:00      -69.970      -35.736      -11.870       27.731       11.619       11.522      769.017      134.992      132.765        0.368        0.052       78.568        4.379        0.003      334.113        3.871      867.566
01/25/2014  21:03:00      -61.070      -36.275      -10.429       21.215       12.821        9.137      450.057      164.365       83.488        0.293        0.035       71.031        6.747        0.009      334.174        3.971      867.558
01/25/2014  21:04:00      -96.556      -47.391      -10.421       12.627       11.009        7.830      159.448      121.200       61.309        0.601        0.017      107.559        4.203        0.002      334.248        4.097      867.543
01/25/2014  21:05:00      -83.518      -41.831      -10.584       10.705        7.290        7.096      114.589       53.144       50.358        0.453        0.011       93.408        4.310        0.002      334.091        3.835      867.551
01/25/2014  21:06:00      -80.707      -45.700      -16.066       14.187       11.309        9.912      201.271      127.899       98.242        0.464        0.021       92.748        5.375        0.003      334.146        3.925      867.543
01/25/2014  21:07:00     -100.688      -48.884      -12.331        7.737        8.978        6.034       59.868       80.599       36.407        0.643        0.009      111.927        3.214        0.001      334.095        3.841      867.532
01/25/2014  21:08:00     -106.873      -59.164      -12.566       10.863       13.884        9.066      118.002      192.757       82.193        0.774        0.020      122.157        5.023        0.002      334.169        3.964      867.525
01/25/2014  21:09:00      -85.464      -44.101      -14.023       17.369       13.525        8.730      301.665      182.922       76.211        0.500        0.028       96.172        5.858        0.004      334.086        3.829      867.527
01/25/2014  21:10:00      -86.360      -46.001      -15.517        7.613        8.239        7.886       57.963       67.876       62.196        0.500        0.009       97.847        5.382        0.003      334.032        3.738      867.516
01/25/2014  21:11:00      -91.883      -41.550      -12.545        9.025        9.463        9.407       81.449       89.546       88.493        0.529        0.013      100.841        5.465        0.003      333.984        3.658      867.514
01/25/2014  21:12:00      -96.225      -31.097      -18.321       10.122        5.776        4.951      102.458       33.366       24.515        0.536        0.008      101.125        3.383        0.001      334.005        3.693      867.520
01/25/2014  21:13:00     -102.992      -29.535      -18.341       12.304        8.106        7.593      151.388       65.713       57.649        0.605        0.014      107.143        3.682        0.001      334.034        3.741      867.509
01/25/2014  21:14:00      -92.327      -20.621      -18.091        9.837        9.381        8.184       96.766       87.995       66.980        0.476        0.013       94.602        3.026        0.001      334.076        3.810      867.496
01/25/2014  21:15:00      -99.826      -21.229      -16.334       22.783       16.641       12.342      519.078      276.936      152.327        0.582        0.047      102.058       11.195        0.012      333.995        3.675      867.492
01/25/2014  21:16:00      -75.181      -26.840      -13.223       22.855       29.140       20.717      522.354      849.112      429.202        0.417        0.090       79.829       15.531        0.038      333.994        3.674      867.501
01/25/2014  21:17:00     -102.349      -10.915      -12.899       18.103       26.032       13.783      327.730      677.689      189.975        0.598        0.060      102.929       11.580        0.013      334.038        3.748      867.498
01/25/2014  21:18:00      -75.877      -21.783      -16.390       36.259       22.067       21.098     1314.733      486.969      445.112        0.437        0.112       78.942       18.674        0.056      333.973        3.640      867.501
01/25/2014  21:19:00      -39.283      -19.796        1.607       35.084       12.664       15.450     1230.854      160.376      238.699        0.178        0.081       43.989       17.412        0.157      333.844        3.426      867.513
01/25/2014  21:20:00      -86.874      -13.319      -16.085       10.238       11.591       12.990      104.815      134.341      168.736        0.420        0.020       87.889        7.096        0.007      333.931        3.571      867.533
01/25/2014  21:21:00      -74.682      -12.570      -12.955       21.514       12.705        9.038      462.863      161.415       81.691        0.330        0.035       75.732        8.253        0.012      333.897        3.514      867.532
01/25/2014  21:22:00      -44.566      -19.590       -4.941       13.148       12.328       12.590      172.868      151.989      158.506        0.144        0.024       48.682        6.565        0.018      333.973        3.639      867.523
01/25/2014  21:23:00      -64.101      -29.555      -17.210        7.599        7.718        6.601       57.742       59.569       43.573        0.272        0.008       70.586        4.461        0.004      333.966        3.628      867.530
01/25/2014  21:24:00      -75.860      -19.581      -13.313        7.230        9.092        6.331       52.268       82.658       40.081        0.325        0.009       78.347        2.286        0.001      333.948        3.599      867.533
01/25/2014  21:25:00      -97.270      -11.154      -20.392       10.100        6.576        6.614      102.018       43.244       43.744        0.510        0.009       97.908        4.407        0.002      333.971        3.637      867.527
01/25/2014  21:26:00      -91.916      -20.467      -16.819        8.462        6.941        5.685       71.605       48.171       32.319        0.465        0.008       94.167        3.155        0.001      333.924        3.560      867.519
01/25/2014  21:27:00      -91.799      -19.566      -12.223       21.715       15.820       11.836      471.541      250.279      140.081        0.491        0.043       93.861        9.928        0.011      333.903        3.523      867.511
01/25/2014  21:28:00     -108.024      -19.161      -15.230       20.937       14.148        9.093      438.348      200.163       82.683        0.649        0.036      109.711        5.136        0.002      333.815        3.378      867.507
01/25/2014  21:29:00      -94.169      -14.332      -11.481       15.762       17.634       13.267      248.440      310.968      176.000        0.497        0.037       95.253        9.966        0.011      333.837        3.414      867.506
01/25/2014  21:30:00      -82.316      -13.495      -19.301       20.377       18.109       13.492      415.205      327.924      182.033        0.413        0.046       83.415       13.170        0.025      333.843        3.424      867.496
01/25/2014  21:31:00      -86.192        4.203      -11.823       14.346       16.629       11.369      205.807      276.534      129.248        0.410        0.031       86.295        5.150        0.004      333.972        3.637      867.485
01/25/2014  21:32:00      -68.706       -4.240      -11.511       15.096       12.820        9.896      227.894      164.355       97.940        0.268        0.025       68.836       10.113        0.022      333.998        3.682      867.487
01/25/2014  21:33:00      -57.999      -17.141       -6.956        9.981       13.163        9.206       99.623      173.265       84.747        0.203        0.018       60.479        1.802        0.001      333.962        3.623      867.493
01/25/2014  21:34:00      -63.151      -12.352      -13.595        8.057       15.388        9.161       64.913      236.791       83.921        0.236        0.019       64.347        4.684        0.005      334.110        3.866      867.490
01/25/2014  21:35:00      -83.166       -3.836      -13.248       13.922       14.146        8.906      193.828      200.099       79.313        0.379        0.024       83.254        4.654        0.003      333.948        3.599      867.479
01/25/2014  21:36:00      -71.365        1.833       -8.671       19.043       23.017       16.075      362.626      529.762      258.400        0.316        0.058       71.388       13.270        0.035      333.829        3.401      867.467
01/25/2014  21:37:00      -77.931        0.235      -10.977       22.936       17.012       15.533      526.081      289.392      241.270        0.363        0.053       77.932        9.212        0.014      333.781        3.320      867.462
01/25/2014  21:38:00      -68.860       -4.257       -9.527       23.679       20.670       16.885      560.689      427.250      285.107        0.306        0.064       68.991       12.554        0.033      333.760        3.286      867.460
01/25/2014  21:39:00      -68.331      -24.793      -11.594       14.571       20.438       12.285      212.327      417.711      150.933        0.310        0.039       72.690        9.046        0.015      333.692        3.174      867.454
01/25/2014  21:40:00      -69.204      -22.646      -15.633       17.257       18.663       11.090      297.806      348.315      122.980        0.316        0.038       72.815       10.139        0.019      333.803        3.357      867.447
01/25/2014  21:41:00      -74.382      -19.343      -15.380       17.144       13.837       10.850      293.929      191.471      117.715        0.337        0.030       76.856       10.015        0.017      333.845        3.428      867.436
01/25/2014  21:42:00      -55.313      -32.630      -12.740       21.264       13.742        9.888      452.137      188.850       97.777        0.251        0.037       64.220       11.575        0.032      333.791        3.338      867.436
01/25/2014  21:43:00      -26.405      -38.806       -4.105       16.294       17.318       12.488      265.490      299.904      155.954        0.147        0.036       46.937        9.991        0.045      333.915        3.546      867.440
01/25/2014  21:44:00      -49.626      -11.714      -14.335       14.202       14.784       10.336      201.702      218.565      106.839        0.167        0.026       50.990        6.796        0.018      333.990        3.668      867.435
01/25/2014  21:45:00      -78.695       -3.045      -17.229       15.928       14.358       10.881      253.686      206.149      118.388        0.354        0.029       78.754        4.188        0.003      333.856        3.445      867.428
01/25/2014  21:46:00      -52.859      -13.364      -16.417       13.522       12.302        7.415      182.852      151.333       54.987        0.182        0.019       54.522        2.996        0.003      333.878        3.482      867.438
01/25/2014  21:47:00      -61.369        1.713      -12.208       12.148        9.641        7.784      147.580       92.956       60.590        0.211        0.015       61.393        5.558        0.008      334.216        4.043      867.441
01/25/2014  21:48:00      -67.528      -15.648      -16.221        8.420        8.365        6.257       70.891       69.967       39.148        0.262        0.009       69.317        4.086        0.003      333.871        3.471      867.446
01/25/2014  21:49:00      -73.169      -15.387      -10.800       16.181       11.493        7.790      261.820      132.087       60.684        0.308        0.023       74.769        9.161        0.015      333.826        3.396      867.448
01/25/2014  21:50:00      -83.920       -9.425      -16.183       10.979       10.721        9.164      120.536      114.936       83.981        0.386        0.016       84.447        6.620        0.006      333.794        3.343      867.443
01/25/2014  21:51:00     -105.430        1.377      -21.407       22.053       13.998       12.171      486.313      195.944      148.131        0.620        0.042      105.439        8.344        0.006      333.840        3.419      867.439
01/25/2014  21:52:00      -88.366      -19.944      -14.243       23.741       19.961       12.856      563.613      398.431      165.278        0.477        0.056       90.589       12.607        0.019      333.767        3.298      867.438
01/25/2014  21:53:00      -95.448       -3.993      -18.319       16.310       22.710       14.900      266.015      515.727      222.010        0.523        0.050       95.532       12.105        0.016      333.819        3.385      867.447
01/25/2014  21:54:00     -104.335       -1.069      -21.150       19.518       10.457       10.728      380.958      109.356      115.083        0.597        0.030      104.340        7.330        0.005      333.847        3.432      867.449
01/25/2014  21:55:00      -79.441      -18.310      -13.707       20.156       18.084       12.862      406.279      327.046      165.422        0.387        0.045       81.524        9.156        0.013      333.783        3.324      867.450
01/25/2014  21:56:00      -90.350      -16.141      -10.702       25.694       21.906       14.718      660.174      479.851      216.611        0.495        0.068       91.781       10.736        0.014      333.759        3.286      867.442
01/25/2014  21:57:00     -101.368      -21.719      -17.693       14.071       15.282       13.565      197.985      233.541      184.019        0.584        0.031      103.668        7.178        0.005      333.802        3.356      867.443
01/25/2014  21:58:00     -114.372      -23.010      -17.250       14.196        9.530        8.009      201.522       90.824       64.144        0.713        0.018      116.663        7.748        0.004      333.809        3.367      867.445
01/25/2014  21:59:00      -90.161      -40.651       -8.474       16.184       17.727       12.893      261.909      314.251      166.220        0.530        0.037       98.901        9.446        0.009      333.794        3.341      867.446
01/25/2014  22:00:00     -117.231      -55.071      -12.666       16.619       14.907       13.663      276.199      222.207      186.689        0.881        0.034      129.522        8.739        0.005      333.804        3.359      867.439
01/25/2014  22:01:00     -121.073      -39.123      -13.822       16.879       14.630       10.690      284.915      214.034      114.273        0.850        0.031      127.237        5.860        0.002      333.768        3.301      867.442
01/25/2014  22:02:00      -86.569      -44.286       -7.074       18.438       20.943       10.359      339.950      438.606      107.315        0.520        0.044       97.239        8.561        0.008      333.758        3.283      867.466
01/25/2014  22:03:00      -99.248      -58.831       -7.675       17.584       13.007       10.465      309.195      169.195      109.511        0.698        0.029      115.374        6.577        0.003      333.741        3.256      867.474
01/25/2014  22:04:00     -105.854      -68.699      -12.066       26.750       18.111       15.583      715.550      328.019      242.819        0.868        0.064      126.193       10.919        0.007      333.662        3.123      867.467
01/25/2014  22:05:00      -98.446      -48.644       -2.899       20.414       20.927       17.586      416.735      437.960      309.271        0.661        0.058      109.808        8.538        0.006      333.679        3.151      867.467
01/25/2014  22:06:00      -90.875      -49.057       -0.121       52.600       28.064       18.405     2766.797      787.578      338.731        0.728        0.195      103.271       16.678        0.026      333.676        3.147      867.478
01/25/2014  22:07:00      -75.646      -58.750       -1.427       49.961       36.705       20.340     2496.056     1347.282      413.721        0.672        0.213       95.780       24.141        0.064      333.570        2.971      867.475
01/25/2014  22:08:00      -97.134      -77.794       -5.122       26.321       39.295       26.084      692.800     1544.123      680.361        0.921        0.146      124.446       12.574        0.010      333.631        3.072      867.475
01/25/2014  22:09:00     -103.757      -86.664       -7.260       47.260       33.769       24.239     2233.505     1140.359      587.544        1.114        0.198      135.189       11.322        0.007      333.542        2.926      867.482
01/25/2014  22:10:00      -96.219     -104.268       -1.591       50.935       55.846       27.851     2594.335     3118.789      775.683        1.331        0.324      141.880       28.446        0.040      333.589        3.003      867.486
01/25/2014  22:11:00     -125.518      -86.034       -7.251       53.013       44.636       23.626     2810.411     1992.409      558.199        1.428        0.268      152.173       10.121        0.004      333.588        3.002      867.485
01/25/2014  22:12:00     -128.406      -79.889       -9.741       54.896       39.243       26.653     3013.579     1539.991      710.361        1.411        0.263      151.229       20.919        0.019      333.518        2.885      867.480
01/25/2014  22:13:00     -103.667      -78.208        1.851       68.831       42.518       34.323     4737.724     1807.789     1178.039        1.229        0.386      129.859       36.126        0.077      333.432        2.743      867.485
01/25/2014  22:14:00     -111.190      -65.700        9.616       56.607       38.605       28.344     3204.303     1490.311      803.390        1.113        0.275      129.150       24.809        0.037      333.454        2.779      867.492
01/25/2014  22:15:00     -114.864      -57.131        4.543       44.404       41.993       29.975     1971.715     1763.394      898.479        1.056        0.232      128.287       23.884        0.035      333.432        2.743      867.503
01/25/2014  22:16:00      -76.698      -58.651        6.489       49.796       45.958       27.582     2479.628     2112.119      760.745        0.736        0.268       96.553       26.324        0.074      333.468        2.801      867.510
01/25/2014  22:17:00     -114.908      -82.050        4.107       44.431       33.632       23.882     1974.099     1131.124      570.327        1.181        0.184      141.196       21.370        0.023      333.437        2.750      867.532
01/25/2014  22:18:00     -120.681      -75.095        3.840       54.581       39.662       23.434     2979.104     1573.110      549.156        1.266        0.255      142.138       27.240        0.037      333.517        2.882      867.531
01/25/2014  22:19:00      -79.444      -57.714        8.160       42.368       35.313       28.970     1795.067     1247.012      839.287        0.679        0.194       98.195       24.066        0.060      333.458        2.785      867.526
01/25/2014  22:20:00      -92.268      -71.544        0.049       32.822       30.363       24.576     1077.279      921.898      603.975        0.812        0.130      116.756       14.928        0.016      333.470        2.805      867.521
01/25/2014  22:21:00      -80.982      -51.519        6.133       46.140       29.767       22.169     2128.917      886.078      491.478        0.638        0.175       95.980       22.192        0.053      333.452        2.775      867.535
01/25/2014  22:22:00     -124.323      -63.589       -8.178       13.504       16.365       14.467      182.360      267.807      209.295        1.011        0.033      139.641        8.802        0.004      333.432        2.743      867.526
01/25/2014  22:23:00     -125.752      -46.223      -16.118       16.364       20.909        9.108      267.765      437.175       82.960        0.950        0.039      133.978        7.120        0.003      333.270        2.474      867.524
01/25/2014  22:24:00     -127.158      -57.365       -5.645       26.366       21.684       14.621      695.154      470.189      213.782        1.044        0.069      139.499       12.665        0.008      333.307        2.537      867.526
01/25/2014  22:25:00     -128.100      -51.342       -0.617       24.840       24.174       15.800      617.004      584.399      249.628        1.025        0.073      138.006       15.094        0.012      333.298        2.522      867.526
01/25/2014  22:26:00     -151.821      -49.094      -14.921       21.658       20.028       16.198      469.072      401.137      262.391        1.341        0.057      159.562       14.439        0.008      333.278        2.487      867.528
01/25/2014  22:27:00     -169.660      -49.836       -8.342       22.942       20.987       18.231      526.325      440.463      332.373        1.632        0.065      176.829       14.681        0.007      333.277        2.485      867.517
01/25/2014  22:28:00     -146.654      -40.636       -4.742       39.767       32.273       21.734     1581.410     1041.565      472.387        1.314        0.155      152.180       16.133        0.011      333.283        2.496      867.515
01/25/2014  22:29:00     -128.655      -61.199       -4.465       35.192       40.321       20.734     1238.470     1625.786      429.895        1.181        0.165      142.469       20.517        0.021      333.233        2.413      867.520
01/25/2014  22:30:00     -110.614      -25.010       -7.825       43.370       39.254       24.994     1880.918     1540.895      624.721        0.848        0.202      113.406       24.130        0.045      333.221        2.392      867.534
01/25/2014  22:31:00     -146.961      -17.011       -9.549       31.116       36.451       18.605      968.214     1328.681      346.149        1.231        0.132      147.942       17.201        0.014      333.244        2.432      867.540
01/25/2014  22:32:00     -148.138       -6.178      -17.841       28.090       24.603       20.120      789.054      605.315      404.821        1.205        0.090      148.267       17.189        0.013      333.332        2.578      867.541
01/25/2014  22:33:00     -155.986      -10.311      -15.103       38.301       23.703       18.456     1466.955      561.820      340.635        1.352        0.118      156.326       14.641        0.009      333.337        2.584      867.544
01/25/2014  22:34:00     -135.599      -23.364       -7.089       48.889       28.836       24.126     2390.143      831.533      582.053        1.139        0.190      137.597       26.983        0.038      333.277        2.485      867.554
01/25/2014  22:35:00      -94.175      -33.551        3.518       49.067       31.594       22.356     2407.554      998.194      499.797        0.696        0.195       99.973       24.324        0.059      333.241        2.425      867.559
01/25/2014  22:36:00     -101.376      -33.848        0.367       33.570       30.292       18.543     1126.935      917.587      343.853        0.691        0.119      106.877       14.964        0.020      333.316        2.550      867.567
01/25/2014  22:37:00     -114.351      -33.767       -0.560       32.511       31.713       16.338     1056.991     1005.706      266.928        0.827        0.116      119.233       15.998        0.018      333.383        2.661      867.587
01/25/2014  22:38:00     -124.824      -45.971       -8.482       16.689       16.303        9.566      278.508      265.781       91.506        0.920        0.032      133.020        5.185        0.002      333.326        2.568      867.588
01/25/2014  22:39:00     -123.895      -72.564       -1.036       27.040       23.082       17.205      731.157      532.763      295.998        1.109        0.078      143.581       17.186        0.014      333.560        2.955      867.582
01/25/2014  22:40:00     -117.172      -69.790       -3.427       22.558       19.254       18.482      508.885      370.704      341.581        0.992        0.061      136.382       13.777        0.010      333.592        3.006      867.569
01/25/2014  22:41:00     -113.126      -58.515       -5.863       22.331       20.107       15.847      498.670      404.303      251.119        0.870        0.058      127.364       13.720        0.012      333.500        2.856      867.573
01/25/2014  22:42:00     -105.211      -47.189       -4.698       22.930       18.393       13.537      525.772      338.311      183.260        0.718        0.052      115.310       12.301        0.011      333.279        2.489      867.574
01/25/2014  22:43:00      -85.428      -53.362       -0.747       29.749       20.543       11.390      885.019      422.014      129.741        0.579        0.072      100.724       11.882        0.014      333.335        2.582      867.570
01/25/2014  22:44:00     -101.684      -43.075      -11.129       11.402       14.700       10.072      130.011      216.087      101.452        0.638        0.022      110.431        6.112        0.003      333.293        2.514      867.570
01/25/2014  22:45:00     -109.447      -39.235      -14.033       11.217       10.743        7.673      125.824      115.404       58.872        0.701        0.015      116.267        4.036        0.001      333.267        2.469      867.573
01/25/2014  22:46:00      -85.793      -24.500       -3.779       32.527       16.736       11.932     1058.038      280.090      142.374        0.473        0.074       89.223       14.767        0.027      333.298        2.521      867.583
01/25/2014  22:47:00     -114.448      -35.788        0.862       19.116       20.719       13.650      365.408      429.286      186.320        0.768        0.049      119.913       11.101        0.009      333.391        2.674      867.584
01/25/2014  22:48:00      -86.099      -11.850       -0.956       42.779       22.097       21.103     1830.077      488.282      445.319        0.516        0.138       86.911       23.368        0.072      333.352        2.609      867.591
01/25/2014  22:49:00     -156.449       13.079      -15.789       29.787       22.851       18.197      887.282      522.184      331.145        1.332        0.087      156.995       15.645        0.010      333.654        3.108      867.585
01/25/2014  22:50:00     -145.164       -6.956      -16.548       19.841       23.335       14.969      393.657      544.527      224.067        1.128        0.058      145.330       11.513        0.006      333.559        2.954      867.584
01/25/2014  22:51:00     -157.206       -9.075      -14.179       20.301       26.818       12.740      412.126      719.218      162.306        1.315        0.065      157.468        7.661        0.002      333.572        2.976      867.568
01/25/2014  22:52:00     -141.909       -3.211      -16.280       23.374       25.645       18.365      546.344      657.658      337.289        1.098        0.077      141.946       11.092        0.006      333.504        2.861      867.567
01/25/2014  22:53:00     -139.524       10.895      -11.715       26.069       28.979       15.193      679.598      839.786      230.833        1.074        0.088      139.949       13.063        0.009      333.463        2.793      867.547
01/25/2014  22:54:00     -139.913       17.591      -12.125       34.110       29.894       17.826     1163.518      893.665      317.750        1.120        0.119      141.015       14.439        0.010      333.479        2.818      867.536
01/25/2014  22:55:00     -125.914       16.263      -11.022       27.991       19.737       17.613      783.522      389.547      310.214        0.886        0.074      126.960       16.815        0.018      333.441        2.755      867.530
01/25/2014  22:56:00     -136.354       11.295      -13.128       27.632       20.491       15.766      763.526      419.895      248.582        1.016        0.072      136.821       12.363        0.008      333.376        2.648      867.518
01/25/2014  22:57:00     -130.263       20.465       -8.375       40.023       30.607       17.500     1601.832      936.814      306.250        1.015        0.142      131.861       17.541        0.018      333.400        2.690      867.511
01/25/2014  22:58:00     -151.508      -10.545      -16.355       31.427       23.023       14.971      987.649      530.046      224.136        1.254        0.087      151.875       14.878        0.010      333.372        2.642      867.506
01/25/2014  22:59:00     -143.606      -16.138       -9.986       40.922       27.378       18.084     1674.646      749.567      327.049        1.187        0.138      144.510       17.681        0.015      333.325        2.565      867.501
01/25/2014  23:00:00     -140.737      -25.304       -7.641       44.553       31.581       28.142     1984.990      997.336      791.986        1.214        0.189      142.993       29.391        0.042      333.322        2.563      867.494
01/25/2014  23:01:00     -110.783      -21.153       -0.678       35.181       31.507       24.194     1237.703      992.708      585.353        0.777        0.141      112.785       24.172        0.046      333.225        2.399      867.488
01/25/2014  23:02:00     -123.668      -19.172       -9.391       34.835       21.997       23.606     1213.509      483.875      557.263        0.900        0.113      125.145       22.728        0.033      333.306        2.533      867.474
01/25/2014  23:03:00     -115.189      -33.800       -9.649       35.979       29.060       16.598     1294.471      844.480      275.506        0.846        0.121      120.046       17.972        0.022      333.319        2.555      867.475
01/25/2014  23:04:00     -128.904      -39.095      -11.454       22.396       20.073       12.597      501.601      402.917      158.674        0.967        0.053      134.702       11.272        0.007      333.250        2.442      867.482
01/25/2014  23:05:00     -159.279      -52.381      -10.243       17.288       15.242       10.189      298.885      232.322      103.821        1.443        0.032      167.671        9.308        0.003      333.178        2.321      867.491
01/25/2014  23:06:00     -148.583      -61.969        0.774       40.955       22.962       19.943     1677.276      527.256      397.722        1.426        0.130      160.987       23.127        0.021      333.134        2.249      867.496
01/25/2014  23:07:00     -112.915      -63.110       -6.018       38.863       21.920       15.079     1510.316      480.508      227.379        0.949        0.111      129.355       12.386        0.009      332.937        1.924      867.498
01/25/2014  23:08:00      -97.059      -60.680       -2.259       23.820       19.404       12.645      567.373      376.504      159.907        0.711        0.055      114.466        9.816        0.007      332.969        1.978      867.507
01/25/2014  23:09:00      -64.457      -49.616       -3.848       31.525       18.692       16.380      993.826      349.393      268.308        0.412        0.081       81.342       13.683        0.028      333.043        2.099      867.513
01/25/2014  23:10:00      -56.158      -50.014       -1.693       30.258       18.397       16.127      915.548      338.440      260.078        0.359        0.076       75.200       12.517        0.028      333.011        2.046      867.534
01/25/2014  23:11:00      -26.798      -35.262        7.135       29.812       20.915       17.577      888.783      437.419      308.938        0.182        0.082       44.289       12.886        0.085      333.017        2.057      867.539
01/25/2014  23:12:00      -35.497      -36.900        5.462       32.967       22.305       18.478     1086.823      497.515      341.438        0.229        0.096       51.202       14.606        0.081      333.032        2.081      867.554
01/25/2014  23:13:00      -42.088      -32.835       -0.495       41.805       20.073       15.744     1747.650      402.937      247.873        0.262        0.120       53.381        5.925        0.012      333.048        2.110      867.560
01/25/2014  23:14:00      -66.140      -47.685        1.560       32.237       19.593       19.228     1039.216      383.901      369.720        0.422        0.090       81.538       14.373        0.031      332.997        2.024      867.558
01/25/2014  23:15:00      -17.630      -30.629       12.471       40.454       24.658       20.694     1636.504      608.020      428.257        0.204        0.134       35.341       22.715        0.413      332.975        1.987      867.552
01/25/2014  23:16:00      -69.972      -48.042        4.404       42.612       26.492       22.851     1815.758      701.835      522.155        0.513        0.152       84.876       20.714        0.060      332.888        1.846      867.545
01/25/2014  23:17:00      -86.715      -53.240        4.931       49.413       30.185       20.282     2441.691      911.121      411.366        0.707        0.188      101.755       23.061        0.051      332.884        1.837      867.541
01/25/2014  23:18:00     -110.265      -54.325        6.027       42.373       28.231       21.436     1795.485      796.962      459.486        0.910        0.153      122.921       26.084        0.045      332.847        1.777      867.532
01/25/2014  23:19:00      -86.977      -52.771        7.319       39.333       23.454       20.483     1547.047      550.100      419.540        0.646        0.126      101.734       21.792        0.046      332.782        1.668      867.526
01/25/2014  23:20:00     -126.888      -77.051       -6.632       20.331       22.768       15.447      413.351      518.375      238.612        1.163        0.059      148.450        9.421        0.004      332.822        1.735      867.513
01/25/2014  23:21:00     -105.032      -71.691      -10.456       42.594       21.438       19.396     1814.253      459.571      376.188        0.946        0.133      127.167       18.876        0.022      332.856        1.792      867.497
01/25/2014  23:22:00      -99.112      -63.187      -12.220       24.458       14.840       15.632      598.182      220.213      244.365        0.751        0.053      117.541       12.115        0.011      332.812        1.721      867.498
01/25/2014  23:23:00      -87.606      -58.924       -3.669       24.188       19.683       19.405      585.073      387.428      376.573        0.625        0.067      105.578       14.328        0.018      332.760        1.633      867.505
01/25/2014  23:24:00      -97.682      -53.343       -6.498       22.818       18.008       14.231      520.674      324.300      202.526        0.674        0.052      111.298       15.883        0.020      332.786        1.677      867.516
01/25/2014  23:25:00      -96.704      -49.396      -10.014       16.408       17.582       12.384      269.219      309.117      153.375        0.631        0.037      108.589        5.978        0.003      332.806        1.708      867.524
01/25/2014  23:26:00     -104.193      -57.288      -11.086       13.815       13.759       12.879      190.841      189.307      165.871        0.740        0.027      118.904        5.449        0.002      332.775        1.657      867.536
01/25/2014  23:27:00     -100.961      -49.128       -1.754       32.840       23.523       16.191     1078.478      553.343      262.154        0.725        0.095      112.279       15.338        0.019      332.753        1.620      867.549
01/25/2014  23:28:00     -106.316      -41.316       -5.062       24.428       24.002       19.465      596.744      576.093      378.889        0.729        0.078      114.062       13.686        0.014      332.715        1.558      867.547
01/25/2014  23:29:00     -114.901      -46.152       -6.167       17.369       21.568       14.022      301.672      465.186      196.609        0.817        0.048      123.823        8.467        0.005      332.700        1.533      867.561
01/25/2014  23:30:00      -87.173      -43.142       -1.843       22.240       23.784       20.097      494.608      565.671      403.876        0.546        0.073       97.265       15.238        0.025      332.727        1.580      867.571
01/25/2014  23:31:00     -100.873      -36.147       -4.777       23.363       22.344       15.891      545.842      499.239      252.518        0.640        0.065      107.154       12.499        0.014      332.732        1.588      867.573
01/25/2014  23:32:00      -95.177      -42.525        1.546       24.247       24.106       19.290      587.910      581.109      372.118        0.621        0.077      104.245       15.712        0.023      332.736        1.593      867.575
01/25/2014  23:33:00     -114.635      -48.647       -6.073       15.778       16.336       13.126      248.932      266.859      172.291        0.812        0.034      124.530        9.917        0.006      332.750        1.615      867.572
01/25/2014  23:34:00     -112.479      -49.864       -3.428       22.147       18.530       11.820      490.508      343.343      139.708        0.806        0.049      123.037       11.747        0.009      332.700        1.534      867.567
01/25/2014  23:35:00     -120.726      -47.784       -6.524       17.771       15.928       14.605      315.815      253.709      213.298        0.884        0.039      129.839        6.535        0.003      332.654        1.456      867.560
01/25/2014  23:36:00      -99.960      -50.502       -0.748       23.696       22.817       17.072      561.495      520.635      291.457        0.696        0.069      111.993       14.990        0.018      332.692        1.521      867.555
01/25/2014  23:37:00     -102.669      -57.790       -0.701       30.746       22.377       16.584      945.312      500.726      275.036        0.780        0.086      117.816       17.868        0.023      332.650        1.452      867.542
01/25/2014  23:38:00      -97.160      -73.241       -3.478       24.141       17.485       13.969      582.778      305.712      195.125        0.795        0.054      121.673       12.513        0.011      332.663        1.473      867.533
01/25/2014  23:39:00     -105.468      -61.583       -7.408       18.321       15.880       11.379      335.651      252.188      129.474        0.784        0.036      122.131        6.445        0.003      332.675        1.493      867.526
01/25/2014  23:40:00     -102.748      -60.839       -4.822       20.228       21.220       14.206      409.190      450.296      201.808        0.767        0.053      119.409       12.360        0.011      332.671        1.485      867.522
01/25/2014  23:41:00     -123.830      -52.147       -6.523       13.252       15.487       10.547      175.625      239.838      111.229        0.931        0.026      134.362        5.985        0.002      332.720        1.566      867.519
01/25/2014  23:42:00     -114.997      -56.371       -3.342       28.265       15.727       13.925      798.922      247.350      193.905        0.883        0.062      128.070       12.665        0.010      332.662        1.470      867.521
01/25/2014  23:43:00     -123.331      -59.893       -5.845       17.907       14.989       12.005      320.666      224.678      144.115        0.976        0.034      137.105        6.789        0.002      332.667        1.480      867.527
01/25/2014  23:44:00     -108.576      -58.090        1.685       32.182       30.071       16.820     1035.670      904.265      282.915        0.869        0.111      123.139       11.610        0.009      332.616        1.393      867.539
01/25/2014  23:45:00     -123.469      -53.220       -6.940       25.589       21.780       14.639      654.800      474.381      214.309        0.973        0.067      134.450       11.080        0.007      332.616        1.395      867.546
01/25/2014  23:46:00     -122.142      -40.828        0.311       29.360       24.362       17.911      861.988      593.502      320.792        0.918        0.089      128.785       16.572        0.017      332.605        1.375      867.548
01/25/2014  23:47:00      -85.310      -40.723        7.821       40.211       27.555       22.503     1616.946      759.287      506.385        0.594        0.144       94.532       19.117        0.041      332.566        1.311      867.545
01/25/2014  23:48:00     -121.785      -48.386        1.033       34.792       24.905       18.572     1210.498      620.269      344.908        0.967        0.109      131.045       16.676        0.016      332.569        1.317      867.546
01/25/2014  23:49:00     -114.829      -41.301        0.652       35.413       27.557       17.566     1254.047      759.384      308.571        0.861        0.116      122.030       19.262        0.025      332.524        1.242      867.557
01/25/2014  23:50:00      -92.402      -44.193        3.429       43.090       24.051       19.003     1856.773      578.455      361.101        0.665        0.140      102.427       22.433        0.048      332.489        1.185      867.568
01/25/2014  23:51:00     -103.680      -45.289       -0.801       30.437       26.227       17.424      926.401      687.881      303.606        0.736        0.096      113.140       17.751        0.025      332.429        1.086      867.565
01/25/2014  23:52:00      -90.111      -54.342        4.636       38.285       29.148       24.499     1465.773      849.631      600.187        0.700        0.146      105.229       20.369        0.037      332.472        1.156      867.551
01/25/2014  23:53:00      -86.105      -50.105        3.393       46.273       27.234       17.392     2141.199      741.682      302.497        0.656        0.159       99.622       22.772        0.052      332.399        1.037      867.544
01/25/2014  23:54:00      -86.694      -64.515        0.990       25.718       25.705       18.721      661.415      660.772      350.458        0.668        0.084      108.065       13.022        0.015      332.469        1.151      867.538
01/25/2014  23:55:00      -82.075      -54.179       -6.824       21.440       20.922       14.146      459.665      437.722      200.117        0.541        0.055       98.345        4.423        0.002      332.452        1.124      867.525
01/25/2014  23:56:00     -105.024      -41.771       -9.698       16.631       17.111       11.071      276.602      292.794      122.560        0.678        0.035      113.026        9.222        0.007      332.450        1.119      867.502
01/25/2014  23:57:00     -106.771      -62.714       -8.174       26.117       17.473       12.122      682.076      305.301      146.931        0.827        0.057      123.826        6.443        0.003      332.460        1.137      867.479
01/25/2014  23:58:00     -108.654      -67.251       -3.683       19.964       16.341       15.014      398.566      267.034      225.416        0.862        0.045      127.783       12.050        0.009      332.455        1.128      867.471
01/25/2014  23:59:00      -84.309      -52.159       -4.730       40.953       23.666       21.551     1677.115      560.071      464.443        0.628        0.135       99.139       20.330        0.042      332.469        1.152      867.471
